[[{"header":{"parameterUnit":"m.s-1","parameterCategory":1,"la1":31.0,"la2":29.5877,"lo1":-88.7671,"lo2":-86.6584,"dy":0.0162,"dx":0.0185,"nx":115,"ny":88,"refTime":"2024-08-14T06:00:00:Z","depth":0,"parameterNumber":2,"parameterNumberName":"U-component_of_WINDS"},"data":[0.0,0.0,0.0,0.0,0.0,0.0,0.0,0.0,0.0,0.0,0.0,0.0,0.0,0.0,0.0,0.0,0.0,0.0,0.0,0.0,0.0,0.0,0.0,0.0,0.0,0.0,0.0,0.0,0.0,0.0,0.0,0.0,0.0,0.0,0.0,0.0,0.0,0.0,0.0,0.0,0.0,0.0,0.0,0.0,0.0,0.0,0.0,0.0,0.0,0.0,0.0,0.0,0.0,0.0,0.0,0.0,0.0,0.0,0.0,0.0,0.0,0.0,0.0,0.0,0.0,0.0,0.0,0.0,0.0,0.0,0.0,0.0,0.0,0.0,0.0,0.0,0.0,0.0,0.0,0.0,0.0,0.0,0.0,0.0,0.0,0.0,0.0,0.0,0.0,0.0,0.0,0.0,0.0,0.0,0.0,0.0,0.0,0.0,0.0,0.0,0.0,0.0,0.0,0.0,0.0,0.0,0.0,0.0,0.0,0.0,0.0,0.0,0.0,0.0,0.0,0.0,0.0,0.0,0.0,0.0,0.0,0.0,0.0,0.0,0.0,0.0,0.0,0.0,0.0,0.0,0.0,0.0,0.0,0.0,0.0,0.0,0.0,0.0,0.0,0.0,0.0,0.0,0.0,0.0,0.0,0.0,0.0,0.0,0.0,0.0,0.0,0.0,0.0,0.0,0.0,0.0,0.0,0.0,0.0,0.0,0.0,0.0,0.0,0.0,0.0,0.0,0.0,0.0,0.0,0.0,0.0,0.0,0.0,0.0,0.0,0.0,0.0,0.0,0.0,0.0,0.0,0.0,0.0,0.0,0.0,0.0,0.0,0.0,0.0,0.0,0.0,0.0,0.0,0.0,0.0,0.0,0.0,0.0,0.0,0.0,0.0,0.0,0.0,0.0,0.0,0.0,0.0,0.0,0.0,0.0,0.0,0.0,0.0,0.0,0.0,0.0,0.0,0.0,0.0,0.0,0.0,0.0,0.0,0.0,0.0,0.0,0.0,0.0,0.0,0.0,0.0,0.0,0.0,0.0,0.0,0.0,0.0,0.0,0.0,0.0,0.0,0.0,0.0,0.0,0.0,0.0,0.0,0.0,0.0,0.0,0.0,0.0,0.0,0.0,0.0,0.0,0.0,0.0,0.0,0.0,0.0,0.0,0.0,0.0,0.0,0.0,0.0,0.0,0.0,0.0,0.0,0.0,0.0,0.0,0.0,0.0,0.0,0.0,0.0,0.0,0.0,0.0,0.0,0.0,0.0,0.0,0.0,0.0,0.0,0.0,0.0,0.0,0.0,0.0,0.0,0.0,0.0,0.0,0.0,0.0,0.0,0.0,0.0,0.0,0.0,0.0,0.0,0.0,0.0,0.0,0.0,0.0,0.0,0.0,0.0,0.0,0.0,0.0,0.0,0.0,0.0,0.0,0.0,0.0,0.0,0.0,0.0,0.0,0.0,0.0,0.0,0.0,0.0,0.0,0.0,0.0,0.0,0.0,0.0,0.0,0.0,0.0,0.0,0.0,0.0,0.0,0.0,0.0,0.0,0.0,0.0,0.0,0.0,0.0,0.0,0.0,0.0,0.0,0.0,0.0,0.0,0.0,0.0,0.0,0.0,0.0,0.0,0.0,0.0,0.0,0.0,0.0,0.0,0.0,0.0,0.0,0.0,0.0,0.0,0.0,0.0,0.0,0.0,0.0,0.0,0.0,0.0,0.0,0.0,0.0,0.0,0.0,0.0,0.0,0.0,0.0,0.0,0.0,0.0,0.0,0.0,0.0,0.0,0.0,0.0,0.0,0.0,0.0,0.0,0.0,0.0,0.0,0.0,0.0,0.0,0.0,0.0,0.0,0.0,0.0,0.0,0.0,0.0,0.0,0.0,0.0,0.0,0.0,0.0,0.0,0.0,0.0,0.0,0.0,0.0,0.0,0.0,0.0,0.0,0.0,0.0,0.0,0.0,0.0,0.0,0.0,0.0,0.0,0.0,0.0,0.0,0.0,0.0,0.0,0.0,0.0,0.0,0.0,0.0,0.0,0.0,0.0,0.0,0.0,0.0,0.0,0.0,0.0,0.0,0.0,0.0,0.0,0.0,0.0,0.0,0.0,0.0,0.0,0.0,0.0,0.0,0.0,0.0,0.0,0.0,0.0,0.0,0.0,0.0,0.0,0.0,0.0,0.0,0.0,0.0,0.0,0.0,0.0,0.0,0.0,0.0,0.0,0.0,0.0,0.0,0.0,0.0,0.0,0.0,0.0,0.0,0.0,0.0,0.0,0.0,0.0,0.0,0.0,0.0,0.0,0.0,0.0,0.0,0.0,0.0,0.0,0.0,0.0,0.0,0.0,0.0,0.0,0.0,0.0,0.0,0.0,0.0,0.0,0.0,0.0,0.0,0.0,0.0,0.0,0.0,0.0,0.0,0.0,0.0,0.0,0.0,0.0,0.0,0.0,0.0,0.0,0.0,0.0,0.0,0.0,0.0,0.0,0.0,0.0,0.0,0.0,0.0,0.0,0.0,0.0,0.0,0.0,0.0,0.0,0.0,0.0,0.0,0.0,0.0,0.0,0.0,0.0,0.0,0.0,0.0,0.0,0.0,0.0,0.0,0.0,0.0,0.0,0.0,0.0,0.0,0.0,0.0,0.0,0.0,0.0,0.0,0.0,0.0,0.0,0.0,0.0,0.0,0.0,0.0,0.0,0.0,0.0,0.0,0.0,0.0,0.0,0.0,0.0,0.0,0.0,0.0,0.0,0.0,0.0,0.0,0.0,0.0,0.0,0.0,0.0,0.0,0.0,0.0,0.0,0.0,0.0,0.0,0.0,0.0,0.0,0.0,0.0,0.0,0.0,0.0,0.0,0.0,0.0,0.0,0.0,0.0,0.0,0.0,0.0,0.0,0.0,0.0,0.0,0.0,0.0,0.0,0.0,0.0,0.0,0.0,0.0,0.0,0.0,0.0,0.0,0.0,0.0,0.0,0.0,0.0,0.0,0.0,0.0,0.0,0.0,0.0,0.0,0.0,0.0,0.0,0.0,0.0,0.0,0.0,0.0,0.0,0.0,0.0,0.0,0.0,0.0,0.0,0.0,0.0,0.0,0.0,0.0,0.0,0.0,0.0,0.0,0.0,0.0,0.0,0.0,0.0,0.0,0.0,0.0,0.0,0.0,0.0,0.0,0.0,0.0,0.0,0.0,0.0,0.0,0.0,0.0,0.0,0.0,0.0,0.0,0.0,0.0,0.0,0.0,0.0,0.0,0.0,0.0,0.0,0.0,0.0,0.0,0.0,0.0,0.0,0.0,0.0,0.0,0.0,0.0,0.0,0.0,0.0,0.0,0.0,0.0,0.0,0.0,0.0,0.0,0.0,0.0,0.0,0.0,0.0,0.0,0.0,0.0,0.0,0.0,0.0,0.0,0.0,0.0,0.0,0.0,0.0,0.0,0.0,0.0,0.0,0.0,0.0,0.0,0.0,0.0,0.0,0.0,0.0,0.0,0.0,0.0,0.0,0.0,0.0,0.0,0.0,0.0,0.0,0.0,0.0,0.0,0.0,0.0,0.0,0.0,0.0,0.0,0.0,0.0,0.0,0.0,0.0,0.0,0.0,0.0,0.0,0.0,0.0,0.0,0.0,0.0,0.0,0.0,0.0,0.0,0.0,0.0,0.0,0.0,0.0,0.0,0.0,0.0,0.0,0.0,0.0,0.0,0.0,0.0,0.0,0.0,0.0,0.0,0.0,0.0,0.0,0.0,0.0,0.0,0.0,0.0,0.0,0.0,0.0,0.0,0.0,0.0,0.0,0.0,0.0,0.0,0.0,0.0,0.0,0.0,0.0,0.0,0.0,0.0,0.0,0.0,0.0,0.0,0.0,0.0,0.0,0.0,0.0,0.0,0.0,0.0,0.0,0.0,0.0,0.0,0.0,0.0,0.0,0.0,0.0,0.0,0.0,0.0,0.0,0.0,0.0,0.0,0.0,0.0,0.0,0.0,0.0,0.0,0.0,0.0,0.0,0.0,0.0,0.0,0.0,0.0,0.0,0.0,0.0,0.0,0.0,0.0,0.0,0.0,0.0,0.0,0.0,0.0,0.0,0.0,0.0,0.0,0.0,0.0,0.0,0.0,0.0,0.0,0.0,0.0,0.0,0.0,0.0,0.0,0.0,0.0,0.0,0.0,0.0,0.0,0.0,0.0,0.0,0.0,0.0,0.0,0.0,0.0,0.0,0.0,0.0,0.0,0.0,0.0,0.0,0.0,0.0,0.0,0.0,0.0,-1.9708,0.0,0.0,0.0,0.0,0.0,0.0,0.0,0.0,0.0,0.0,0.0,0.0,0.0,0.0,0.0,0.0,0.0,0.0,0.0,0.0,0.0,0.0,0.0,0.0,0.0,0.0,0.0,0.0,0.0,0.0,0.0,0.0,0.0,0.0,0.0,0.0,0.0,0.0,0.0,0.0,0.0,0.0,0.0,0.0,0.0,0.0,0.0,0.0,0.0,0.0,0.0,0.0,0.0,0.0,0.0,0.0,0.0,0.0,0.0,0.0,0.0,0.0,0.0,0.0,0.0,0.0,0.0,0.0,0.0,0.0,0.0,0.0,0.0,0.0,0.0,0.0,0.0,0.0,0.0,0.0,0.0,0.0,0.0,0.0,0.0,0.0,0.0,0.0,0.0,0.0,0.0,0.0,0.0,0.0,0.0,0.0,0.0,0.0,0.0,0.0,0.0,0.0,0.0,0.0,0.0,0.0,0.0,0.0,0.0,0.0,-1.9723,-1.9723,-1.9723,-1.9723,-1.9708,0.0,0.0,0.0,0.0,0.0,0.0,0.0,0.0,0.0,0.0,0.0,0.0,0.0,0.0,0.0,0.0,0.0,0.0,0.0,0.0,0.0,0.0,0.0,0.0,0.0,0.0,0.0,0.0,0.0,0.0,0.0,0.0,0.0,0.0,0.0,0.0,0.0,0.0,0.0,0.0,0.0,0.0,0.0,0.0,0.0,0.0,0.0,0.0,0.0,0.0,0.0,0.0,0.0,0.0,0.0,0.0,0.0,0.0,0.0,0.0,0.0,0.0,0.0,0.0,0.0,0.0,0.0,0.0,0.0,0.0,0.0,0.0,0.0,0.0,0.0,0.0,0.0,0.0,0.0,0.0,0.0,0.0,0.0,0.0,0.0,0.0,0.0,0.0,0.0,0.0,0.0,0.0,0.0,0.0,0.0,0.0,0.0,0.0,0.0,0.0,0.0,0.0,0.0,0.0,0.0,0.0,0.0,0.0,0.0,0.0,0.0,0.0,-1.9723,-1.9633,-1.948,0.0,0.0,0.0,0.0,0.0,0.0,0.0,0.0,0.0,0.0,0.0,0.0,0.0,0.0,0.0,0.0,0.0,0.0,0.0,0.0,0.0,0.0,0.0,0.0,0.0,0.0,0.0,0.0,0.0,0.0,0.0,0.0,0.0,0.0,0.0,0.0,0.0,0.0,0.0,0.0,0.0,0.0,0.0,0.0,0.0,0.0,0.0,0.0,0.0,0.0,0.0,0.0,0.0,0.0,0.0,0.0,0.0,0.0,0.0,0.0,0.0,0.0,0.0,0.0,0.0,0.0,0.0,0.0,0.0,0.0,0.0,0.0,0.0,0.0,0.0,0.0,0.0,0.0,0.0,0.0,0.0,0.0,0.0,0.0,0.0,0.0,0.0,0.0,0.0,0.0,0.0,0.0,0.0,0.0,0.0,0.0,0.0,0.0,0.0,0.0,0.0,0.0,0.0,0.0,0.0,0.0,0.0,0.0,0.0,0.0,-1.9723,-1.9723,-1.9708,0.0,-1.8852,0.0,0.0,0.0,0.0,0.0,0.0,0.0,0.0,0.0,0.0,0.0,0.0,0.0,0.0,0.0,0.0,0.0,0.0,0.0,0.0,0.0,0.0,0.0,0.0,0.0,0.0,0.0,0.0,0.0,0.0,0.0,0.0,0.0,0.0,0.0,0.0,0.0,0.0,0.0,0.0,0.0,0.0,0.0,0.0,0.0,0.0,0.0,0.0,0.0,0.0,0.0,0.0,0.0,0.0,0.0,0.0,0.0,0.0,0.0,0.0,0.0,0.0,0.0,0.0,0.0,0.0,0.0,0.0,0.0,0.0,0.0,0.0,0.0,0.0,0.0,0.0,0.0,0.0,0.0,0.0,0.0,0.0,0.0,0.0,0.0,0.0,0.0,0.0,0.0,0.0,0.0,0.0,0.0,0.0,0.0,0.0,0.0,0.0,0.0,0.0,0.0,0.0,0.0,0.0,0.0,0.0,0.0,0.0,0.0,0.0,-1.9074,-1.8753,-1.8659,-1.8516,0.0,0.0,0.0,0.0,0.0,0.0,0.0,0.0,0.0,0.0,0.0,0.0,0.0,0.0,0.0,0.0,0.0,0.0,0.0,0.0,0.0,0.0,0.0,0.0,0.0,0.0,0.0,0.0,0.0,0.0,0.0,0.0,0.0,0.0,0.0,0.0,0.0,0.0,0.0,0.0,0.0,0.0,0.0,0.0,0.0,0.0,0.0,0.0,0.0,0.0,0.0,0.0,0.0,0.0,0.0,0.0,0.0,0.0,0.0,0.0,0.0,0.0,0.0,0.0,0.0,0.0,0.0,0.0,0.0,0.0,0.0,0.0,0.0,0.0,0.0,0.0,0.0,0.0,0.0,0.0,0.0,0.0,0.0,0.0,0.0,0.0,0.0,0.0,0.0,0.0,0.0,0.0,0.0,0.0,0.0,0.0,0.0,0.0,0.0,0.0,0.0,0.0,0.0,0.0,0.0,0.0,0.0,0.0,0.0,0.0,-1.89,-1.8631,-1.8126,-1.7989,-1.7807,-1.7466,0.0,0.0,0.0,0.0,0.0,0.0,0.0,0.0,0.0,0.0,0.0,0.0,0.0,0.0,0.0,0.0,0.0,0.0,0.0,0.0,0.0,0.0,0.0,0.0,0.0,0.0,0.0,0.0,0.0,0.0,0.0,0.0,0.0,0.0,0.0,0.0,0.0,0.0,0.0,0.0,0.0,0.0,0.0,0.0,0.0,0.0,0.0,0.0,0.0,0.0,0.0,0.0,0.0,0.0,0.0,0.0,0.0,0.0,0.0,0.0,0.0,0.0,0.0,0.0,0.0,0.0,0.0,0.0,0.0,0.0,0.0,0.0,0.0,0.0,0.0,0.0,0.0,0.0,0.0,0.0,0.0,0.0,0.0,0.0,0.0,0.0,0.0,0.0,0.0,0.0,0.0,0.0,0.0,0.0,0.0,0.0,0.0,0.0,0.0,0.0,0.0,0.0,0.0,0.0,0.0,0.0,0.0,0.0,-1.8879,-1.8865,-1.8631,-1.8092,-1.8084,-1.7531,0.0,0.0,0.0,0.0,0.0,0.0,0.0,0.0,0.0,0.0,0.0,0.0,0.0,0.0,0.0,0.0,0.0,0.0,0.0,0.0,0.0,0.0,0.0,0.0,0.0,0.0,0.0,0.0,0.0,0.0,0.0,0.0,0.0,0.0,0.0,0.0,0.0,0.0,0.0,0.0,0.0,0.0,0.0,0.0,0.0,0.0,0.0,0.0,0.0,0.0,0.0,0.0,0.0,0.0,0.0,0.0,0.0,0.0,0.0,0.0,0.0,0.0,0.0,0.0,0.0,0.0,0.0,0.0,0.0,0.0,0.0,0.0,0.0,0.0,0.0,0.0,0.0,0.0,0.0,0.0,0.0,0.0,0.0,0.0,0.0,0.0,0.0,0.0,0.0,0.0,0.0,0.0,0.0,0.0,0.0,0.0,0.0,0.0,0.0,0.0,0.0,0.0,0.0,0.0,0.0,0.0,0.0,0.0,0.0,-1.7876,-1.7545,-1.7271,-1.7071,-1.6659,-1.622,0.0,0.0,0.0,0.0,0.0,0.0,0.0,0.0,0.0,0.0,0.0,0.0,0.0,0.0,0.0,0.0,0.0,0.0,0.0,0.0,0.0,0.0,0.0,0.0,0.0,0.0,0.0,0.0,0.0,0.0,0.0,0.0,0.0,0.0,0.0,0.0,0.0,0.0,0.0,0.0,0.0,0.0,0.0,0.0,0.0,0.0,0.0,0.0,0.0,0.0,0.0,0.0,0.0,0.0,0.0,0.0,0.0,0.0,0.0,0.0,0.0,0.0,0.0,0.0,0.0,0.0,0.0,0.0,0.0,0.0,0.0,0.0,0.0,0.0,0.0,0.0,0.0,0.0,0.0,0.0,0.0,0.0,0.0,0.0,0.0,0.0,0.0,0.0,0.0,0.0,0.0,0.0,0.0,0.0,0.0,0.0,0.0,0.0,0.0,0.0,0.0,0.0,0.0,0.0,0.0,0.0,0.0,0.0,0.0,-1.7301,0.0,-1.6513,-1.6497,-1.6066,-1.5666,0.0,0.0,0.0,0.0,0.0,0.0,0.0,0.0,0.0,0.0,0.0,0.0,0.0,0.0,0.0,0.0,0.0,0.0,0.0,0.0,0.0,0.0,0.0,0.0,0.0,0.0,0.0,0.0,0.0,0.0,0.0,0.0,0.0,0.0,0.0,0.0,0.0,0.0,0.0,0.0,0.0,0.0,0.0,0.0,0.0,0.0,0.0,0.0,0.0,0.0,0.0,0.0,0.0,0.0,0.0,0.0,0.0,0.0,0.0,0.0,0.0,0.0,0.0,0.0,0.0,0.0,0.0,0.0,0.0,0.0,0.0,0.0,0.0,0.0,0.0,0.0,0.0,0.0,0.0,0.0,0.0,0.0,0.0,0.0,0.0,0.0,0.0,0.0,0.0,0.0,0.0,0.0,0.0,0.0,0.0,0.0,0.0,0.0,0.0,0.0,0.0,0.0,0.0,0.0,0.0,0.0,0.0,0.0,-1.7278,-1.7258,-1.6761,-1.6513,-1.6522,-1.6471,-1.5969,0.0,0.0,0.0,0.0,0.0,0.0,0.0,0.0,0.0,0.0,0.0,0.0,0.0,0.0,0.0,0.0,0.0,0.0,0.0,0.0,0.0,0.0,0.0,0.0,0.0,0.0,0.0,0.0,0.0,0.0,0.0,0.0,0.0,0.0,0.0,0.0,0.0,0.0,0.0,0.0,0.0,0.0,0.0,0.0,0.0,0.0,0.0,0.0,0.0,0.0,0.0,0.0,0.0,0.0,0.0,0.0,0.0,0.0,0.0,0.0,0.0,0.0,0.0,0.0,0.0,0.0,0.0,0.0,0.0,0.0,0.0,0.0,0.0,0.0,0.0,0.0,0.0,0.0,0.0,0.0,0.0,0.0,0.0,0.0,0.0,0.0,0.0,0.0,0.0,0.0,0.0,0.0,0.0,0.0,0.0,0.0,0.0,0.0,0.0,0.0,0.0,0.0,0.0,0.0,0.0,0.0,0.0,0.0,0.0,-1.6731,-1.6595,-1.671,-1.7061,-1.6358,-1.5948,0.0,0.0,0.0,0.0,0.0,0.0,0.0,0.0,0.0,0.0,0.0,0.0,0.0,0.0,0.0,0.0,0.0,0.0,0.0,0.0,0.0,0.0,0.0,0.0,0.0,0.0,0.0,0.0,0.0,0.0,0.0,0.0,0.0,0.0,0.0,0.0,0.0,0.0,0.0,0.0,0.0,0.0,0.0,0.0,0.0,0.0,0.0,0.0,0.0,0.0,0.0,0.0,0.0,0.0,0.0,0.0,0.0,0.0,0.0,0.0,0.0,0.0,0.0,0.0,0.0,0.0,0.0,0.0,0.0,0.0,0.0,0.0,0.0,0.0,0.0,0.0,0.0,0.0,0.0,0.0,0.0,0.0,0.0,0.0,0.0,0.0,0.0,0.0,0.0,0.0,0.0,0.0,0.0,0.0,0.0,0.0,0.0,0.0,0.0,0.0,0.0,0.0,0.0,0.0,0.0,0.0,0.0,0.0,0.0,-1.6835,-1.6835,-1.6911,-1.7061,-1.6572,-1.6283,-1.6195,0.0,0.0,0.0,0.0,0.0,0.0,0.0,0.0,0.0,0.0,0.0,0.0,0.0,0.0,0.0,0.0,0.0,0.0,0.0,0.0,0.0,0.0,0.0,0.0,0.0,0.0,0.0,0.0,0.0,0.0,0.0,0.0,0.0,0.0,0.0,0.0,0.0,0.0,0.0,0.0,0.0,0.0,0.0,0.0,0.0,0.0,0.0,0.0,0.0,0.0,0.0,0.0,0.0,0.0,0.0,0.0,0.0,0.0,0.0,0.0,0.0,0.0,0.0,0.0,0.0,0.0,0.0,0.0,0.0,0.0,0.0,0.0,0.0,0.0,0.0,0.0,0.0,0.0,0.0,0.0,0.0,0.0,0.0,0.0,0.0,0.0,0.0,0.0,0.0,0.0,0.0,0.0,0.0,0.0,0.0,0.0,0.0,0.0,0.0,0.0,0.0,0.0,0.0,0.0,0.0,0.0,0.0,0.0,-1.733,-1.7393,-1.7157,-1.6635,-1.7102,-1.6898,0.0,0.0,0.0,0.0,0.0,0.0,0.0,0.0,0.0,0.0,0.0,0.0,0.0,0.0,0.0,0.0,0.0,0.0,0.0,0.0,0.0,0.0,0.0,0.0,0.0,0.0,0.0,0.0,0.0,0.0,0.0,0.0,0.0,0.0,0.0,0.0,0.0,0.0,0.0,0.0,0.0,0.0,0.0,0.0,0.0,0.0,0.0,0.0,0.0,0.0,0.0,0.0,0.0,0.0,0.0,0.0,0.0,0.0,0.0,0.0,0.0,0.0,0.0,0.0,0.0,0.0,0.0,0.0,0.0,0.0,0.0,0.0,0.0,0.0,0.0,0.0,0.0,0.0,0.0,0.0,0.0,0.0,0.0,0.0,0.0,0.0,0.0,0.0,0.0,0.0,0.0,0.0,0.0,0.0,0.0,0.0,0.0,0.0,0.0,0.0,0.0,0.0,0.0,0.0,0.0,0.0,0.0,0.0,0.0,-1.6686,-1.7376,-1.7701,-1.752,-1.7447,-1.7208,0.0,0.0,0.0,0.0,0.0,0.0,0.0,0.0,0.0,0.0,0.0,0.0,0.0,0.0,0.0,0.0,0.0,0.0,0.0,0.0,0.0,0.0,0.0,0.0,0.0,0.0,0.0,0.0,0.0,0.0,0.0,0.0,0.0,0.0,0.0,0.0,0.0,0.0,0.0,0.0,0.0,0.0,0.0,0.0,0.0,0.0,0.0,0.0,0.0,0.0,0.0,0.0,0.0,0.0,0.0,0.0,0.0,0.0,0.0,0.0,0.0,0.0,0.0,0.0,0.0,0.0,0.0,0.0,0.0,0.0,0.0,0.0,0.0,0.0,0.0,0.0,0.0,0.0,0.0,0.0,0.0,0.0,0.0,0.0,0.0,0.0,0.0,0.0,0.0,0.0,0.0,0.0,0.0,0.0,0.0,0.0,0.0,0.0,0.0,0.0,0.0,0.0,0.0,0.0,0.0,0.0,0.0,0.0,-1.6353,-1.6587,-1.7349,-1.7634,-1.7314,-1.7515,-1.7339,0.0,0.0,0.0,0.0,0.0,0.0,0.0,0.0,0.0,0.0,0.0,0.0,0.0,0.0,0.0,0.0,0.0,0.0,0.0,0.0,0.0,0.0,0.0,0.0,0.0,0.0,0.0,0.0,0.0,0.0,0.0,0.0,0.0,0.0,0.0,0.0,0.0,0.0,0.0,0.0,0.0,0.0,0.0,0.0,0.0,0.0,0.0,0.0,0.0,0.0,0.0,0.0,0.0,0.0,0.0,0.0,0.0,0.0,0.0,0.0,0.0,0.0,0.0,0.0,0.0,0.0,0.0,0.0,0.0,0.0,0.0,0.0,0.0,0.0,0.0,0.0,0.0,0.0,0.0,0.0,0.0,0.0,0.0,0.0,0.0,0.0,0.0,0.0,0.0,0.0,0.0,0.0,0.0,0.0,0.0,0.0,0.0,0.0,0.0,0.0,0.0,0.0,0.0,0.0,0.0,0.0,0.0,0.0,-1.6284,-1.6698,-1.7224,-1.7174,-1.6557,-1.7292,-1.7232,0.0,0.0,0.0,0.0,0.0,0.0,0.0,0.0,0.0,0.0,0.0,0.0,0.0,0.0,0.0,0.0,0.0,0.0,0.0,0.0,0.0,0.0,0.0,0.0,0.0,0.0,0.0,0.0,0.0,0.0,0.0,0.0,0.0,0.0,0.0,0.0,0.0,0.0,0.0,0.0,0.0,0.0,0.0,0.0,0.0,0.0,0.0,0.0,0.0,0.0,0.0,0.0,0.0,0.0,0.0,0.0,0.0,0.0,0.0,0.0,0.0,0.0,0.0,0.0,0.0,0.0,0.0,0.0,0.0,0.0,0.0,0.0,0.0,0.0,0.0,0.0,0.0,0.0,0.0,0.0,0.0,0.0,0.0,0.0,0.0,0.0,0.0,0.0,0.0,0.0,0.0,0.0,0.0,0.0,0.0,0.0,0.0,0.0,0.0,0.0,0.0,0.0,0.0,0.0,0.0,0.0,0.0,0.0,-1.5579,-1.6095,-1.6509,-1.6652,-1.6521,-1.653,-1.6168,0.0,0.0,0.0,0.0,0.0,0.0,0.0,0.0,0.0,0.0,0.0,0.0,0.0,0.0,0.0,0.0,0.0,0.0,0.0,0.0,0.0,0.0,0.0,0.0,0.0,0.0,0.0,0.0,0.0,0.0,0.0,0.0,0.0,0.0,0.0,0.0,0.0,0.0,0.0,0.0,0.0,0.0,0.0,0.0,0.0,0.0,0.0,0.0,-1.4992,0.0,0.0,0.0,0.0,0.0,0.0,0.0,0.0,0.0,0.0,0.0,0.0,0.0,0.0,0.0,0.0,0.0,0.0,0.0,0.0,0.0,0.0,0.0,0.0,0.0,0.0,0.0,0.0,0.0,0.0,0.0,0.0,0.0,0.0,0.0,0.0,0.0,0.0,0.0,0.0,0.0,0.0,0.0,0.0,0.0,0.0,0.0,0.0,0.0,0.0,0.0,0.0,0.0,0.0,0.0,0.0,0.0,0.0,0.0,-1.4965,-1.5639,-1.5885,-1.5979,-1.5948,-1.5475,-1.5174,0.0,0.0,0.0,0.0,0.0,0.0,0.0,0.0,0.0,0.0,0.0,0.0,0.0,0.0,0.0,0.0,0.0,0.0,0.0,0.0,0.0,0.0,0.0,0.0,0.0,0.0,0.0,0.0,0.0,0.0,0.0,0.0,0.0,0.0,0.0,0.0,0.0,0.0,0.0,0.0,0.0,0.0,0.0,0.0,0.0,0.0,0.0,0.0,0.0,0.0,0.0,0.0,0.0,0.0,0.0,0.0,0.0,0.0,0.0,0.0,0.0,0.0,0.0,0.0,0.0,0.0,0.0,0.0,0.0,0.0,0.0,0.0,0.0,0.0,0.0,0.0,0.0,0.0,0.0,0.0,0.0,0.0,0.0,0.0,0.0,0.0,0.0,0.0,0.0,0.0,0.0,0.0,0.0,0.0,0.0,0.0,0.0,0.0,0.0,0.0,0.0,0.0,0.0,0.0,0.0,0.0,0.0,-1.4427,-1.4523,-1.5371,-1.542,-1.542,-1.5391,-1.4562,-1.438,-1.4924,0.0,0.0,0.0,0.0,0.0,0.0,0.0,0.0,0.0,0.0,0.0,0.0,0.0,0.0,0.0,0.0,0.0,0.0,0.0,0.0,0.0,0.0,0.0,0.0,0.0,0.0,0.0,0.0,0.0,0.0,0.0,0.0,0.0,0.0,0.0,0.0,0.0,0.0,-1.3081,-1.3773,0.0,0.0,0.0,0.0,0.0,0.0,0.0,0.0,-1.59,0.0,0.0,0.0,0.0,0.0,0.0,0.0,0.0,0.0,0.0,0.0,0.0,0.0,0.0,0.0,0.0,0.0,0.0,0.0,0.0,0.0,0.0,0.0,0.0,0.0,0.0,0.0,0.0,0.0,0.0,0.0,0.0,0.0,0.0,0.0,0.0,0.0,0.0,0.0,0.0,0.0,0.0,0.0,0.0,0.0,0.0,0.0,0.0,0.0,0.0,0.0,0.0,0.0,0.0,0.0,0.0,-1.4824,-1.4343,-1.4523,-1.5391,-1.542,-1.542,-1.5391,-1.4552,-1.4158,-1.4235,0.0,0.0,0.0,0.0,0.0,0.0,0.0,0.0,0.0,0.0,0.0,0.0,0.0,0.0,0.0,0.0,0.0,0.0,0.0,0.0,0.0,0.0,0.0,0.0,0.0,0.0,0.0,0.0,0.0,0.0,0.0,0.0,0.0,0.0,0.0,0.0,0.0,0.0,0.0,-1.463,-1.5215,0.0,0.0,0.0,0.0,0.0,0.0,0.0,0.0,-1.6486,0.0,0.0,0.0,0.0,0.0,0.0,0.0,0.0,0.0,0.0,0.0,0.0,0.0,0.0,0.0,0.0,0.0,0.0,0.0,0.0,0.0,0.0,0.0,0.0,0.0,0.0,0.0,0.0,0.0,0.0,0.0,0.0,0.0,0.0,0.0,0.0,0.0,0.0,0.0,0.0,0.0,0.0,0.0,0.0,0.0,0.0,0.0,0.0,0.0,0.0,0.0,0.0,0.0,0.0,0.0,-1.4404,-1.4463,-1.4775,-1.5391,-1.542,-1.5303,-1.5078,-1.4445,-1.4007,0.0,0.0,0.0,0.0,0.0,0.0,0.0,0.0,0.0,0.0,0.0,0.0,0.0,0.0,0.0,0.0,0.0,0.0,0.0,0.0,0.0,0.0,0.0,0.0,0.0,0.0,0.0,0.0,0.0,0.0,0.0,0.0,0.0,0.0,0.0,0.0,0.0,0.0,0.0,0.0,-1.5128,-1.5556,-1.6005,0.0,0.0,0.0,0.0,0.0,0.0,-1.6575,-1.6787,0.0,0.0,0.0,0.0,0.0,0.0,0.0,0.0,0.0,0.0,0.0,0.0,0.0,0.0,0.0,0.0,0.0,0.0,0.0,0.0,0.0,0.0,0.0,0.0,0.0,0.0,0.0,0.0,0.0,0.0,0.0,0.0,0.0,0.0,0.0,0.0,0.0,0.0,0.0,0.0,0.0,0.0,0.0,0.0,0.0,0.0,0.0,0.0,0.0,0.0,0.0,0.0,0.0,0.0,0.0,-1.4104,-1.4561,-1.499,-1.5362,-1.5322,-1.5127,-1.4785,-1.425,-1.3821,0.0,0.0,0.0,0.0,0.0,0.0,0.0,0.0,0.0,0.0,0.0,0.0,0.0,0.0,0.0,0.0,0.0,0.0,0.0,0.0,0.0,0.0,0.0,0.0,0.0,0.0,0.0,0.0,0.0,0.0,0.0,0.0,0.0,0.0,0.0,0.0,0.0,0.0,0.0,0.0,0.0,-1.5976,-1.6514,-1.6436,0.0,0.0,0.0,0.0,-1.6682,-1.6901,0.0,0.0,0.0,0.0,0.0,0.0,0.0,0.0,0.0,0.0,0.0,0.0,0.0,0.0,0.0,0.0,0.0,0.0,0.0,0.0,0.0,0.0,0.0,0.0,0.0,0.0,0.0,0.0,0.0,0.0,0.0,0.0,0.0,0.0,0.0,0.0,0.0,0.0,0.0,0.0,0.0,0.0,0.0,0.0,0.0,0.0,0.0,0.0,0.0,0.0,0.0,0.0,0.0,0.0,0.0,0.0,-1.4104,-1.457,-1.5019,-1.5371,-1.5059,-1.4834,-1.4775,-1.4004,-1.3555,0.0,0.0,0.0,0.0,0.0,0.0,0.0,0.0,0.0,0.0,0.0,0.0,0.0,0.0,0.0,0.0,0.0,0.0,0.0,0.0,0.0,0.0,0.0,0.0,0.0,0.0,0.0,0.0,0.0,0.0,0.0,0.0,0.0,0.0,0.0,0.0,0.0,0.0,0.0,0.0,0.0,-1.6936,-1.6261,-1.6789,-1.709,0.0,0.0,-1.584,-1.7116,-1.7615,0.0,0.0,0.0,0.0,0.0,0.0,0.0,0.0,0.0,0.0,0.0,0.0,0.0,0.0,0.0,0.0,0.0,0.0,0.0,0.0,0.0,0.0,0.0,0.0,0.0,0.0,0.0,0.0,0.0,0.0,0.0,0.0,0.0,0.0,0.0,0.0,0.0,0.0,0.0,0.0,0.0,0.0,0.0,0.0,0.0,0.0,0.0,0.0,0.0,0.0,0.0,0.0,0.0,0.0,0.0,-1.3929,-1.4114,-1.4777,-1.5225,-1.5391,-1.5,-1.4668,-1.4424,-1.3451,-1.3007,0.0,0.0,0.0,0.0,0.0,0.0,0.0,0.0,0.0,0.0,0.0,0.0,0.0,0.0,0.0,0.0,0.0,0.0,0.0,0.0,0.0,0.0,0.0,0.0,0.0,0.0,0.0,0.0,0.0,0.0,0.0,0.0,0.0,0.0,0.0,0.0,0.0,0.0,0.0,0.0,0.0,0.0,-1.7178,-1.75,0.0,0.0,0.0,-1.6506,-1.7575,0.0,0.0,0.0,0.0,0.0,0.0,0.0,0.0,0.0,0.0,0.0,0.0,0.0,0.0,0.0,0.0,0.0,0.0,0.0,0.0,0.0,0.0,0.0,0.0,0.0,0.0,0.0,0.0,0.0,0.0,0.0,0.0,0.0,0.0,0.0,0.0,0.0,0.0,0.0,0.0,0.0,0.0,0.0,0.0,0.0,0.0,0.0,0.0,0.0,0.0,0.0,0.0,0.0,0.0,0.0,0.0,0.0,-1.4124,-1.4952,-1.5352,-1.5254,-1.4844,-1.4342,-1.3719,-1.2822,0.0,0.0,0.0,0.0,0.0,0.0,0.0,0.0,0.0,0.0,0.0,0.0,0.0,0.0,0.0,0.0,0.0,0.0,0.0,0.0,0.0,0.0,0.0,0.0,0.0,0.0,0.0,-1.1318,0.0,0.0,0.0,0.0,0.0,0.0,0.0,0.0,0.0,0.0,0.0,0.0,0.0,0.0,-1.7812,-1.8125,-1.8164,-1.8213,0.0,0.0,-1.7546,-1.8061,-1.7678,-1.7311,0.0,0.0,0.0,0.0,0.0,0.0,0.0,0.0,0.0,0.0,0.0,0.0,0.0,0.0,0.0,0.0,0.0,0.0,0.0,0.0,0.0,0.0,0.0,0.0,0.0,0.0,0.0,0.0,0.0,0.0,0.0,0.0,0.0,0.0,0.0,0.0,0.0,0.0,0.0,0.0,0.0,0.0,0.0,0.0,0.0,0.0,0.0,0.0,0.0,0.0,0.0,0.0,0.0,0.0,-1.374,-1.4124,-1.4952,-1.5225,-1.4834,-1.4377,-1.3647,-1.263,-1.2135,-1.185,0.0,0.0,0.0,0.0,0.0,0.0,0.0,0.0,0.0,0.0,0.0,0.0,0.0,0.0,0.0,0.0,0.0,0.0,0.0,0.0,0.0,0.0,0.0,0.0,0.0,0.0,0.0,0.0,0.0,0.0,0.0,0.0,0.0,0.0,0.0,0.0,0.0,0.0,0.0,0.0,0.0,-1.8529,-1.8549,-1.8559,-1.8705,0.0,-1.9164,-1.8994,-1.8635,-1.6797,-1.5866,-1.7172,0.0,0.0,0.0,0.0,0.0,0.0,0.0,0.0,0.0,0.0,0.0,0.0,0.0,0.0,0.0,0.0,0.0,0.0,0.0,0.0,0.0,0.0,0.0,0.0,0.0,0.0,0.0,0.0,0.0,0.0,0.0,0.0,0.0,0.0,0.0,0.0,0.0,0.0,0.0,0.0,0.0,0.0,0.0,0.0,0.0,0.0,0.0,0.0,0.0,0.0,0.0,0.0,0.0,-1.3695,-1.4104,-1.4952,-1.5205,-1.4785,-1.3937,-1.3173,-1.2516,-1.1251,-1.0771,0.0,0.0,0.0,0.0,0.0,0.0,0.0,0.0,0.0,0.0,0.0,0.0,0.0,0.0,0.0,0.0,0.0,0.0,0.0,0.0,0.0,0.0,0.0,0.0,0.0,0.0,0.0,0.0,-1.0341,-1.0297,-1.0202,0.0,0.0,0.0,0.0,0.0,0.0,0.0,0.0,0.0,0.0,-1.7964,-1.8886,-1.869,0.0,0.0,-1.9466,-1.9231,-1.9059,-1.7856,-1.6828,-1.6516,-1.6018,0.0,0.0,0.0,0.0,0.0,0.0,0.0,0.0,0.0,0.0,0.0,0.0,0.0,0.0,0.0,0.0,0.0,0.0,0.0,0.0,0.0,0.0,0.0,0.0,0.0,0.0,0.0,0.0,0.0,0.0,0.0,0.0,0.0,0.0,0.0,0.0,0.0,0.0,0.0,0.0,0.0,0.0,0.0,0.0,0.0,0.0,0.0,0.0,0.0,0.0,0.0,0.0,-1.3685,-1.4114,-1.4715,-1.4907,-1.46,-1.3588,-1.2699,-1.1999,-1.0782,-1.0244,0.0,0.0,0.0,0.0,0.0,0.0,0.0,0.0,0.0,0.0,0.0,0.0,0.0,0.0,0.0,0.0,0.0,0.0,0.0,0.0,0.0,0.0,0.0,0.0,0.0,0.0,0.0,0.0,-0.9607,-0.9595,-0.9795,0.0,0.0,0.0,0.0,0.0,0.0,0.0,0.0,0.0,0.0,-1.7342,-1.8535,-1.8454,-1.8638,-1.9497,-1.9443,-1.9216,-1.9028,-1.8229,-1.727,-1.6105,0.0,0.0,0.0,0.0,0.0,0.0,0.0,0.0,0.0,0.0,0.0,0.0,0.0,0.0,0.0,0.0,0.0,0.0,0.0,0.0,0.0,0.0,0.0,0.0,0.0,0.0,0.0,-0.8854,0.0,0.0,-0.889,0.0,0.0,0.0,0.0,0.0,0.0,0.0,0.0,0.0,0.0,0.0,0.0,0.0,0.0,0.0,0.0,0.0,0.0,0.0,0.0,0.0,0.0,-1.3685,-1.4087,-1.4163,-1.419,-1.4072,-1.3313,-1.2218,-1.0896,-1.0796,-1.0466,-0.9832,0.0,0.0,0.0,0.0,0.0,0.0,0.0,0.0,0.0,0.0,0.0,0.0,0.0,0.0,0.0,0.0,0.0,0.0,0.0,0.0,0.0,0.0,0.0,0.0,0.0,0.0,-0.9788,-0.9211,-0.9087,0.0,0.0,0.0,0.0,0.0,0.0,0.0,0.0,0.0,-1.5983,-1.6448,-1.6849,-1.7332,-1.7891,-1.8416,-1.8942,-1.9203,-1.9075,-1.8432,-1.7523,-1.6696,0.0,0.0,0.0,0.0,0.0,0.0,0.0,0.0,0.0,0.0,0.0,0.0,0.0,0.0,0.0,0.0,0.0,0.0,0.0,0.0,0.0,0.0,0.0,0.0,0.0,0.0,0.0,-0.9932,-0.901,0.0,0.0,0.0,0.0,0.0,0.0,0.0,0.0,0.0,0.0,0.0,-1.1976,-1.1823,0.0,0.0,0.0,0.0,0.0,0.0,0.0,0.0,0.0,0.0,0.0,0.0,-1.2908,-1.3295,-1.3372,-1.3146,-1.2648,-1.193,-1.1102,-1.0164,-0.9684,-0.9294,-0.8885,0.0,0.0,0.0,0.0,0.0,0.0,0.0,0.0,0.0,0.0,0.0,0.0,0.0,0.0,0.0,0.0,0.0,0.0,0.0,0.0,0.0,0.0,0.0,0.0,0.0,-0.964,0.0,0.0,0.0,0.0,0.0,0.0,0.0,0.0,0.0,0.0,-1.4513,-1.4944,-1.6299,-1.6,-1.6132,-1.745,-1.7177,-1.7226,0.0,0.0,0.0,0.0,0.0,0.0,0.0,0.0,0.0,0.0,0.0,0.0,0.0,0.0,-1.4405,-1.3125,-1.3442,-1.3699,-1.3087,0.0,0.0,0.0,0.0,0.0,0.0,0.0,0.0,0.0,0.0,0.0,0.0,0.0,0.0,-0.9751,-0.8945,-0.8588,0.0,0.0,0.0,0.0,0.0,0.0,0.0,0.0,-1.1326,-1.1636,-1.2054,-1.1877,-1.2246,0.0,-1.3243,-1.2884,0.0,0.0,0.0,0.0,0.0,0.0,0.0,0.0,-1.2313,-1.2538,-1.257,-1.2365,-1.1917,-1.1205,-1.0499,-0.9821,-0.9159,-0.8717,-0.853,-0.8772,-0.8825,0.0,0.0,0.0,0.0,0.0,0.0,0.0,0.0,0.0,0.0,0.0,0.0,0.0,0.0,0.0,0.0,0.0,0.0,0.0,0.0,0.0,0.0,0.0,-0.9325,0.0,0.0,0.0,0.0,0.0,0.0,0.0,0.0,0.0,-1.4311,-1.4153,-1.4521,-1.5901,-1.5334,-1.5272,-1.6629,0.0,0.0,0.0,0.0,0.0,0.0,0.0,-1.4859,-1.5241,-1.5483,-1.5442,-1.4898,-1.5224,-1.5518,-1.5411,0.0,0.0,-1.4286,-1.4328,-1.451,-1.4412,-1.4459,-1.4543,-1.4543,-1.477,-1.489,0.0,0.0,0.0,0.0,0.0,0.0,0.0,0.0,-0.9306,-0.9213,0.0,-0.8693,0.0,0.0,0.0,0.0,-0.9598,-1.0646,0.0,0.0,-1.1258,-1.1756,-1.1805,-1.1765,-1.2357,-1.3431,-1.3802,-1.3595,-1.2807,-1.212,0.0,0.0,0.0,0.0,0.0,0.0,-1.1855,-1.188,-1.1796,-1.1775,-1.1805,-1.1073,-1.0354,-0.9784,-0.9138,-0.8778,-0.8804,-0.9399,-0.957,-0.9224,-0.9776,0.0,0.0,0.0,0.0,0.0,0.0,0.0,0.0,0.0,0.0,0.0,0.0,0.0,0.0,0.0,0.0,0.0,0.0,0.0,0.0,-0.8818,0.0,0.0,0.0,0.0,0.0,0.0,0.0,0.0,0.0,-1.3906,-1.34,-1.352,-1.3959,-1.4881,0.0,0.0,0.0,0.0,-1.621,-1.6543,-1.7458,-1.7771,-1.6756,-1.6111,-1.5635,-1.51,0.0,0.0,-1.5458,-1.5638,-1.5684,-1.5464,-1.5645,-1.5825,-1.5785,-1.5511,-1.5463,-1.5681,-1.5522,-1.5404,-1.5424,-1.5551,-1.5685,-0.9834,0.0,0.0,0.0,0.0,-0.9919,-0.963,-0.9505,-0.963,-0.9261,-0.8483,-0.849,0.0,0.0,0.0,0.0,0.0,0.0,-1.0347,-1.059,-1.0468,-1.0864,-1.1789,-1.1316,-1.1634,-1.2629,-1.2756,-1.2544,-1.2048,-1.1348,-1.1277,-1.1748,0.0,0.0,0.0,0.0,-1.1334,-1.1306,-1.1081,-1.0835,-1.0608,-1.0197,-0.9694,-0.9106,-0.8903,-0.8778,-0.8778,-0.8982,-0.9046,-0.8937,-0.9078,0.0,0.0,0.0,0.0,0.0,0.0,0.0,0.0,0.0,0.0,0.0,0.0,0.0,0.0,0.0,0.0,0.0,0.0,0.0,-0.9064,-0.9091,-0.9377,0.0,0.0,0.0,0.0,0.0,0.0,0.0,0.0,0.0,-1.4289,-1.4435,-1.4683,0.0,0.0,-1.4843,-1.5217,-1.5456,-1.5686,-1.5982,-1.6302,0.0,-1.607,-1.5913,-1.5741,-1.5604,-1.5678,-1.5751,-1.5725,-1.5778,-1.5751,-1.5712,-1.5724,-1.5825,-1.5825,-1.5765,-1.5712,-1.5759,-1.5712,-1.5705,-1.5712,-1.5731,-1.5758,-0.9099,-0.9559,-0.9458,-0.964,-0.9961,-0.9562,-0.9413,-0.9413,-0.9413,-0.908,-0.8576,-0.855,-0.8614,-0.8739,-0.8852,0.0,0.0,0.0,-1.0162,-1.0158,-1.0061,-1.0595,-1.1583,-1.0958,-1.139,-1.2761,-1.249,-1.2125,-1.1745,-1.1346,-1.1039,-1.0816,0.0,-1.0969,-1.106,-1.0821,-1.0696,-1.0703,-1.065,-1.0441,-1.0095,-0.9721,-0.9344,-0.8971,-0.8871,-0.8778,-0.8778,-0.8778,-0.8778,-0.8778,-0.8778,-0.8795,0.0,0.0,0.0,0.0,0.0,0.0,0.0,0.0,0.0,0.0,0.0,-0.9138,-0.8971,0.0,0.0,0.0,-0.9085,-0.9319,-0.9726,-0.9866,0.0,0.0,0.0,0.0,0.0,0.0,0.0,-1.2933,-1.435,-1.5278,-1.5167,-1.5237,-1.5304,-1.5311,-1.5156,-1.5156,-1.5511,0.0,-1.5498,-1.5738,-1.5825,-1.5825,-1.5825,-1.5792,-1.5799,-1.5798,-1.5825,-1.5825,-1.5825,-1.5825,-1.5825,-1.5825,-1.5825,-1.5825,-1.5825,-1.5825,-1.5825,-1.5825,-1.5825,-1.5825,-1.5825,-1.5825,-1.5825,-0.8242,-0.767,-0.8348,-0.8646,-0.8699,-0.8725,-0.8745,-0.8778,-0.8804,-0.8778,-0.8778,-0.8778,-0.8818,-0.8858,-0.9118,0.0,-0.9285,-1.0186,-1.013,-0.9279,-0.9949,-1.0663,-1.1372,-1.067,-1.141,-1.3375,-1.2655,-1.2099,-1.1716,-1.1676,-1.1169,-1.0177,-0.9886,-1.0082,-1.0595,-1.0322,-1.0123,-1.013,-1.0459,-1.0433,-1.0084,-0.9574,-0.9246,-0.9217,-0.8958,-0.8831,-0.8778,-0.8778,-0.8778,-0.8778,-0.8778,-0.8802,-0.8799,0.0,0.0,0.0,0.0,0.0,0.0,0.0,0.0,0.0,0.0,0.0,0.0,0.0,0.0,0.0,-0.9599,0.0,-1.0606,-1.0921,0.0,0.0,0.0,-1.2338,-1.3253,-1.3473,-1.3519,-1.3349,0.0,0.0,-1.5795,-1.5826,-1.5825,-1.5825,-1.5364,-1.5224,-1.5704,-1.5605,-1.5524,-1.5744,-1.5825,-1.5825,-1.5825,-1.5818,-1.5812,-1.5825,-1.5825,-1.5825,-1.5825,-1.5825,-1.5825,-1.5825,-1.5825,-1.5825,-1.5825,-1.5825,-1.5825,-1.5825,-1.5825,-1.5825,-1.5825,-1.5825,-1.5825,-0.702,-0.6885,-0.7047,-0.7423,-0.7969,-0.7963,-0.8262,-0.8778,-0.8778,-0.8778,-0.8778,-0.8778,-0.8898,-0.9124,-0.9446,-0.9579,-0.9615,-0.9848,-0.9812,-0.9608,-0.9773,-1.0215,-1.0862,-1.0709,-1.098,-1.1655,-1.15,-1.1238,-1.0898,-1.0884,-1.0735,-1.0486,-1.0419,-1.0333,-1.0267,-1.04,-1.0486,-1.0486,-1.0559,-1.0448,-1.0122,-0.9967,-0.9675,-0.919,-0.9144,-0.9004,-0.8818,-0.8778,-0.8778,-0.8778,-0.8778,-0.8778,-0.8796,-0.8548,0.0,0.0,0.0,0.0,0.0,0.0,0.0,0.0,0.0,-0.969,-0.9216,0.0,-0.9877,0.0,-1.0374,-1.0828,-1.1189,-1.149,0.0,0.0,-1.3026,-1.3327,-1.4416,-1.4459,-1.4442,-1.4559,-1.5311,-1.5797,-1.5806,-1.5792,-1.5825,-1.5778,-1.5664,-1.5678,-1.5764,-1.5778,-1.5704,-1.5812,-1.5825,-1.5825,-1.5825,-1.5825,-1.5825,-1.5825,-1.5825,-1.5825,-1.5825,-1.5825,-1.5825,-1.5825,-1.5825,-1.5825,-1.5825,-1.5825,-1.5825,-1.5825,-1.5825,-1.5825,-1.5825,-1.5825,-1.5825,-0.6426,-0.6127,-0.6193,-0.6422,-0.6767,-0.7417,-0.7937,-0.8315,-0.8321,-0.8315,-0.8301,-0.8448,-0.8856,-0.9424,-0.974,-0.9873,-0.9886,-1.0043,-1.0007,-0.988,-0.9873,-1.0265,-1.0952,-1.0617,-1.0775,-1.1397,-1.1047,-1.0784,-1.0618,-1.0586,-1.0586,-1.0586,-1.0586,-1.0512,-1.0358,-1.0506,-1.0586,-1.0586,-1.0586,-1.0512,-1.0314,-1.0171,-0.9883,-0.9452,-0.9411,-0.9211,-0.8798,-0.8911,-0.8911,-0.8818,-0.8778,-0.8864,-0.9052,-0.8878,-0.8838,0.0,0.0,0.0,0.0,0.0,0.0,0.0,0.0,0.0,0.0,0.0,-1.0421,-1.0649,-1.1229,-1.175,-1.2178,-1.2605,-1.3173,-1.3906,-1.4008,-1.4302,-1.5115,-1.5062,-1.5084,-1.5325,-1.5645,-1.5812,-1.5812,-1.5825,-1.5825,-1.5825,-1.5825,-1.5825,-1.5825,-1.5825,-1.5825,-1.5825,-1.5825,-1.5825,-1.5825,-1.5825,-1.5825,-1.5825,-1.5825,-1.5825,-1.5825,-1.5825,-1.5825,-1.5825,-1.5825,-1.5825,-1.5825,-1.5825,-1.5825,-1.5825,-1.5825,-1.5825,-1.5825,-1.5825,-1.5825,-0.5869,-0.5395,-0.5555,-0.553,-0.5483,-0.6848,-0.7477,-0.7563,-0.7678,-0.7761,-0.7808,-0.8149,-0.8829,-0.9753,-1.004,-1.0174,-1.0194,-1.0472,-1.0452,-1.018,-1.0174,-1.0555,-1.1159,-1.0488,-1.0694,-1.1586,-1.0919,-1.0586,-1.0586,-1.0586,-1.0586,-1.0593,-1.0626,-1.0633,-1.0593,-1.0626,-1.0626,-1.0593,-1.0586,-1.0586,-1.0586,-1.0338,-1.004,-0.9753,-0.9706,-0.9426,-0.8871,-0.9084,-0.9098,-0.8858,-0.8898,-0.9092,-0.941,-0.9333,-0.9305,0.0,-0.9333,0.0,0.0,0.0,0.0,0.0,0.0,0.0,0.0,-1.0807,-1.1082,-1.1522,-1.2124,-1.2705,-1.3267,-1.3821,-1.4275,-1.4603,-1.4863,-1.5182,-1.5411,-1.5451,-1.5545,-1.5751,-1.5825,-1.5825,-1.5825,-1.5825,-1.5825,-1.5825,-1.5825,-1.5825,-1.5825,-1.5825,-1.5825,-1.5825,-1.5825,-1.5825,-1.5825,-1.5825,-1.5825,-1.5825,-1.5825,-1.5825,-1.5825,-1.5825,-1.5825,-1.5825,-1.5825,-1.5825,-1.5825,-1.5825,-1.5825,-1.5825,-1.5825,-1.5825,-1.5825,-1.5825,-1.5825,-0.4226,-0.4684,-0.4712,-0.4733,-0.4759,-0.5574,-0.6253,-0.6869,-0.7544,-0.8022,-0.8288,-0.8569,-0.918,-1.0023,-1.0341,-1.0506,-1.0512,-1.0566,-1.0559,-1.0506,-1.0506,-1.0568,-1.0718,-1.0568,-1.0627,-1.08,-1.0688,-1.0586,-1.0586,-1.0586,-1.0586,-1.0631,-1.0827,-1.0827,-1.062,0.0,0.0,0.0,-1.0586,-1.0586,-1.0586,-1.0539,-1.0334,-1.004,-0.9806,0.0,-0.9151,-0.9184,-0.9184,-0.9144,-0.9392,0.0,0.0,0.0,0.0,0.0,0.0,0.0,0.0,0.0,0.0,0.0,-1.0074,-1.0017,-1.1141,-1.1953,-1.2415,-1.2543,-1.3039,-1.3493,-1.3888,-1.4229,-1.4649,-1.5164,-1.5277,-1.5424,-1.5705,-1.5745,-1.5731,-1.5818,-1.5825,-1.5825,-1.5825,-1.5825,-1.5825,-1.5825,-1.5825,-1.5825,-1.5825,-1.5825,-1.5825,-1.5825,-1.5825,-1.5825,-1.5825,-1.5825,-1.5825,-1.5825,-1.5825,-1.5825,-1.5825,-1.5825,-1.5825,-1.5825,-1.5825,-1.5825,-1.5825,-1.5825,-1.5825,-1.5825,-1.5825,-1.5825,-1.5825,-1.5825,-1.5825,-0.3196,-0.391,-0.4032,-0.4219,0.0,-0.5314,-0.5658,-0.5698,-0.652,-0.7288,-0.8061,-0.8187,-0.9026,-1.0341,-1.0526,-1.0586,-1.0586,-1.0586,-1.0586,-1.0586,-1.0586,-1.0586,-1.0586,-1.0586,-1.0586,-1.0586,-1.0586,-1.0586,-1.0586,-1.0586,-1.0586,-1.0586,-1.074,-1.0814,-1.0807,-1.0915,-1.0881,-1.0593,-1.0586,-1.0586,-1.0586,-1.0586,-1.0452,-1.0134,-1.012,0.0,0.0,0.0,0.0,0.0,0.0,0.0,0.0,0.0,0.0,-1.0307,-0.988,-0.9718,-0.9967,-1.0004,-1.0211,-1.0657,-1.0551,-1.0646,-1.1108,-1.1884,-1.2612,-1.316,-1.3601,-1.3981,-1.4275,-1.4569,-1.491,-1.5344,-1.5524,-1.5671,-1.5798,-1.5825,-1.5825,-1.5825,-1.5825,-1.5825,-1.5825,-1.5825,-1.5825,-1.5825,-1.5825,-1.5825,-1.5825,-1.5825,-1.5825,-1.5825,-1.5825,-1.5825,-1.5825,-1.5825,-1.5825,-1.5825,-1.5825,-1.5825,-1.5825,-1.5825,-1.5825,-1.5825,-1.5825,-1.5825,-1.5825,-1.5825,-1.5825,-1.5825,-1.5825,-1.5825,-1.5825,-1.5825,-1.5825,-0.2443,-0.3128,-0.3476,-0.3897,-0.4407,-0.5276,-0.5294,-0.4798,-0.5405,0.0,0.0,-0.7674,-0.8737,-1.0364,-1.053,-1.0586,-1.0586,-1.0586,-1.0586,-1.0586,-1.0586,-1.0586,-1.0586,-1.0586,-1.0586,-1.0586,-1.0586,-1.0586,-1.0586,-1.0586,-1.0586,-1.0593,-1.0646,-1.0788,-1.1049,-1.1069,-1.0988,-1.0754,-1.0646,-1.0586,-1.0586,-1.0586,-1.0472,-1.02,-1.025,-1.0124,-0.9786,-0.9883,-0.9936,-0.9853,-0.9916,-1.0047,-1.0321,-1.027,-1.042,-1.0711,-1.0044,-0.9604,-0.9712,-0.9694,-0.9789,-0.9972,-1.0545,-1.0846,-1.0663,-1.1456,-1.2355,-1.3296,-1.3646,-1.4018,-1.4526,-1.4634,-1.4917,-1.5398,-1.5691,-1.5825,-1.5825,-1.5825,-1.5825,-1.5825,-1.5825,-1.5825,-1.5825,-1.5825,-1.5825,-1.5825,-1.5825,-1.5825,-1.5825,-1.5825,-1.5825,-1.5825,-1.5825,-1.5825,-1.5825,-1.5825,-1.5825,-1.5825,-1.5825,-1.5825,-1.5825,-1.5825,-1.5825,-1.5825,-1.5825,-1.5825,-1.5825,-1.5825,-1.5825,-1.5825,-1.5825,-1.5825,-1.5825,-1.5825,-1.5825,-0.1676,-0.2427,-0.3257,-0.3653,-0.3791,-0.4659,-0.5047,-0.5032,-0.5161,-0.5823,-0.6872,-0.7653,-0.8511,-0.953,-1.0269,-1.0586,-1.0586,-1.0586,-1.0586,-1.0586,-1.0586,-1.0586,-1.0586,-1.0586,-1.0586,-1.0586,-1.0586,-1.0586,-1.0586,-1.0593,-1.0586,-1.0626,-1.0808,-1.1082,-1.1343,-1.1329,-1.1309,-1.1255,-1.0841,-1.0586,-1.0586,-1.0586,-1.0573,-1.0494,-0.9556,-0.9389,-1.0,-0.965,-0.9743,-1.0448,-1.0675,-1.0942,-1.1176,-1.0956,-1.0612,-1.0109,-0.9926,-0.9583,-0.8985,-0.8964,-0.8783,-0.8403,-0.8551,-0.9101,-1.0223,-1.1495,-1.2317,-1.2499,-1.2683,-1.341,-1.464,-1.4116,-1.4139,-1.5463,-1.5751,-1.5825,-1.5784,-1.5825,-1.5825,-1.5825,-1.5825,-1.5825,-1.5825,-1.5825,-1.5825,-1.5825,-1.5825,-1.5825,-1.5825,-1.5825,-1.5825,-1.5825,-1.5825,-1.5825,-1.5825,-1.5825,-1.5825,-1.5825,-1.5825,-1.5825,-1.5825,-1.5825,-1.5825,-1.5825,-1.5825,-1.5825,-1.5825,-1.5825,-1.5825,-1.5825,-1.5825,-1.5825,-1.5825,-1.5838,-1.5845,-0.0937,-0.1692,-0.2613,-0.3223,-0.3658,-0.4594,-0.507,-0.5103,-0.522,-0.5806,-0.6743,-0.7637,-0.8484,-0.9332,-1.0206,-1.0586,-1.0586,-1.011,-1.0142,-1.053,-1.011,-1.0142,-1.0561,-1.0586,-1.0586,-1.0586,-1.0586,-1.0673,-1.0821,-1.0827,-1.0908,-1.1042,-1.1323,-1.1571,-1.1657,-1.167,-1.1663,-1.165,-1.1122,-1.0901,-1.1022,-1.0908,-1.0594,-1.0139,-0.9637,-0.9257,-0.9077,-0.8904,-0.8996,-0.9399,-0.9508,-0.9896,-1.0532,-0.9971,-0.9748,-1.0096,-0.9112,-0.842,-0.8263,-0.8339,-0.8294,-0.8135,-0.8255,-0.835,-0.8484,-0.9693,-1.0697,-1.13,-1.1515,-1.1981,-1.2865,-1.2638,-1.3019,-1.4626,-1.4806,-1.5045,-1.5683,-1.5825,-1.5825,-1.5825,-1.5825,-1.5825,-1.5825,-1.5825,-1.5825,-1.5825,-1.5825,-1.5825,-1.5825,-1.5825,-1.5825,-1.5825,-1.5825,-1.5825,-1.5825,-1.5825,-1.5825,-1.5825,-1.5825,-1.5825,-1.5825,-1.5825,-1.5825,-1.5825,-1.5825,-1.5825,-1.5825,-1.5825,-1.5825,-1.5825,-1.5825,-1.5825,-1.5838,-1.5945,-1.6066,-0.0321,-0.0943,-0.185,-0.2789,-0.3765,-0.4747,-0.5182,-0.5196,-0.5344,-0.5782,-0.6461,-0.7307,-0.8091,-0.878,-0.9811,-1.0206,-0.9977,-0.953,-0.9562,-0.9907,-0.9332,-0.9396,-0.9939,-1.0002,-1.004,-1.0059,-1.0065,-1.0178,-1.0411,-1.0403,-1.051,-1.0729,-1.1035,-1.1209,-1.1203,-1.1272,-1.131,-1.1278,-1.0783,-1.081,-1.1375,-1.1202,-1.0683,-0.9817,-0.9633,-0.9162,-0.8323,-0.8224,-0.83,-0.8472,-0.8472,-0.8887,-0.9654,-0.8963,-0.8898,-0.9577,-0.8328,-0.7447,-0.7521,-0.7615,-0.7749,-0.7883,-0.8026,-0.7795,-0.7291,-0.7925,-0.8969,-1.0033,-1.0381,-1.0694,-1.1278,-1.1202,-1.1796,-1.3225,-1.3728,-1.431,-1.5194,-1.5384,-1.5534,-1.5683,-1.5581,-1.5439,-1.573,-1.5825,-1.5825,-1.5825,-1.5825,-1.5825,-1.5825,-1.5825,-1.5825,-1.5825,-1.5825,-1.5825,-1.5825,-1.5825,-1.5825,-1.5825,-1.5825,-1.5825,-1.5825,-1.5825,-1.5825,-1.5825,-1.5825,-1.5825,-1.5825,-1.5825,-1.5825,-1.5825,-1.5825,-1.5852,-1.5952,-1.6099,-1.6253,0.0,-0.0234,-0.1096,-0.2391,-0.401,-0.4992,-0.5365,-0.5368,-0.5388,-0.5428,-0.5653,-0.6433,-0.6883,-0.7177,-0.8678,-0.9005,-0.8415,-0.8973,-0.8909,-0.835,-0.8156,-0.8156,-0.8333,-0.8291,-0.8298,-0.8479,-0.85,-0.8683,-0.8817,-0.8763,-0.8704,-0.8704,-0.8939,-0.9166,-0.915,-0.9452,-0.96,-0.9524,-0.9196,-0.9794,-1.1299,-1.1369,-1.0891,-0.9915,-0.9104,-0.8614,-0.8273,-0.7866,-0.7938,-0.8694,-0.8731,-0.8898,-0.925,-0.8955,-0.854,-0.8107,-0.7863,-0.7451,-0.6748,-0.6621,-0.6804,-0.6992,-0.7086,-0.7123,-0.7082,-0.7228,-0.7753,-0.8813,-0.9302,-0.9905,-1.1027,-1.0557,-1.064,-1.193,-1.3006,-1.3974,-1.4022,-1.407,-1.4507,-1.5683,-1.4752,-1.4465,-1.5439,-1.573,-1.5825,-1.5825,-1.5825,-1.5825,-1.5825,-1.5825,-1.5825,-1.5825,-1.5825,-1.5825,-1.5825,-1.5825,-1.5825,-1.5825,-1.5825,-1.5825,-1.5825,-1.5825,-1.5825,-1.5825,-1.5825,-1.5825,-1.5825,-1.5825,-1.5825,-1.5838,-1.5858,-1.5864,-1.6139,-1.6342,-1.6388,0.0,0.0,-0.0939,-0.2342,-0.4015,-0.4994,-0.5395,-0.5395,-0.5395,-0.5395,-0.5425,-0.5782,-0.6203,-0.6748,-0.7994,-0.8318,-0.8027,-0.7832,-0.7892,-0.7929,-0.747,-0.7536,-0.8082,-0.8131,-0.8174,-0.83,-0.831,-0.8423,-0.8652,-0.8838,-0.8945,-0.8955,-0.904,-0.9075,-0.9122,-0.9251,-0.9296,-0.9296,-0.9163,-0.9443,-1.0042,-0.9962,-0.9419,-0.8574,-0.8253,-0.7749,-0.7049,-0.6821,-0.6954,-0.7287,-0.732,-0.766,-0.8385,-0.7744,-0.7471,-0.7736,-0.7249,-0.6783,-0.6504,-0.6556,-0.6698,-0.6876,-0.6964,-0.7038,-0.7088,-0.7095,-0.7391,-0.7867,-0.8107,-0.8469,-0.9015,-0.8914,-0.9365,-1.0529,-1.1307,-1.1891,-1.2668,-1.2716,-1.2963,-1.3445,-1.3734,-1.407,-1.4657,-1.5343,-1.573,-1.5825,-1.5825,-1.5825,-1.5825,-1.5825,-1.5825,-1.5825,-1.5825,-1.5825,-1.5825,-1.5825,-1.5825,-1.5825,-1.5825,-1.5825,-1.5825,-1.5825,-1.5825,-1.5825,-1.5825,-1.5825,-1.5825,-1.5825,-1.5825,-1.5865,-1.6019,-1.6139,-1.6259,-1.6603,-1.679,0.0,0.0,-0.1208,-0.2442,-0.3713,-0.4921,-0.5395,-0.5395,-0.5395,-0.5395,-0.5395,-0.5395,-0.5716,-0.6433,-0.7265,-0.7521,-0.7251,-0.6883,-0.6883,-0.7214,-0.6625,-0.6759,-0.7444,-0.7487,-0.758,-0.7717,-0.7673,-0.7848,-0.8111,-0.8341,-0.8466,-0.8466,-0.8466,-0.8461,-0.8504,-0.8466,-0.8466,-0.8461,-0.8504,-0.8466,-0.8438,-0.8234,-0.7934,-0.7621,-0.7706,-0.7267,-0.6139,-0.62,-0.63,-0.6296,-0.63,-0.6606,-0.7288,-0.6679,-0.6641,-0.7257,-0.6761,-0.6422,-0.6525,-0.6675,-0.6785,-0.693,-0.7041,-0.7095,-0.7102,-0.7088,-0.7206,-0.7405,-0.7496,-0.7662,-0.7682,-0.784,-0.8471,-0.9361,-0.9702,-1.0435,-1.1263,-1.1361,-1.1556,-1.1901,-1.2764,-1.3734,-1.4364,-1.5242,-1.5825,-1.5825,-1.5825,-1.5825,-1.5825,-1.5825,-1.5825,-1.5825,-1.5825,-1.5825,-1.5825,-1.5825,-1.5825,-1.5825,-1.5825,-1.5825,-1.5825,-1.5825,-1.5825,-1.5825,-1.5825,-1.5825,-1.5825,-1.5825,-1.5899,-1.5992,-1.6131,-1.637,-1.6623,-1.6958,-1.7172,0.0,0.0,-0.1877,-0.2644,-0.2913,-0.4622,-0.5395,-0.5395,-0.5395,-0.5395,-0.5395,-0.5395,-0.5428,-0.5561,-0.6411,-0.6312,-0.5756,-0.6334,-0.6272,-0.5723,-0.5564,-0.5578,-0.569,-0.5696,-0.5919,-0.6333,-0.6351,-0.6392,-0.65,-0.6483,-0.6416,-0.649,-0.6606,-0.649,-0.6602,-0.6641,-0.649,-0.6641,-0.6641,-0.6528,-0.6528,-0.6479,-0.6923,-0.7604,-0.7774,-0.7242,-0.6395,-0.6293,-0.63,-0.63,-0.63,-0.6335,-0.6374,-0.6342,-0.6349,-0.6437,-0.6469,-0.6532,-0.6681,-0.6824,-0.6923,-0.7055,-0.7085,-0.7095,-0.7105,-0.7123,-0.7213,-0.7377,-0.7729,-0.7883,-0.7814,-0.7891,-0.8035,-0.8233,-0.9266,-0.9899,-1.0047,-1.0047,-1.0681,-1.1463,-1.2047,-1.3113,-1.5248,-1.573,-1.5778,-1.5825,-1.5825,-1.5825,-1.5825,-1.5825,-1.5825,-1.5825,-1.5825,-1.5825,-1.5825,-1.5825,-1.5825,-1.5825,-1.5825,-1.5825,-1.5825,-1.5825,-1.5825,-1.5825,-1.5825,-1.5825,-1.5825,-1.5892,-1.6005,-1.6124,-1.6219,-1.645,-1.6803,-1.7041,-1.719,0.0,0.0,-0.1308,-0.2142,-0.2811,-0.3982,-0.4824,-0.5395,-0.5395,-0.5395,-0.5395,-0.5395,-0.5395,-0.5395,-0.5737,-0.5701,-0.5428,-0.5752,-0.5686,-0.5409,-0.5494,-0.5586,-0.5725,-0.582,-0.5973,-0.6149,-0.6176,-0.6245,-0.6289,-0.63,-0.63,-0.63,-0.63,-0.63,-0.63,-0.63,-0.63,-0.63,-0.63,-0.63,-0.63,-0.63,-0.649,-0.6795,-0.6834,-0.6683,-0.6296,-0.63,-0.63,-0.63,-0.63,-0.63,-0.6306,-0.6385,-0.6436,-0.6446,-0.6536,-0.6685,-0.6824,-0.6852,-0.6947,-0.7075,-0.7095,-0.7095,-0.7119,-0.7098,-0.722,-0.7479,-0.7784,-0.7938,-0.7943,-0.7961,-0.7988,-0.8088,-0.8432,-0.8775,-0.8726,-0.8726,-0.892,-0.9608,-1.1194,-1.3303,-1.428,-1.5289,-1.5778,-1.5825,-1.5825,-1.5778,-1.5778,-1.5825,-1.573,-1.5825,-1.5825,-1.5825,-1.5825,-1.5825,-1.5825,-1.5825,-1.5825,-1.5825,-1.5825,-1.5825,-1.5825,-1.5825,-1.5825,-1.5852,-1.5879,-1.6189,-1.6289,-1.6081,-1.6184,-1.6253,-1.7012,-1.6568,-1.6761,0.0,0.0,-0.094,-0.1885,-0.2849,-0.3698,-0.4605,-0.5464,-0.5539,-0.5535,-0.5525,-0.5476,-0.5452,-0.5453,-0.5416,-0.5395,-0.5395,-0.5395,-0.5423,-0.5477,-0.5576,-0.5688,-0.5867,-0.5946,-0.6112,-0.6276,-0.63,-0.63,-0.63,-0.63,-0.63,-0.63,-0.63,-0.63,-0.63,-0.63,-0.63,-0.63,-0.63,-0.63,-0.63,-0.63,-0.63,-0.63,-0.63,-0.63,-0.63,-0.63,-0.63,-0.63,-0.63,-0.632,-0.6371,-0.646,-0.6535,-0.6552,-0.6692,-0.6817,-0.6873,-0.6927,-0.6997,-0.7082,-0.7095,-0.7095,-0.7109,-0.7092,-0.7247,-0.756,-0.7835,-0.7989,-0.8007,-0.7988,-0.7988,-0.7988,-0.7988,-0.7988,-0.7988,-0.8038,-0.8287,-0.892,-1.0141,-1.194,-1.3638,-1.4609,-1.5289,-1.5676,-1.5493,-1.5289,-1.5683,-1.5384,-1.5391,-1.5683,-1.5825,-1.5825,-1.5825,-1.5825,-1.5825,-1.5825,-1.5825,-1.5825,-1.5825,-1.5825,-1.5825,-1.5825,-1.5804,-1.5838,-1.6073,-1.6399,-1.6308,-1.6017,-1.5699,-1.5648,-1.5832,-1.567,-1.5695,0.0,0.0,-0.0941,-0.1876,-0.2918,-0.373,-0.4777,-0.5645,-0.5772,-0.5752,-0.5711,-0.5682,-0.5613,-0.5562,-0.5457,-0.5432,-0.5416,-0.5423,-0.5477,-0.5542,-0.5589,-0.5745,-0.5946,-0.6034,-0.6125,-0.6296,-0.63,-0.63,-0.63,-0.63,-0.63,-0.63,-0.63,-0.63,-0.63,-0.63,-0.63,-0.63,-0.63,-0.63,-0.63,-0.63,-0.63,-0.63,-0.63,-0.63,-0.63,-0.63,-0.63,-0.63,-0.63,-0.6368,-0.6474,-0.6521,-0.6549,-0.6698,-0.6844,-0.6879,-0.691,-0.7014,-0.7075,-0.7095,-0.7095,-0.7095,-0.7132,-0.7119,-0.7245,-0.758,-0.7848,-0.7985,-0.7985,-0.7988,-0.7988,-0.7988,-0.7988,-0.7988,-0.7988,-0.7988,-0.8482,-0.9308,-0.9223,-0.9873,-1.2587,-1.3974,-1.4507,-1.5146,-1.4949,-1.4609,-1.5337,-1.4949,-1.4752,-1.5337,-1.573,-1.5825,-1.5825,-1.5825,-1.5825,-1.5825,-1.5825,-1.5825,-1.5825,-1.5825,-1.5825,-1.5784,-1.5789,-1.5835,-1.6172,-1.6462,-1.6117,-1.5788,-1.5444,-1.4862,-1.4565,-1.4415,-1.4266,0.0,0.0,-0.0282,-0.1374,-0.2837,-0.3203,-0.4214,-0.5728,-0.58,-0.58,-0.5783,-0.5743,-0.5675,-0.5597,-0.5568,-0.5524,-0.5515,-0.5549,-0.5491,-0.5518,-0.5644,-0.5783,-0.5905,-0.6091,-0.6252,-0.6293,-0.63,-0.63,-0.63,-0.63,-0.63,-0.63,-0.63,-0.63,-0.63,-0.63,-0.63,-0.63,-0.63,-0.63,-0.63,-0.63,-0.63,-0.63,-0.63,-0.63,-0.63,-0.63,-0.63,-0.63,-0.63,-0.6364,-0.6497,-0.6573,-0.6698,-0.6848,-0.695,-0.7031,-0.7034,-0.7065,-0.7095,-0.7095,-0.7095,-0.7095,-0.7125,-0.7093,-0.7252,-0.7577,-0.7862,-0.7988,-0.7988,-0.7988,-0.7988,-0.7988,-0.7988,-0.7988,-0.7988,-0.7988,-0.8184,-0.8474,-0.8234,-0.9053,-1.0947,-1.242,-1.3872,-1.4507,-1.4704,-1.4949,-1.4609,-1.4704,-1.48,-1.4704,-1.5188,-1.5784,-1.5825,-1.5825,-1.5825,-1.5635,-1.5588,-1.5439,-1.5486,-1.5242,-1.5343,-1.5681,-1.5684,-1.6,-1.6339,-1.6507,-1.6266,-1.5319,-1.4601,-1.4003,-1.3411,-1.3107,-1.294,0.0,0.0,0.0,-0.093,-0.2413,-0.2779,-0.3889,-0.5322,-0.5821,-0.6013,-0.5973,-0.5895,-0.5815,-0.5745,-0.57,-0.5686,-0.5664,-0.5667,-0.562,-0.5603,-0.5762,-0.5908,-0.5979,-0.6197,-0.63,-0.63,-0.63,-0.63,-0.63,-0.63,-0.63,-0.63,-0.63,-0.63,-0.63,-0.63,-0.63,-0.63,-0.63,-0.63,-0.63,-0.63,-0.63,-0.63,-0.63,-0.63,-0.6303,-0.5914,-0.5879,-0.6193,-0.63,-0.6392,-0.6539,-0.6654,-0.679,-0.6937,-0.7038,-0.7092,-0.7095,-0.7092,-0.7095,-0.7095,-0.7095,-0.7095,-0.7104,-0.7093,-0.7252,-0.754,-0.7816,-0.7988,-0.7988,-0.7988,-0.7988,-0.7988,-0.7988,-0.7988,-0.7988,-0.7988,-0.7988,-0.8081,-0.8007,-0.8693,-1.0079,-1.1112,-1.2952,-1.3632,-1.3728,-1.422,-1.3584,-1.3638,-1.3536,-1.3938,-1.5143,-1.5573,-1.5784,-1.5825,-1.5825,-1.5534,-1.5296,-1.4997,-1.48,-1.4076,-1.3836,-1.4846,-1.5181,-1.5993,-1.6401,-1.6999,-1.7007,-1.5509,-1.3752,-1.2783,-1.2136,-1.181,-1.1592,0.0,0.0,0.0,-0.0644,-0.1741,-0.2658,-0.373,-0.4796,-0.5844,-0.6265,-0.6234,-0.6061,-0.6008,-0.5963,-0.5842,-0.5759,-0.581,-0.5813,-0.583,-0.5861,-0.5979,-0.6098,-0.6245,-0.6282,-0.6296,-0.63,-0.63,-0.63,-0.63,-0.63,-0.63,-0.63,-0.63,-0.63,-0.63,-0.63,-0.63,-0.63,-0.618,-0.6103,-0.6219,-0.5983,-0.606,-0.606,-0.5944,-0.5864,-0.5682,-0.5044,-0.5071,-0.5908,-0.5846,-0.5922,-0.6363,-0.6504,-0.6424,-0.6879,-0.7007,-0.6918,-0.6962,-0.6874,-0.6962,-0.7095,-0.7095,-0.7105,-0.7115,-0.7148,-0.7274,-0.7597,-0.783,-0.7988,-0.7988,-0.7988,-0.7988,-0.7988,-0.7988,-0.7988,-0.7988,-0.7988,-0.7988,-0.7988,-0.8088,-0.8432,-0.9604,-1.0043,-1.1404,-1.2662,-1.2178,-1.2517,-1.2764,-1.2813,-1.1989,-1.2834,-1.4286,-1.5204,-1.5363,-1.5778,-1.573,-1.5439,-1.4908,-1.4124,-1.3926,-1.3204,-1.306,-1.4015,-1.4936,-1.5791,-1.6563,-1.7092,-1.6392,-1.4461,-1.2916,-1.1642,-1.0945,-1.0621,-1.0457,0.0,0.0,0.0,-0.0626,-0.1679,-0.2668,-0.3718,-0.4763,-0.5825,-0.6212,-0.6234,-0.6101,-0.602,-0.601,-0.5885,-0.5832,-0.5935,-0.5969,-0.604,-0.6135,-0.6211,-0.6252,-0.6293,-0.63,-0.63,-0.63,-0.63,-0.63,-0.63,-0.63,-0.63,-0.63,-0.63,-0.63,-0.63,-0.63,-0.63,-0.6141,-0.5473,-0.555,-0.5906,-0.4688,-0.4373,-0.5002,-0.4414,-0.4023,-0.3945,-0.369,-0.3607,-0.3862,-0.3948,-0.4334,-0.4957,-0.4673,-0.5076,-0.6219,-0.5492,-0.5395,-0.6514,-0.6248,-0.6251,-0.7007,-0.6972,-0.7187,-0.7309,-0.7201,-0.7348,-0.7654,-0.7887,-0.7988,-0.7988,-0.7988,-0.7988,-0.7988,-0.7988,-0.7988,-0.7988,-0.7988,-0.7988,-0.7988,-0.7988,-0.8233,-0.8627,-0.941,-1.0534,-1.194,-1.2425,-1.2275,-1.228,-1.2619,-1.2134,-1.1965,-1.2958,-1.413,-1.4994,-1.5499,-1.5635,-1.5343,-1.4465,-1.306,-1.2915,-1.2624,-1.2909,-1.3709,-1.4676,-1.5544,-1.6412,-1.7136,-1.5305,-1.3857,-1.3102,-1.224,-1.0296,-0.9427,-0.9482,0.0,0.0,0.0,-0.0368,-0.1033,-0.2018,-0.3085,-0.4078,-0.5143,-0.5928,-0.6178,-0.6184,-0.6139,-0.6105,-0.6057,-0.6027,-0.6115,-0.6129,-0.6176,-0.6276,-0.6293,-0.6296,-0.63,-0.63,-0.63,-0.63,-0.63,-0.63,-0.63,-0.63,-0.63,-0.63,-0.63,-0.63,-0.63,-0.6296,-0.6022,-0.5592,-0.4963,-0.4882,-0.4805,-0.3787,-0.3513,-0.3865,-0.3359,-0.2938,-0.2574,-0.2462,-0.2657,-0.2997,-0.3141,-0.3352,-0.38,-0.3597,-0.3671,-0.4273,-0.3659,-0.4283,-0.5129,-0.4996,-0.4996,-0.5589,-0.6061,-0.6503,-0.6697,-0.6985,-0.7541,-0.7756,-0.7953,-0.7975,-0.7988,-0.7988,-0.7988,-0.7988,-0.7988,-0.7988,-0.7988,-0.7988,-0.7988,-0.7988,-0.7988,-0.7988,-0.7988,-0.8726,-0.9702,-1.0779,-1.1556,-1.1409,-1.1312,-1.194,-1.2134,-1.1521,-1.1214,-1.2119,-1.4112,-1.5143,-1.5356,-1.5112,-1.3884,-1.2431,-1.1365,-1.1326,-1.1619,-1.2265,-1.3825,-1.5088,-1.5634,-1.6152,-1.5805,-1.462,-1.3863,-1.2512,-1.0566,-0.8937,-0.8937,0.0,0.0,0.0,0.0,0.0,-0.1151,-0.2162,-0.3033,-0.4074,-0.5126,-0.587,-0.6083,-0.605,-0.6296,-0.6201,-0.6265,-0.6289,-0.6276,-0.6282,-0.63,-0.63,-0.63,-0.63,-0.63,-0.63,-0.63,-0.63,-0.63,-0.63,-0.63,-0.63,-0.63,-0.63,-0.618,-0.5983,-0.5983,-0.5512,-0.4649,-0.4181,-0.3826,-0.3396,-0.2849,-0.2578,-0.2849,-0.2578,-0.209,-0.1602,-0.1455,-0.1747,-0.2683,-0.2766,-0.2598,-0.2728,-0.2915,-0.219,-0.1109,-0.2097,-0.3126,-0.3614,-0.3705,-0.3571,-0.3981,-0.5051,-0.5586,-0.6005,-0.6878,-0.7707,-0.7858,-0.7914,-0.7975,-0.7988,-0.7988,-0.7988,-0.7988,-0.7988,-0.7988,-0.7988,-0.7988,-0.7988,-0.7988,-0.7988,-0.7988,-0.7988,-0.8088,-0.8581,-1.0243,-1.073,-1.0681,-1.0583,-1.0828,-1.0627,-0.9948,-0.9825,-0.9877,-1.2318,-1.484,-1.4904,-1.479,-1.3264,-1.1658,-0.9575,-0.926,-0.948,-1.0281,-1.1765,-1.3008,-1.3986,-1.4456,-1.4849,-1.4654,-1.3423,-1.2264,-1.0941,-0.9478,-0.8937,0.0,0.0,0.0,0.0,0.0,-0.1135,-0.1729,-0.2014,-0.3023,-0.4045,-0.4845,-0.4944,-0.5457,-0.6254,-0.6114,-0.6142,-0.6289,-0.63,-0.63,-0.63,-0.63,-0.63,-0.6261,-0.6222,-0.6257,-0.6296,-0.63,-0.63,-0.63,-0.63,-0.6257,-0.6219,-0.6103,-0.5867,-0.5118,-0.5002,-0.4491,-0.3515,-0.2737,-0.2696,-0.2575,-0.1525,-0.1214,-0.176,-0.1213,0.0,0.0,-0.0322,-0.0451,0.0,0.0,0.0,0.0,0.0,0.0,0.0,0.0,-0.1656,-0.2948,-0.2725,-0.2592,-0.34,-0.447,-0.566,-0.5844,-0.6837,-0.7667,-0.7904,-0.7971,-0.7988,-0.7988,-0.7988,-0.7988,-0.7988,-0.7988,-0.7988,-0.7988,-0.7988,-0.7988,-0.7988,-0.7988,-0.7988,-0.7988,-0.7988,-0.8627,-0.9706,-1.0002,-1.0002,-0.9953,-0.9903,-0.9558,-0.9069,-0.8848,-0.9208,-1.1336,-1.3744,-1.4514,-1.4298,-1.2926,-1.1414,-0.9331,-0.8183,-0.8809,-0.9149,-0.959,-1.0883,-1.2365,-1.2924,-1.3408,-1.3113,-1.2796,-1.1673,-1.0507,-0.9482,-0.8937,0.0,0.0,0.0,0.0,0.0,-0.0608,-0.112,-0.161,-0.2123,-0.2989,-0.3902,-0.4299,-0.4887,-0.5574,-0.5881,-0.6115,-0.623,-0.63,-0.63,-0.63,-0.6257,-0.6022,-0.5589,-0.5631,-0.5744,-0.6141,-0.63,-0.63,-0.63,-0.618,-0.6022,-0.555,-0.5547,-0.4921,-0.4098,-0.3945,-0.34,-0.2542,-0.1918,-0.1683,-0.1369,-0.0666,-0.0157,-0.0705,0.0,0.0,0.0,0.0,0.0,0.0,0.0,0.0,0.0,0.0,0.0,0.0,0.0,0.0,-0.1389,-0.1388,-0.121,-0.1926,-0.3171,-0.3745,-0.4532,-0.569,-0.6845,-0.7164,-0.7534,-0.7988,-0.7988,-0.7988,-0.7988,-0.7988,-0.7988,-0.7988,-0.7988,-0.7988,-0.7988,-0.7988,-0.7988,-0.7988,-0.7988,-0.7988,-0.8088,-0.892,-0.9854,-0.9854,-0.9217,-0.9167,-0.9069,-0.8718,-0.8312,-0.8841,-1.0765,-1.2543,-1.401,-1.3703,-1.277,-1.1361,-0.971,-0.8955,-0.8538,-0.8872,-0.9204,-0.9712,-1.0974,-1.1407,-1.166,-1.1147,-1.0761,-1.039,-1.0131,-0.9533,-0.9099,0.0152,0.0,0.0,0.0,0.0,0.0,-0.05,-0.1243,-0.1363,-0.1904,-0.2843,-0.3747,-0.4011,-0.4579,-0.5403,-0.5853,-0.5951,-0.5944,-0.5825,-0.5473,-0.5431,-0.5079,-0.4569,-0.453,-0.4805,-0.5747,-0.5589,-0.5589,-0.5589,-0.5747,-0.5079,-0.4569,-0.445,-0.3904,-0.3086,-0.2813,-0.2386,-0.1449,-0.1254,-0.0941,0.0,0.0,0.0,0.0,0.0,0.0,0.0,0.0,0.0,0.0,0.0,0.0,0.0,0.0,0.0,0.0,0.0,0.0,0.0,0.0,0.0,0.0,-0.1304,-0.2046,-0.2694,-0.4223,-0.5594,-0.6473,-0.7083,-0.7988,-0.7988,-0.7988,-0.7988,-0.7988,-0.7988,-0.7988,-0.7988,-0.7988,-0.7988,-0.7988,-0.7988,-0.7988,-0.7988,-0.7988,-0.7988,-0.8137,-0.9069,-0.9509,-0.8924,-0.8528,-0.8528,-0.8478,-0.8124,-0.9095,-1.097,-1.2334,-1.365,-1.3409,-1.2619,-1.1312,-1.0015,-0.9121,-0.8552,-0.8723,-0.9124,-0.9517,-0.9864,-1.0522,-1.0311,-0.9406,-0.9369,-0.9739,-0.9695,-0.9588,-0.9261,0.0809,0.0,0.0,0.0,0.0,0.0,0.0,-0.0231,0.0,-0.0888,-0.1812,-0.2073,-0.2706,-0.3432,-0.446,-0.4887,-0.4972,-0.496,-0.4569,-0.3984,-0.3904,-0.3669,-0.3474,-0.3357,-0.3476,-0.3558,-0.3636,-0.3671,-0.3826,-0.3591,-0.3789,-0.3435,-0.3357,-0.2852,-0.2113,-0.1802,-0.1371,0.0,0.0,0.0,0.0,0.0,0.0,0.0,0.0,0.0,0.0,0.0,0.0,0.0,0.0,0.0,0.0,0.0,0.0,0.0,0.0,0.0,0.0,0.0,0.0,0.0,-0.1128,-0.1822,-0.2287,-0.3368,-0.4712,-0.6077,-0.7033,-0.7939,-0.7988,-0.7789,-0.7939,-0.7939,-0.7988,-0.7988,-0.7988,-0.7988,-0.7988,-0.7988,-0.7988,-0.7988,-0.7988,-0.7988,-0.7988,-0.7988,-0.8432,-0.8775,-0.8432,-0.8233,-0.8184,-0.8137,-0.8035,-0.955,-1.1361,-1.2528,-1.3542,-1.3204,-1.2425,-1.1312,-1.0048,-0.9036,-0.8607,-0.8636,-0.8783,-0.9019,-0.9388,-0.9789,-0.9611,-0.912,-0.9192,-0.9372,-0.9316,-0.9261,-0.9154,0.1289,0.0778,0.0256,0.0,0.0,0.0,0.0,0.0,0.0,-0.0292,-0.0778,-0.1238,-0.1749,-0.246,-0.3341,-0.3807,-0.3876,-0.3865,-0.3554,-0.3124,-0.3085,-0.2774,-0.2384,-0.2308,-0.1918,-0.1645,-0.1527,-0.219,-0.301,-0.3163,-0.2774,-0.2386,-0.2308,-0.1801,-0.1019,-0.0745,0.0,0.0,0.0,0.0,0.0,0.0,0.0,0.0,0.0,0.0,0.0,0.0,0.0,0.0,0.0,0.0,0.0,0.0,0.0,0.0,0.0,0.0,0.0,0.0,0.0,0.0,0.0,-0.0912,-0.1272,-0.2236,-0.3865,-0.5575,-0.6329,-0.6986,-0.6933,-0.7036,-0.6983,-0.7083,-0.7534,-0.7939,-0.7988,-0.7988,-0.7988,-0.7988,-0.7988,-0.7988,-0.7988,-0.7988,-0.7988,-0.7988,-0.7988,-0.7988,-0.7988,-0.7988,-0.7988,-0.7988,-0.7985,-0.8704,-1.032,-1.1497,-1.2861,-1.2813,-1.2134,-1.097,-1.0081,-0.9002,-0.8526,-0.8392,-0.8514,-0.875,-0.8926,-0.9326,-0.9051,-0.8937,-0.9047,-0.9099,-0.8992,-0.8937,-0.8937,0.1786,0.1524,0.0426,0.0,0.0,0.0,0.0,0.0,0.0,0.0,0.0,-0.0681,-0.1079,-0.1482,-0.2166,-0.2718,-0.2812,-0.2813,-0.2618,-0.2306,-0.2267,-0.1917,-0.1489,-0.1176,0.0,0.0,0.0,0.0,-0.1919,-0.2228,-0.1918,-0.1488,-0.1293,-0.0902,-0.0235,0.0,0.0,0.0,0.0,0.0,0.0,0.0,0.0,0.0,0.0,0.0,0.0,0.0,0.0,0.0,0.0,0.0,0.0,0.0,0.0,0.0,0.0,0.0,0.0,0.0,0.0,0.0,0.0,0.0,-0.0394,-0.1548,-0.3017,-0.5024,-0.5625,-0.5877,-0.6129,-0.6082,-0.6079,-0.6379,-0.7232,-0.7988,-0.7988,-0.7988,-0.7988,-0.7988,-0.7988,-0.7988,-0.7988,-0.7988,-0.7988,-0.7988,-0.7988,-0.7988,-0.7988,-0.7988,-0.7988,-0.7988,-0.7978,-0.8004,-0.8882,-0.9882,-1.1297,-1.2237,-1.1458,-1.0391,-0.9682,-0.8988,-0.8625,-0.8286,-0.8513,-0.8716,-0.8818,-0.8876,-0.8893,-0.8937,-0.8937,-0.8937,-0.8937,-0.8937,-0.8937,0.2417,0.1524,0.0461,0.0,0.0,0.0,0.0,0.0,0.0,0.0,0.0,0.0,0.0,-0.0515,-0.1301,-0.171,-0.176,-0.1723,-0.141,-0.0862,0.0,0.0,0.0,-0.0157,0.0,0.0,0.0,0.0,0.0,0.0,0.0,0.0,0.0,0.0,0.0,0.0,0.0,0.0,0.0,0.0,0.0,0.0,0.0,0.0,0.0,0.0,0.0,0.0,0.0,0.0,0.0,0.0,0.0,0.0,0.0,0.0,0.0,0.0,0.0,0.0,0.0,0.0,0.0,0.0,0.0,-0.1204,-0.2614,-0.3915,-0.4218,-0.462,-0.5325,-0.5827,-0.5929,-0.6381,-0.7083,-0.7786,-0.7988,-0.7988,-0.7988,-0.7988,-0.7988,-0.7988,-0.7988,-0.7988,-0.7988,-0.7988,-0.7988,-0.7988,-0.7988,-0.7988,-0.7988,-0.7988,-0.7988,-0.8014,-0.8103,-0.9,-0.9739,-1.1214,-1.0583,-0.971,-0.9248,-0.8753,-0.857,-0.8357,-0.8577,-0.8676,-0.8733,-0.8794,-0.8858,-0.8937,-0.8937,-0.8937,-0.8937,-0.8937,-0.8937,0.3409,0.2368,0.1352,0.0561,0.0,0.0,0.0,0.0,0.0,0.0,0.0,0.0,0.0,0.0,-0.0542,-0.0667,0.0,0.0,0.0,0.0,0.0,0.0,0.0,0.0,0.0,0.0,0.0,0.0,0.0,0.0,0.0,0.0,0.0,0.0,0.0,0.0,0.0,0.0,0.0,0.0,0.0,0.0,0.0,0.0,0.0,0.0,0.0,0.0,0.0,0.0,0.0,0.0,0.0,0.0,0.0,0.0,0.0,0.0,0.0,0.0,0.0,0.0,0.0,0.0,0.0,-0.1159,-0.2063,-0.2765,-0.2865,-0.3267,-0.387,-0.447,-0.477,-0.5372,-0.6731,-0.7584,-0.7988,-0.7988,-0.7988,-0.7988,-0.7988,-0.7988,-0.7988,-0.7988,-0.7988,-0.7988,-0.7988,-0.7988,-0.7988,-0.7988,-0.7988,-0.7988,-0.7985,-0.7978,-0.8074,-0.8421,-0.8471,-0.941,-0.941,-0.8737,-0.8717,-0.8435,-0.8367,-0.8408,-0.8591,-0.8662,-0.8692,-0.8759,-0.8875,-0.8937,-0.8937,-0.8937,-0.8937,-0.8937,-0.8937,0.4488,0.3408,0.2128,0.1127,0.0385,0.0103,0.0,0.0,0.0,0.0,0.0,0.0,0.0,0.0,0.0,0.0,0.0,0.0,0.0,0.0,0.0,0.0,0.0,0.0,0.0,0.0,0.0,0.0,0.0,0.0,0.0,0.0,0.0,0.0,0.0,0.0,0.0,0.0,0.0,0.0,0.0,0.0,0.0,0.0,0.0,0.0,0.0,0.0,0.0,0.0,0.0,0.0,0.0,0.0,0.0,0.0,0.0,0.0,0.0,0.0,0.0,0.0,0.0,0.0,0.0,0.0,-0.1812,-0.2063,-0.1611,-0.1711,-0.2113,-0.3065,-0.3616,-0.4668,-0.6024,-0.703,-0.7885,-0.7939,-0.7988,-0.7988,-0.7988,-0.7988,-0.7988,-0.7988,-0.7988,-0.7988,-0.7988,-0.7988,-0.7988,-0.7988,-0.7988,-0.7988,-0.7988,-0.7985,-0.8035,-0.8084,-0.7988,-0.7988,-0.7988,-0.8045,-0.8215,-0.84,-0.8408,-0.8499,-0.8625,-0.8706,-0.8828,-0.8858,-0.8937,-0.8937,-0.8937,-0.8937,-0.8937,-0.8937,-0.8937,0.5577,0.4424,0.2479,0.1573,0.1365,0.042,0.0,0.0,0.0,0.0,0.0,0.0,0.0,0.0,0.0,0.0,0.0,0.0,0.0,0.0,0.0,0.0,0.0,0.0,0.0,0.0,0.0,0.0,0.0,0.0,0.0,0.0,0.0,0.0,0.0,0.0,0.0,0.0,0.0,0.0,0.0,0.0,0.0,0.0,0.0,0.0,0.0,0.0,0.0,0.0,0.0,0.0,0.0,0.0,0.0,0.0,0.0,0.0,0.0,0.0,0.0,0.0,0.0,0.0,0.0,0.0,0.0,-0.1561,-0.0958,-0.0958,-0.1511,-0.2212,-0.2864,-0.3867,-0.5222,-0.6528,-0.7385,-0.7935,-0.7939,-0.7988,-0.7988,-0.7988,-0.7988,-0.7988,-0.7988,-0.7988,-0.7988,-0.7988,-0.7988,-0.7988,-0.7988,-0.7988,-0.7988,-0.7988,-0.7988,-0.7988,-0.7988,-0.7988,-0.7988,-0.7988,-0.8045,-0.8214,-0.8436,-0.8523,-0.8638,-0.8747,-0.8878,-0.8881,-0.8937,-0.8937,-0.8937,-0.8937,-0.8937,-0.8937,-0.8937,0.6064,0.5532,0.4028,0.2709,0.1502,0.0459,0.0,0.0,0.0,0.0,0.0,0.0,0.0,0.0,0.0,0.0,0.0,0.0,0.0,0.0,0.0,0.0,0.0,0.0,0.0,0.0,0.0,0.0,0.0,0.0,0.0,0.0,0.0,0.0,0.0,0.0,0.0,0.0,0.0,0.0,0.0,0.0,0.0,0.0,0.0,0.0,0.0,0.0,0.0,0.0,0.0,0.0,0.0,0.0,0.0,0.0,0.0,0.0,0.0,0.0,0.0,0.0,0.0,0.0,0.0,0.0,0.0,-0.0404,0.0,0.0,-0.0605,-0.146,-0.2363,-0.3215,-0.432,-0.5727,-0.6783,-0.7385,-0.7889,-0.7939,-0.7988,-0.7988,-0.7988,-0.7988,-0.7988,-0.7988,-0.7988,-0.7988,-0.7988,-0.7988,-0.7988,-0.7988,-0.7988,-0.7988,-0.7988,-0.7988,-0.7988,-0.7988,-0.7988,-0.7988,-0.8002,-0.8177,-0.8395,-0.8492,-0.8642,-0.8788,-0.8831,-0.8868,-0.8937,-0.8937,-0.8937,-0.8937,-0.8937,-0.8937,-0.8937,0.63,0.616,0.4984,0.371,0.2391,0.1274,0.0655,0.0405,0.0,0.0171,0.0,0.0,0.0,0.0,0.0,0.0,0.0,0.0,0.0,0.0,0.0,0.0,0.0,0.0,0.0,0.0,0.0,0.0,0.0,0.0,0.0,0.0,0.0,0.0,0.0,0.0,0.0,0.0,0.0,0.0,0.0,0.0,0.0,0.0,0.0,0.0,0.0,0.0,0.0,0.0,0.0,0.0,0.0,0.0,0.0,0.0,0.0,0.0,0.0,0.0,0.0,0.0,0.0,0.0,0.0,0.0,0.0,0.0,0.0,0.0,0.0,-0.0807,-0.1661,-0.2414,-0.3116,-0.4422,-0.5877,-0.6783,-0.7437,-0.7889,-0.7939,-0.7988,-0.7988,-0.7988,-0.7988,-0.7988,-0.7988,-0.7988,-0.7988,-0.7988,-0.7988,-0.7988,-0.7988,-0.7988,-0.7988,-0.7988,-0.7988,-0.7988,-0.7988,-0.7988,-0.8029,-0.8187,-0.8361,-0.8469,-0.8621,-0.8764,-0.8855,-0.892,-0.8937,-0.8937,-0.8937,-0.8937,-0.8937,-0.8937,-0.8937,0.6296,0.6163,0.5017,0.448,0.4149,0.3102,0.2062,0.131,0.1174,0.0715,0.0,0.0,0.0,0.0,0.0,0.0,0.0,0.0,0.0,0.0,0.0,0.0,0.0,0.0,0.0,0.0,0.0,0.0,0.0,0.0,0.0,0.0,0.0,0.0,0.0,0.0,0.0,0.0,0.0,0.0,0.0,0.0,0.0,0.0,0.0,0.0,0.0,0.0,0.0,0.0,0.0,0.0,0.0,0.0,0.0,0.0,0.0,0.0,0.0,0.0,0.0,0.0,0.0,0.0,0.0,0.0,0.0,0.0,0.0,0.0,0.0,0.0,0.0,-0.1511,-0.2265,-0.3417,-0.4872,-0.6232,-0.6883,-0.7739,-0.7939,-0.7988,-0.7988,-0.7988,-0.7988,-0.7988,-0.7988,-0.7988,-0.7988,-0.7988,-0.7988,-0.7988,-0.7988,-0.7988,-0.7988,-0.7988,-0.7988,-0.7988,-0.7988,-0.7988,-0.8015,-0.814,-0.8279,-0.8442,-0.8537,-0.8628,-0.8784,-0.8933,-0.8933,-0.8937,-0.8937,-0.8937,-0.8937,-0.8937,-0.8937,0.6203,0.6057,0.5568,0.532,0.4985,0.3397,0.2508,0.215,0.1543,0.0811,0.0,0.0,0.0,0.0,0.0,0.0,0.0,0.0,0.0,0.0,0.0706,0.0,0.0432,0.0706,0.0667,0.0,0.0,0.0,0.0,0.0,0.0,0.0,0.0745,0.0,0.0,0.0471,0.0,0.0,0.0,0.0,0.0,0.0,0.0,0.0,0.0,0.0,0.0,0.0,0.0,0.0,0.0,0.0,0.0,0.0,0.0,0.0,0.0,0.0,0.0,0.0,0.0,0.0,0.0,0.0,0.0,0.0,0.0,0.0,0.0,0.0,0.0,0.0,0.0,0.0,-0.1511,-0.2815,-0.4218,-0.5477,-0.6481,-0.7487,-0.7988,-0.7988,-0.7988,-0.7988,-0.7988,-0.7988,-0.7988,-0.7988,-0.7988,-0.7988,-0.7988,-0.7988,-0.7988,-0.7988,-0.7988,-0.7988,-0.7988,-0.7988,-0.7988,-0.7988,-0.8025,-0.8109,-0.8201,-0.8336,-0.8408,-0.8486,-0.8696,-0.8872,-0.892,-0.8937,-0.8937,-0.8937,-0.8937,-0.8937,-0.8937,0.6044,0.5935,0.5789,0.5677,0.5413,0.418,0.3468,0.3017,0.2178,0.128,0.0,0.0,0.0,0.0,0.0568,0.0884,0.1019,0.0,0.0,0.1175,0.1722,0.1722,0.1605,0.1605,0.1449,0.0824,0.0549,0.0,0.0,0.0,0.0,0.0,0.1722,0.1761,0.1566,0.1722,0.0,0.0,0.0,0.0,0.0,0.0,0.0,0.0,0.0,0.0,0.0,0.1254,0.121,0.112,0.0896,0.0628,0.0538,0.0,0.0,0.0,0.0,0.0,0.0,0.0,0.0,0.0,0.0,0.0,0.0,0.0,0.0,0.0,0.0,0.0,0.0,0.0,0.0,0.0,0.0,0.0,-0.3215,-0.4472,-0.5727,-0.6781,-0.7939,-0.7939,-0.7988,-0.7988,-0.7988,-0.7988,-0.7988,-0.7988,-0.7988,-0.7988,-0.7988,-0.7988,-0.7988,-0.7988,-0.7988,-0.7988,-0.7988,-0.7988,-0.7988,-0.7988,-0.7992,-0.8025,-0.8153,-0.8228,-0.8319,-0.8445,-0.8712,-0.8859,-0.8896,-0.8937,-0.8937,-0.8937,-0.8937,-0.8937,-0.8937,0.5803,0.5779,0.565,0.5586,0.5555,0.5262,0.4761,0.3915,0.3111,0.2207,0.1359,0.1357,0.1464,0.1581,0.1623,0.207,0.2616,0.2773,0.2734,0.289,0.3008,0.2852,0.2735,0.2734,0.2151,0.1762,0.1449,0.1333,0.1568,0.1645,0.2072,0.2812,0.3047,0.3164,0.3203,0.332,0.3164,0.2578,0.2466,0.2447,0.2531,0.2309,0.2407,0.2469,0.2369,0.237,0.2681,0.3037,0.3126,0.2903,0.2458,0.2013,0.1433,0.0673,0.0,0.0,0.0,0.0,0.0,0.0,0.0,0.0,0.0,0.0,0.0,0.0,0.0,0.0,0.0,0.0,0.0,0.0,0.0,0.0,0.0,0.0,0.0,-0.3317,-0.4622,-0.5924,-0.7385,-0.7839,-0.7988,-0.7988,-0.7988,-0.7988,-0.7988,-0.7988,-0.7988,-0.7988,-0.7988,-0.7988,-0.7988,-0.7988,-0.7988,-0.7988,-0.7988,-0.7988,-0.7988,-0.7988,-0.7988,-0.7995,-0.8102,-0.8174,-0.8255,-0.8394,-0.8591,-0.8767,-0.8916,-0.8937,-0.8937,-0.8937,-0.8937,-0.8937,-0.8937,0.5723,0.5659,0.562,0.5528,0.5463,0.5412,0.4855,0.4015,0.368,0.3098,0.231,0.2386,0.2442,0.2542,0.2607,0.288,0.3044,0.3124,0.3085,0.3357,0.3982,0.3205,0.2891,0.289,0.2423,0.1996,0.1802,0.2152,0.2581,0.2696,0.3281,0.4062,0.4217,0.4608,0.5002,0.5315,0.4375,0.3748,0.3705,0.377,0.3594,0.3221,0.344,0.352,0.3434,0.3525,0.3792,0.3881,0.3881,0.357,0.3347,0.2858,0.1745,0.1389,0.0,0.0,0.0,0.0,0.0,0.0,0.0,0.0,0.0,0.0,0.0,0.0,0.0,0.0,0.0,0.0,0.0,0.0,0.0,0.0,0.0,0.0,-0.1561,-0.2414,-0.3768,-0.5724,-0.7132,-0.7739,-0.7839,-0.7988,-0.7988,-0.7988,-0.7988,-0.7988,-0.7988,-0.7988,-0.7988,-0.7988,-0.7988,-0.7988,-0.7988,-0.7988,-0.7988,-0.7988,-0.7988,-0.7988,-0.7988,-0.7998,-0.8019,-0.8089,-0.8153,-0.8319,-0.8503,-0.8696,-0.8927,-0.8937,-0.8937,-0.8937,-0.8937,-0.8937,-0.8937,0.5931,0.5542,0.5511,0.5477,0.5405,0.5395,0.5057,0.4586,0.455,0.4048,0.3265,0.3311,0.3375,0.3433,0.36,0.3885,0.4349,0.4552,0.4572,0.4766,0.4952,0.4611,0.4064,0.3789,0.3789,0.3168,0.2856,0.3324,0.3711,0.4258,0.4844,0.5234,0.5354,0.5709,0.6025,0.5983,0.5592,0.5079,0.487,0.4925,0.4659,0.4213,0.4325,0.4649,0.4568,0.4503,0.4861,0.4861,0.4905,0.4816,0.473,0.4063,0.3127,0.2815,0.2413,0.0,0.0,0.0,0.0,0.0,0.0,0.0,0.0,0.0,0.0,0.0,0.0,0.0,0.0,0.0,0.0,0.0,0.0,0.0,0.0,0.0,-0.1008,-0.1661,-0.3417,-0.5525,-0.6631,-0.7335,-0.7686,-0.7839,-0.7988,-0.7988,-0.7988,-0.7988,-0.7988,-0.7988,-0.7988,-0.7988,-0.7988,-0.7988,-0.7988,-0.7988,-0.7988,-0.7988,-0.7988,-0.7988,-0.7988,-0.7992,-0.8005,-0.8005,-0.8029,-0.8238,-0.8447,-0.874,-0.8937,-0.8937,-0.8937,-0.8937,-0.8937,-0.8937,-0.8937,0.6239,0.5531,0.5428,0.5402,0.5395,0.5395,0.5359,0.5395,0.5329,0.4921,0.4213,0.4112,0.4237,0.4341,0.4506,0.5003,0.5335,0.561,0.5628,0.6192,0.5934,0.5591,0.547,0.5986,0.4807,0.4688,0.4611,0.4297,0.4963,0.5392,0.5786,0.63,0.618,0.6219,0.6257,0.63,0.6022,0.5906,0.5886,0.5962,0.5981,0.5729,0.5549,0.6347,0.6183,0.5894,0.665,0.7007,0.7095,0.6697,0.6251,0.5536,0.4821,0.4016,0.3527,0.3124,0.2324,0.1835,0.1433,0.0852,0.0273,0.0,0.0,0.0,0.0,0.0,0.0,0.0,0.0,0.0,0.0,0.0,0.0,0.0,0.0,0.0,0.0,0.0,-0.2917,-0.4874,-0.6437,-0.7039,-0.7235,-0.7434,-0.7988,-0.7988,-0.7988,-0.7988,-0.7988,-0.7988,-0.7988,-0.7988,-0.7988,-0.7988,-0.7988,-0.7988,-0.7988,-0.7988,-0.7988,-0.7988,-0.7988,-0.7988,-0.7988,-0.7995,-0.8009,-0.8183,-0.8424,-0.8706,-0.892,-0.8937,-0.8937,-0.8937,-0.8937,-0.8937,-0.8937,0.658,0.6318,0.5683,0.5395,0.5395,0.5395,0.5395,0.5395,0.5395,0.5259,0.5092,0.5133,0.5167,0.5167,0.5264,0.5597,0.5772,0.5942,0.5986,0.602,0.6095,0.5854,0.5336,0.5464,0.5079,0.4807,0.4805,0.5157,0.5705,0.6103,0.63,0.63,0.63,0.63,0.63,0.63,0.63,0.63,0.6313,0.6436,0.6484,0.6567,0.6593,0.6907,0.6691,0.665,0.7095,0.7095,0.7095,0.6962,0.6874,0.6248,0.5403,0.4285,0.3749,0.3525,0.3436,0.2858,0.2236,0.1658,0.1086,0.0323,0.0,0.0,0.0,0.0,0.0,0.0,0.0,0.0,0.0,0.0,0.0,0.0,0.0,0.0,0.0,0.0,0.0,-0.4073,-0.5837,-0.6387,-0.6584,-0.7185,-0.7786,-0.7988,-0.7988,-0.7988,-0.7988,-0.7988,-0.7988,-0.7988,-0.7988,-0.7988,-0.7988,-0.7988,-0.7988,-0.7988,-0.7988,-0.7988,-0.7988,-0.7988,-0.7995,-0.7979,-0.8034,-0.8225,-0.8444,-0.8706,-0.8828,-0.892,-0.8937,-0.8937,-0.8937,-0.8937,-0.8937,0.7395,0.6637,0.5778,0.5395,0.5395,0.5395,0.5395,0.5395,0.5395,0.5395,0.5402,0.5471,0.5511,0.5525,0.5658,0.571,0.574,0.5783,0.5854,0.5922,0.5919,0.577,0.5451,0.5283,0.5506,0.5434,0.5431,0.5825,0.6219,0.63,0.63,0.63,0.63,0.63,0.63,0.63,0.63,0.63,0.63,0.6463,0.6664,0.6729,0.6807,0.695,0.7058,0.7078,0.7095,0.7095,0.7095,0.7095,0.7051,0.6874,0.6248,0.5711,0.5309,0.5085,0.4772,0.4105,0.3439,0.2776,0.2069,0.1235,0.0,0.0,0.0,0.0,0.0,0.0,0.0,0.0,0.0,0.0,0.0,0.0,0.0,0.0,0.0,0.0,-0.1611,-0.2767,-0.392,-0.427,-0.4868,-0.6431,-0.7086,-0.7988,-0.7988,-0.7988,-0.7988,-0.7988,-0.7988,-0.7988,-0.7988,-0.7988,-0.7988,-0.7988,-0.7988,-0.7988,-0.7988,-0.7988,-0.7988,-0.7988,-0.8008,-0.7972,-0.8028,-0.8196,-0.8425,-0.8713,-0.8821,-0.893,-0.8937,-0.8937,-0.8937,-0.8937,-0.8937,0.8248,0.667,0.591,0.5491,0.5395,0.5395,0.5395,0.5395,0.5395,0.5395,0.5395,0.5402,0.5395,0.5462,0.5502,0.5565,0.5583,0.5623,0.5708,0.58,0.5855,0.5828,0.5917,0.6038,0.6046,0.6089,0.6103,0.6141,0.6257,0.63,0.63,0.63,0.63,0.63,0.63,0.63,0.63,0.63,0.634,0.6474,0.662,0.6712,0.6824,0.6906,0.7021,0.7088,0.7095,0.7095,0.7095,0.7095,0.7095,0.7007,0.6962,0.665,0.6738,0.6425,0.5935,0.5489,0.5001,0.4198,0.3218,0.2395,0.2146,0.0,0.0,0.0,0.0,0.0,0.0,0.0,0.0,0.0,0.0,0.0,0.0,0.0,0.0,0.0,0.0,0.0,0.0,0.0,-0.3665,-0.5225,-0.6481,-0.7434,-0.7939,-0.7988,-0.7988,-0.7988,-0.7988,-0.7988,-0.7988,-0.7988,-0.7988,-0.7988,-0.7988,-0.7988,-0.7988,-0.7988,-0.7988,-0.7988,-0.8002,-0.7989,-0.8062,-0.8206,-0.8421,-0.8693,-0.8842,-0.8937,-0.8937,-0.8937,-0.8937,-0.8937,-0.8937,0.8285,0.6682,0.6523,0.6038,0.5458,0.5395,0.5395,0.5395,0.5395,0.5395,0.5395,0.5395,0.5395,0.5395,0.5428,0.5436,0.5467,0.5521,0.5549,0.5633,0.5708,0.5844,0.5939,0.6061,0.6149,0.6252,0.63,0.63,0.63,0.63,0.63,0.63,0.63,0.63,0.63,0.63,0.63,0.63,0.6334,0.6436,0.66,0.6742,0.6875,0.6957,0.7082,0.7095,0.7095,0.7095,0.7095,0.7095,0.7095,0.7095,0.7095,0.7095,0.7095,0.7095,0.665,0.6248,0.5669,0.5312,0.4374,0.3451,0.3233,0.0,0.0,0.0,0.0,0.0,0.0,0.0,0.0,0.0,0.0,0.0,0.0,0.0,0.0,0.0,0.0,0.0,0.0,0.0,-0.2514,-0.4121,-0.5727,-0.6631,-0.7487,-0.7587,-0.7988,-0.7988,-0.7939,-0.7988,-0.7988,-0.7988,-0.7988,-0.7988,-0.7988,-0.7988,-0.7988,-0.7988,-0.7988,-0.7988,-0.8008,-0.8069,-0.8054,-0.8135,-0.8391,-0.8757,-0.8852,-0.8937,-0.8937,-0.8937,-0.8937,-0.8937,-0.8937]},{"header":{"parameterUnit":"m.s-1","parameterCategory":1,"la1":31.0,"la2":29.5877,"lo1":-88.7671,"lo2":-86.6584,"dy":0.0162,"dx":0.0185,"nx":115,"ny":88,"refTime":"2024-08-14T06:00:00:Z","depth":0,"parameterNumber":3,"parameterNumberName":"V-component_of_WINDS"},"data":[0.0,0.0,0.0,0.0,0.0,0.0,0.0,0.0,0.0,0.0,0.0,0.0,0.0,0.0,0.0,0.0,0.0,0.0,0.0,0.0,0.0,0.0,0.0,0.0,0.0,0.0,0.0,0.0,0.0,0.0,0.0,0.0,0.0,0.0,0.0,0.0,0.0,0.0,0.0,0.0,0.0,0.0,0.0,0.0,0.0,0.0,0.0,0.0,0.0,0.0,0.0,0.0,0.0,0.0,0.0,0.0,0.0,0.0,0.0,0.0,0.0,0.0,0.0,0.0,0.0,0.0,0.0,0.0,0.0,0.0,0.0,0.0,0.0,0.0,0.0,0.0,0.0,0.0,0.0,0.0,0.0,0.0,0.0,0.0,0.0,0.0,0.0,0.0,0.0,0.0,0.0,0.0,0.0,0.0,0.0,0.0,0.0,0.0,0.0,0.0,0.0,0.0,0.0,0.0,0.0,0.0,0.0,0.0,0.0,0.0,0.0,0.0,0.0,0.0,0.0,0.0,0.0,0.0,0.0,0.0,0.0,0.0,0.0,0.0,0.0,0.0,0.0,0.0,0.0,0.0,0.0,0.0,0.0,0.0,0.0,0.0,0.0,0.0,0.0,0.0,0.0,0.0,0.0,0.0,0.0,0.0,0.0,0.0,0.0,0.0,0.0,0.0,0.0,0.0,0.0,0.0,0.0,0.0,0.0,0.0,0.0,0.0,0.0,0.0,0.0,0.0,0.0,0.0,0.0,0.0,0.0,0.0,0.0,0.0,0.0,0.0,0.0,0.0,0.0,0.0,0.0,0.0,0.0,0.0,0.0,0.0,0.0,0.0,0.0,0.0,0.0,0.0,0.0,0.0,0.0,0.0,0.0,0.0,0.0,0.0,0.0,0.0,0.0,0.0,0.0,0.0,0.0,0.0,0.0,0.0,0.0,0.0,0.0,0.0,0.0,0.0,0.0,0.0,0.0,0.0,0.0,0.0,0.0,0.0,0.0,0.0,0.0,0.0,0.0,0.0,0.0,0.0,0.0,0.0,0.0,0.0,0.0,0.0,0.0,0.0,0.0,0.0,0.0,0.0,0.0,0.0,0.0,0.0,0.0,0.0,0.0,0.0,0.0,0.0,0.0,0.0,0.0,0.0,0.0,0.0,0.0,0.0,0.0,0.0,0.0,0.0,0.0,0.0,0.0,0.0,0.0,0.0,0.0,0.0,0.0,0.0,0.0,0.0,0.0,0.0,0.0,0.0,0.0,0.0,0.0,0.0,0.0,0.0,0.0,0.0,0.0,0.0,0.0,0.0,0.0,0.0,0.0,0.0,0.0,0.0,0.0,0.0,0.0,0.0,0.0,0.0,0.0,0.0,0.0,0.0,0.0,0.0,0.0,0.0,0.0,0.0,0.0,0.0,0.0,0.0,0.0,0.0,0.0,0.0,0.0,0.0,0.0,0.0,0.0,0.0,0.0,0.0,0.0,0.0,0.0,0.0,0.0,0.0,0.0,0.0,0.0,0.0,0.0,0.0,0.0,0.0,0.0,0.0,0.0,0.0,0.0,0.0,0.0,0.0,0.0,0.0,0.0,0.0,0.0,0.0,0.0,0.0,0.0,0.0,0.0,0.0,0.0,0.0,0.0,0.0,0.0,0.0,0.0,0.0,0.0,0.0,0.0,0.0,0.0,0.0,0.0,0.0,0.0,0.0,0.0,0.0,0.0,0.0,0.0,0.0,0.0,0.0,0.0,0.0,0.0,0.0,0.0,0.0,0.0,0.0,0.0,0.0,0.0,0.0,0.0,0.0,0.0,0.0,0.0,0.0,0.0,0.0,0.0,0.0,0.0,0.0,0.0,0.0,0.0,0.0,0.0,0.0,0.0,0.0,0.0,0.0,0.0,0.0,0.0,0.0,0.0,0.0,0.0,0.0,0.0,0.0,0.0,0.0,0.0,0.0,0.0,0.0,0.0,0.0,0.0,0.0,0.0,0.0,0.0,0.0,0.0,0.0,0.0,0.0,0.0,0.0,0.0,0.0,0.0,0.0,0.0,0.0,0.0,0.0,0.0,0.0,0.0,0.0,0.0,0.0,0.0,0.0,0.0,0.0,0.0,0.0,0.0,0.0,0.0,0.0,0.0,0.0,0.0,0.0,0.0,0.0,0.0,0.0,0.0,0.0,0.0,0.0,0.0,0.0,0.0,0.0,0.0,0.0,0.0,0.0,0.0,0.0,0.0,0.0,0.0,0.0,0.0,0.0,0.0,0.0,0.0,0.0,0.0,0.0,0.0,0.0,0.0,0.0,0.0,0.0,0.0,0.0,0.0,0.0,0.0,0.0,0.0,0.0,0.0,0.0,0.0,0.0,0.0,0.0,0.0,0.0,0.0,0.0,0.0,0.0,0.0,0.0,0.0,0.0,0.0,0.0,0.0,0.0,0.0,0.0,0.0,0.0,0.0,0.0,0.0,0.0,0.0,0.0,0.0,0.0,0.0,0.0,0.0,0.0,0.0,0.0,0.0,0.0,0.0,0.0,0.0,0.0,0.0,0.0,0.0,0.0,0.0,0.0,0.0,0.0,0.0,0.0,0.0,0.0,0.0,0.0,0.0,0.0,0.0,0.0,0.0,0.0,0.0,0.0,0.0,0.0,0.0,0.0,0.0,0.0,0.0,0.0,0.0,0.0,0.0,0.0,0.0,0.0,0.0,0.0,0.0,0.0,0.0,0.0,0.0,0.0,0.0,0.0,0.0,0.0,0.0,0.0,0.0,0.0,0.0,0.0,0.0,0.0,0.0,0.0,0.0,0.0,0.0,0.0,0.0,0.0,0.0,0.0,0.0,0.0,0.0,0.0,0.0,0.0,0.0,0.0,0.0,0.0,0.0,0.0,0.0,0.0,0.0,0.0,0.0,0.0,0.0,0.0,0.0,0.0,0.0,0.0,0.0,0.0,0.0,0.0,0.0,0.0,0.0,0.0,0.0,0.0,0.0,0.0,0.0,0.0,0.0,0.0,0.0,0.0,0.0,0.0,0.0,0.0,0.0,0.0,0.0,0.0,0.0,0.0,0.0,0.0,0.0,0.0,0.0,0.0,0.0,0.0,0.0,0.0,0.0,0.0,0.0,0.0,0.0,0.0,0.0,0.0,0.0,0.0,0.0,0.0,0.0,0.0,0.0,0.0,0.0,0.0,0.0,0.0,0.0,0.0,0.0,0.0,0.0,0.0,0.0,0.0,0.0,0.0,0.0,0.0,0.0,0.0,0.0,0.0,0.0,0.0,0.0,0.0,0.0,0.0,0.0,0.0,0.0,0.0,0.0,0.0,0.0,0.0,0.0,0.0,0.0,0.0,0.0,0.0,0.0,0.0,0.0,0.0,0.0,0.0,0.0,0.0,0.0,0.0,0.0,0.0,0.0,0.0,0.0,0.0,0.0,0.0,0.0,0.0,0.0,0.0,0.0,0.0,0.0,0.0,0.0,0.0,0.0,0.0,0.0,0.0,0.0,0.0,0.0,0.0,0.0,0.0,0.0,0.0,0.0,0.0,0.0,0.0,0.0,0.0,0.0,0.0,0.0,0.0,0.0,0.0,0.0,0.0,0.0,0.0,0.0,0.0,0.0,0.0,0.0,0.0,0.0,0.0,0.0,0.0,0.0,0.0,0.0,0.0,0.0,0.0,0.0,0.0,0.0,0.0,0.0,0.0,0.0,0.0,0.0,0.0,0.0,0.0,0.0,0.0,0.0,0.0,0.0,0.0,0.0,0.0,0.0,0.0,0.0,0.0,0.0,0.0,0.0,0.0,0.0,0.0,0.0,0.0,0.0,0.0,0.0,0.0,0.0,0.0,0.0,0.0,0.0,0.0,0.0,0.0,0.0,0.0,0.0,0.0,0.0,0.0,0.0,0.0,0.0,0.0,0.0,0.0,0.0,0.0,0.0,0.0,0.0,0.0,0.0,0.0,0.0,0.0,0.0,0.0,0.0,0.0,0.0,0.0,0.0,0.0,0.0,0.0,0.0,0.0,0.0,0.0,0.0,0.0,0.0,0.0,0.0,0.0,0.0,0.0,0.0,0.0,0.0,0.0,0.0,0.0,0.0,0.0,0.0,0.0,0.0,0.0,0.0,0.0,0.0,0.0,0.0,0.0,0.0,0.0,0.0,0.0,0.0,0.0,0.0,0.0,0.0,0.0,0.0,0.0,0.0,0.0,0.0,0.0,0.0,0.0,0.0,0.0,0.0,0.0,0.0,0.0,0.0,0.0,0.0,0.0,0.0,0.0,0.0,0.0,1.65,0.0,0.0,0.0,0.0,0.0,0.0,0.0,0.0,0.0,0.0,0.0,0.0,0.0,0.0,0.0,0.0,0.0,0.0,0.0,0.0,0.0,0.0,0.0,0.0,0.0,0.0,0.0,0.0,0.0,0.0,0.0,0.0,0.0,0.0,0.0,0.0,0.0,0.0,0.0,0.0,0.0,0.0,0.0,0.0,0.0,0.0,0.0,0.0,0.0,0.0,0.0,0.0,0.0,0.0,0.0,0.0,0.0,0.0,0.0,0.0,0.0,0.0,0.0,0.0,0.0,0.0,0.0,0.0,0.0,0.0,0.0,0.0,0.0,0.0,0.0,0.0,0.0,0.0,0.0,0.0,0.0,0.0,0.0,0.0,0.0,0.0,0.0,0.0,0.0,0.0,0.0,0.0,0.0,0.0,0.0,0.0,0.0,0.0,0.0,0.0,0.0,0.0,0.0,0.0,0.0,0.0,0.0,0.0,0.0,0.0,1.6513,1.6513,1.6513,1.6513,1.65,0.0,0.0,0.0,0.0,0.0,0.0,0.0,0.0,0.0,0.0,0.0,0.0,0.0,0.0,0.0,0.0,0.0,0.0,0.0,0.0,0.0,0.0,0.0,0.0,0.0,0.0,0.0,0.0,0.0,0.0,0.0,0.0,0.0,0.0,0.0,0.0,0.0,0.0,0.0,0.0,0.0,0.0,0.0,0.0,0.0,0.0,0.0,0.0,0.0,0.0,0.0,0.0,0.0,0.0,0.0,0.0,0.0,0.0,0.0,0.0,0.0,0.0,0.0,0.0,0.0,0.0,0.0,0.0,0.0,0.0,0.0,0.0,0.0,0.0,0.0,0.0,0.0,0.0,0.0,0.0,0.0,0.0,0.0,0.0,0.0,0.0,0.0,0.0,0.0,0.0,0.0,0.0,0.0,0.0,0.0,0.0,0.0,0.0,0.0,0.0,0.0,0.0,0.0,0.0,0.0,0.0,0.0,0.0,0.0,0.0,0.0,0.0,1.6513,1.6437,1.6346,0.0,0.0,0.0,0.0,0.0,0.0,0.0,0.0,0.0,0.0,0.0,0.0,0.0,0.0,0.0,0.0,0.0,0.0,0.0,0.0,0.0,0.0,0.0,0.0,0.0,0.0,0.0,0.0,0.0,0.0,0.0,0.0,0.0,0.0,0.0,0.0,0.0,0.0,0.0,0.0,0.0,0.0,0.0,0.0,0.0,0.0,0.0,0.0,0.0,0.0,0.0,0.0,0.0,0.0,0.0,0.0,0.0,0.0,0.0,0.0,0.0,0.0,0.0,0.0,0.0,0.0,0.0,0.0,0.0,0.0,0.0,0.0,0.0,0.0,0.0,0.0,0.0,0.0,0.0,0.0,0.0,0.0,0.0,0.0,0.0,0.0,0.0,0.0,0.0,0.0,0.0,0.0,0.0,0.0,0.0,0.0,0.0,0.0,0.0,0.0,0.0,0.0,0.0,0.0,0.0,0.0,0.0,0.0,0.0,0.0,1.6513,1.6513,1.65,0.0,1.5819,0.0,0.0,0.0,0.0,0.0,0.0,0.0,0.0,0.0,0.0,0.0,0.0,0.0,0.0,0.0,0.0,0.0,0.0,0.0,0.0,0.0,0.0,0.0,0.0,0.0,0.0,0.0,0.0,0.0,0.0,0.0,0.0,0.0,0.0,0.0,0.0,0.0,0.0,0.0,0.0,0.0,0.0,0.0,0.0,0.0,0.0,0.0,0.0,0.0,0.0,0.0,0.0,0.0,0.0,0.0,0.0,0.0,0.0,0.0,0.0,0.0,0.0,0.0,0.0,0.0,0.0,0.0,0.0,0.0,0.0,0.0,0.0,0.0,0.0,0.0,0.0,0.0,0.0,0.0,0.0,0.0,0.0,0.0,0.0,0.0,0.0,0.0,0.0,0.0,0.0,0.0,0.0,0.0,0.0,0.0,0.0,0.0,0.0,0.0,0.0,0.0,0.0,0.0,0.0,0.0,0.0,0.0,0.0,0.0,0.0,1.7024,1.7146,1.6727,1.6417,0.0,0.0,0.0,0.0,0.0,0.0,0.0,0.0,0.0,0.0,0.0,0.0,0.0,0.0,0.0,0.0,0.0,0.0,0.0,0.0,0.0,0.0,0.0,0.0,0.0,0.0,0.0,0.0,0.0,0.0,0.0,0.0,0.0,0.0,0.0,0.0,0.0,0.0,0.0,0.0,0.0,0.0,0.0,0.0,0.0,0.0,0.0,0.0,0.0,0.0,0.0,0.0,0.0,0.0,0.0,0.0,0.0,0.0,0.0,0.0,0.0,0.0,0.0,0.0,0.0,0.0,0.0,0.0,0.0,0.0,0.0,0.0,0.0,0.0,0.0,0.0,0.0,0.0,0.0,0.0,0.0,0.0,0.0,0.0,0.0,0.0,0.0,0.0,0.0,0.0,0.0,0.0,0.0,0.0,0.0,0.0,0.0,0.0,0.0,0.0,0.0,0.0,0.0,0.0,0.0,0.0,0.0,0.0,0.0,0.0,1.713,1.745,1.7696,1.722,1.6788,1.6466,0.0,0.0,0.0,0.0,0.0,0.0,0.0,0.0,0.0,0.0,0.0,0.0,0.0,0.0,0.0,0.0,0.0,0.0,0.0,0.0,0.0,0.0,0.0,0.0,0.0,0.0,0.0,0.0,0.0,0.0,0.0,0.0,0.0,0.0,0.0,0.0,0.0,0.0,0.0,0.0,0.0,0.0,0.0,0.0,0.0,0.0,0.0,0.0,0.0,0.0,0.0,0.0,0.0,0.0,0.0,0.0,0.0,0.0,0.0,0.0,0.0,0.0,0.0,0.0,0.0,0.0,0.0,0.0,0.0,0.0,0.0,0.0,0.0,0.0,0.0,0.0,0.0,0.0,0.0,0.0,0.0,0.0,0.0,0.0,0.0,0.0,0.0,0.0,0.0,0.0,0.0,0.0,0.0,0.0,0.0,0.0,0.0,0.0,0.0,0.0,0.0,0.0,0.0,0.0,0.0,0.0,0.0,0.0,1.7528,1.74,1.7565,1.8092,1.8045,1.7493,0.0,0.0,0.0,0.0,0.0,0.0,0.0,0.0,0.0,0.0,0.0,0.0,0.0,0.0,0.0,0.0,0.0,0.0,0.0,0.0,0.0,0.0,0.0,0.0,0.0,0.0,0.0,0.0,0.0,0.0,0.0,0.0,0.0,0.0,0.0,0.0,0.0,0.0,0.0,0.0,0.0,0.0,0.0,0.0,0.0,0.0,0.0,0.0,0.0,0.0,0.0,0.0,0.0,0.0,0.0,0.0,0.0,0.0,0.0,0.0,0.0,0.0,0.0,0.0,0.0,0.0,0.0,0.0,0.0,0.0,0.0,0.0,0.0,0.0,0.0,0.0,0.0,0.0,0.0,0.0,0.0,0.0,0.0,0.0,0.0,0.0,0.0,0.0,0.0,0.0,0.0,0.0,0.0,0.0,0.0,0.0,0.0,0.0,0.0,0.0,0.0,0.0,0.0,0.0,0.0,0.0,0.0,0.0,0.0,1.7644,1.8408,1.893,1.9084,1.8061,1.7242,0.0,0.0,0.0,0.0,0.0,0.0,0.0,0.0,0.0,0.0,0.0,0.0,0.0,0.0,0.0,0.0,0.0,0.0,0.0,0.0,0.0,0.0,0.0,0.0,0.0,0.0,0.0,0.0,0.0,0.0,0.0,0.0,0.0,0.0,0.0,0.0,0.0,0.0,0.0,0.0,0.0,0.0,0.0,0.0,0.0,0.0,0.0,0.0,0.0,0.0,0.0,0.0,0.0,0.0,0.0,0.0,0.0,0.0,0.0,0.0,0.0,0.0,0.0,0.0,0.0,0.0,0.0,0.0,0.0,0.0,0.0,0.0,0.0,0.0,0.0,0.0,0.0,0.0,0.0,0.0,0.0,0.0,0.0,0.0,0.0,0.0,0.0,0.0,0.0,0.0,0.0,0.0,0.0,0.0,0.0,0.0,0.0,0.0,0.0,0.0,0.0,0.0,0.0,0.0,0.0,0.0,0.0,0.0,0.0,1.8073,0.0,1.9723,1.966,1.8564,1.7746,0.0,0.0,0.0,0.0,0.0,0.0,0.0,0.0,0.0,0.0,0.0,0.0,0.0,0.0,0.0,0.0,0.0,0.0,0.0,0.0,0.0,0.0,0.0,0.0,0.0,0.0,0.0,0.0,0.0,0.0,0.0,0.0,0.0,0.0,0.0,0.0,0.0,0.0,0.0,0.0,0.0,0.0,0.0,0.0,0.0,0.0,0.0,0.0,0.0,0.0,0.0,0.0,0.0,0.0,0.0,0.0,0.0,0.0,0.0,0.0,0.0,0.0,0.0,0.0,0.0,0.0,0.0,0.0,0.0,0.0,0.0,0.0,0.0,0.0,0.0,0.0,0.0,0.0,0.0,0.0,0.0,0.0,0.0,0.0,0.0,0.0,0.0,0.0,0.0,0.0,0.0,0.0,0.0,0.0,0.0,0.0,0.0,0.0,0.0,0.0,0.0,0.0,0.0,0.0,0.0,0.0,0.0,0.0,1.8897,1.8916,1.9409,1.9723,1.969,1.963,1.9031,0.0,0.0,0.0,0.0,0.0,0.0,0.0,0.0,0.0,0.0,0.0,0.0,0.0,0.0,0.0,0.0,0.0,0.0,0.0,0.0,0.0,0.0,0.0,0.0,0.0,0.0,0.0,0.0,0.0,0.0,0.0,0.0,0.0,0.0,0.0,0.0,0.0,0.0,0.0,0.0,0.0,0.0,0.0,0.0,0.0,0.0,0.0,0.0,0.0,0.0,0.0,0.0,0.0,0.0,0.0,0.0,0.0,0.0,0.0,0.0,0.0,0.0,0.0,0.0,0.0,0.0,0.0,0.0,0.0,0.0,0.0,0.0,0.0,0.0,0.0,0.0,0.0,0.0,0.0,0.0,0.0,0.0,0.0,0.0,0.0,0.0,0.0,0.0,0.0,0.0,0.0,0.0,0.0,0.0,0.0,0.0,0.0,0.0,0.0,0.0,0.0,0.0,0.0,0.0,0.0,0.0,0.0,0.0,0.0,1.946,1.9603,1.9914,2.0333,1.9495,1.9049,0.0,0.0,0.0,0.0,0.0,0.0,0.0,0.0,0.0,0.0,0.0,0.0,0.0,0.0,0.0,0.0,0.0,0.0,0.0,0.0,0.0,0.0,0.0,0.0,0.0,0.0,0.0,0.0,0.0,0.0,0.0,0.0,0.0,0.0,0.0,0.0,0.0,0.0,0.0,0.0,0.0,0.0,0.0,0.0,0.0,0.0,0.0,0.0,0.0,0.0,0.0,0.0,0.0,0.0,0.0,0.0,0.0,0.0,0.0,0.0,0.0,0.0,0.0,0.0,0.0,0.0,0.0,0.0,0.0,0.0,0.0,0.0,0.0,0.0,0.0,0.0,0.0,0.0,0.0,0.0,0.0,0.0,0.0,0.0,0.0,0.0,0.0,0.0,0.0,0.0,0.0,0.0,0.0,0.0,0.0,0.0,0.0,0.0,0.0,0.0,0.0,0.0,0.0,0.0,0.0,0.0,0.0,0.0,0.0,2.0064,2.0064,2.0154,2.0333,1.975,1.9405,1.9301,0.0,0.0,0.0,0.0,0.0,0.0,0.0,0.0,0.0,0.0,0.0,0.0,0.0,0.0,0.0,0.0,0.0,0.0,0.0,0.0,0.0,0.0,0.0,0.0,0.0,0.0,0.0,0.0,0.0,0.0,0.0,0.0,0.0,0.0,0.0,0.0,0.0,0.0,0.0,0.0,0.0,0.0,0.0,0.0,0.0,0.0,0.0,0.0,0.0,0.0,0.0,0.0,0.0,0.0,0.0,0.0,0.0,0.0,0.0,0.0,0.0,0.0,0.0,0.0,0.0,0.0,0.0,0.0,0.0,0.0,0.0,0.0,0.0,0.0,0.0,0.0,0.0,0.0,0.0,0.0,0.0,0.0,0.0,0.0,0.0,0.0,0.0,0.0,0.0,0.0,0.0,0.0,0.0,0.0,0.0,0.0,0.0,0.0,0.0,0.0,0.0,0.0,0.0,0.0,0.0,0.0,0.0,0.0,2.0745,2.082,2.0584,2.0002,2.0427,2.0139,0.0,0.0,0.0,0.0,0.0,0.0,0.0,0.0,0.0,0.0,0.0,0.0,0.0,0.0,0.0,0.0,0.0,0.0,0.0,0.0,0.0,0.0,0.0,0.0,0.0,0.0,0.0,0.0,0.0,0.0,0.0,0.0,0.0,0.0,0.0,0.0,0.0,0.0,0.0,0.0,0.0,0.0,0.0,0.0,0.0,0.0,0.0,0.0,0.0,0.0,0.0,0.0,0.0,0.0,0.0,0.0,0.0,0.0,0.0,0.0,0.0,0.0,0.0,0.0,0.0,0.0,0.0,0.0,0.0,0.0,0.0,0.0,0.0,0.0,0.0,0.0,0.0,0.0,0.0,0.0,0.0,0.0,0.0,0.0,0.0,0.0,0.0,0.0,0.0,0.0,0.0,0.0,0.0,0.0,0.0,0.0,0.0,0.0,0.0,0.0,0.0,0.0,0.0,0.0,0.0,0.0,0.0,0.0,0.0,2.1167,2.214,2.2605,2.2424,2.1307,2.0922,0.0,0.0,0.0,0.0,0.0,0.0,0.0,0.0,0.0,0.0,0.0,0.0,0.0,0.0,0.0,0.0,0.0,0.0,0.0,0.0,0.0,0.0,0.0,0.0,0.0,0.0,0.0,0.0,0.0,0.0,0.0,0.0,0.0,0.0,0.0,0.0,0.0,0.0,0.0,0.0,0.0,0.0,0.0,0.0,0.0,0.0,0.0,0.0,0.0,0.0,0.0,0.0,0.0,0.0,0.0,0.0,0.0,0.0,0.0,0.0,0.0,0.0,0.0,0.0,0.0,0.0,0.0,0.0,0.0,0.0,0.0,0.0,0.0,0.0,0.0,0.0,0.0,0.0,0.0,0.0,0.0,0.0,0.0,0.0,0.0,0.0,0.0,0.0,0.0,0.0,0.0,0.0,0.0,0.0,0.0,0.0,0.0,0.0,0.0,0.0,0.0,0.0,0.0,0.0,0.0,0.0,0.0,0.0,2.2303,2.2519,2.3607,2.427,2.4499,2.2774,2.1896,0.0,0.0,0.0,0.0,0.0,0.0,0.0,0.0,0.0,0.0,0.0,0.0,0.0,0.0,0.0,0.0,0.0,0.0,0.0,0.0,0.0,0.0,0.0,0.0,0.0,0.0,0.0,0.0,0.0,0.0,0.0,0.0,0.0,0.0,0.0,0.0,0.0,0.0,0.0,0.0,0.0,0.0,0.0,0.0,0.0,0.0,0.0,0.0,0.0,0.0,0.0,0.0,0.0,0.0,0.0,0.0,0.0,0.0,0.0,0.0,0.0,0.0,0.0,0.0,0.0,0.0,0.0,0.0,0.0,0.0,0.0,0.0,0.0,0.0,0.0,0.0,0.0,0.0,0.0,0.0,0.0,0.0,0.0,0.0,0.0,0.0,0.0,0.0,0.0,0.0,0.0,0.0,0.0,0.0,0.0,0.0,0.0,0.0,0.0,0.0,0.0,0.0,0.0,0.0,0.0,0.0,0.0,0.0,2.3528,2.4239,2.4944,2.5521,2.5926,2.4299,2.2867,0.0,0.0,0.0,0.0,0.0,0.0,0.0,0.0,0.0,0.0,0.0,0.0,0.0,0.0,0.0,0.0,0.0,0.0,0.0,0.0,0.0,0.0,0.0,0.0,0.0,0.0,0.0,0.0,0.0,0.0,0.0,0.0,0.0,0.0,0.0,0.0,0.0,0.0,0.0,0.0,0.0,0.0,0.0,0.0,0.0,0.0,0.0,0.0,0.0,0.0,0.0,0.0,0.0,0.0,0.0,0.0,0.0,0.0,0.0,0.0,0.0,0.0,0.0,0.0,0.0,0.0,0.0,0.0,0.0,0.0,0.0,0.0,0.0,0.0,0.0,0.0,0.0,0.0,0.0,0.0,0.0,0.0,0.0,0.0,0.0,0.0,0.0,0.0,0.0,0.0,0.0,0.0,0.0,0.0,0.0,0.0,0.0,0.0,0.0,0.0,0.0,0.0,0.0,0.0,0.0,0.0,0.0,0.0,2.4047,2.4666,2.5422,2.5888,2.5995,2.4164,2.3252,0.0,0.0,0.0,0.0,0.0,0.0,0.0,0.0,0.0,0.0,0.0,0.0,0.0,0.0,0.0,0.0,0.0,0.0,0.0,0.0,0.0,0.0,0.0,0.0,0.0,0.0,0.0,0.0,0.0,0.0,0.0,0.0,0.0,0.0,0.0,0.0,0.0,0.0,0.0,0.0,0.0,0.0,0.0,0.0,0.0,0.0,0.0,0.0,2.5261,0.0,0.0,0.0,0.0,0.0,0.0,0.0,0.0,0.0,0.0,0.0,0.0,0.0,0.0,0.0,0.0,0.0,0.0,0.0,0.0,0.0,0.0,0.0,0.0,0.0,0.0,0.0,0.0,0.0,0.0,0.0,0.0,0.0,0.0,0.0,0.0,0.0,0.0,0.0,0.0,0.0,0.0,0.0,0.0,0.0,0.0,0.0,0.0,0.0,0.0,0.0,0.0,0.0,0.0,0.0,0.0,0.0,0.0,0.0,2.4662,2.5647,2.6114,2.6332,2.6282,2.4646,2.3819,0.0,0.0,0.0,0.0,0.0,0.0,0.0,0.0,0.0,0.0,0.0,0.0,0.0,0.0,0.0,0.0,0.0,0.0,0.0,0.0,0.0,0.0,0.0,0.0,0.0,0.0,0.0,0.0,0.0,0.0,0.0,0.0,0.0,0.0,0.0,0.0,0.0,0.0,0.0,0.0,0.0,0.0,0.0,0.0,0.0,0.0,0.0,0.0,0.0,0.0,0.0,0.0,0.0,0.0,0.0,0.0,0.0,0.0,0.0,0.0,0.0,0.0,0.0,0.0,0.0,0.0,0.0,0.0,0.0,0.0,0.0,0.0,0.0,0.0,0.0,0.0,0.0,0.0,0.0,0.0,0.0,0.0,0.0,0.0,0.0,0.0,0.0,0.0,0.0,0.0,0.0,0.0,0.0,0.0,0.0,0.0,0.0,0.0,0.0,0.0,0.0,0.0,0.0,0.0,0.0,0.0,0.0,2.437,2.5218,2.6623,2.6708,2.6708,2.6657,2.5286,2.4352,2.4,0.0,0.0,0.0,0.0,0.0,0.0,0.0,0.0,0.0,0.0,0.0,0.0,0.0,0.0,0.0,0.0,0.0,0.0,0.0,0.0,0.0,0.0,0.0,0.0,0.0,0.0,0.0,0.0,0.0,0.0,0.0,0.0,0.0,0.0,0.0,0.0,0.0,0.0,2.26,2.3915,0.0,0.0,0.0,0.0,0.0,0.0,0.0,0.0,2.7265,0.0,0.0,0.0,0.0,0.0,0.0,0.0,0.0,0.0,0.0,0.0,0.0,0.0,0.0,0.0,0.0,0.0,0.0,0.0,0.0,0.0,0.0,0.0,0.0,0.0,0.0,0.0,0.0,0.0,0.0,0.0,0.0,0.0,0.0,0.0,0.0,0.0,0.0,0.0,0.0,0.0,0.0,0.0,0.0,0.0,0.0,0.0,0.0,0.0,0.0,0.0,0.0,0.0,0.0,0.0,0.0,2.5292,2.4781,2.5218,2.6657,2.6708,2.6708,2.6657,2.5269,2.446,2.4347,0.0,0.0,0.0,0.0,0.0,0.0,0.0,0.0,0.0,0.0,0.0,0.0,0.0,0.0,0.0,0.0,0.0,0.0,0.0,0.0,0.0,0.0,0.0,0.0,0.0,0.0,0.0,0.0,0.0,0.0,0.0,0.0,0.0,0.0,0.0,0.0,0.0,0.0,0.0,2.5405,2.642,0.0,0.0,0.0,0.0,0.0,0.0,0.0,0.0,2.7849,0.0,0.0,0.0,0.0,0.0,0.0,0.0,0.0,0.0,0.0,0.0,0.0,0.0,0.0,0.0,0.0,0.0,0.0,0.0,0.0,0.0,0.0,0.0,0.0,0.0,0.0,0.0,0.0,0.0,0.0,0.0,0.0,0.0,0.0,0.0,0.0,0.0,0.0,0.0,0.0,0.0,0.0,0.0,0.0,0.0,0.0,0.0,0.0,0.0,0.0,0.0,0.0,0.0,0.0,0.0,2.4949,2.505,2.5592,2.6657,2.6708,2.6505,2.6116,2.5083,2.4321,0.0,0.0,0.0,0.0,0.0,0.0,0.0,0.0,0.0,0.0,0.0,0.0,0.0,0.0,0.0,0.0,0.0,0.0,0.0,0.0,0.0,0.0,0.0,0.0,0.0,0.0,0.0,0.0,0.0,0.0,0.0,0.0,0.0,0.0,0.0,0.0,0.0,0.0,0.0,0.0,2.6268,2.7013,2.7791,0.0,0.0,0.0,0.0,0.0,0.0,2.8069,2.8216,0.0,0.0,0.0,0.0,0.0,0.0,0.0,0.0,0.0,0.0,0.0,0.0,0.0,0.0,0.0,0.0,0.0,0.0,0.0,0.0,0.0,0.0,0.0,0.0,0.0,0.0,0.0,0.0,0.0,0.0,0.0,0.0,0.0,0.0,0.0,0.0,0.0,0.0,0.0,0.0,0.0,0.0,0.0,0.0,0.0,0.0,0.0,0.0,0.0,0.0,0.0,0.0,0.0,0.0,0.0,2.4491,2.522,2.5964,2.6674,2.6539,2.6201,2.5609,2.4745,2.4,0.0,0.0,0.0,0.0,0.0,0.0,0.0,0.0,0.0,0.0,0.0,0.0,0.0,0.0,0.0,0.0,0.0,0.0,0.0,0.0,0.0,0.0,0.0,0.0,0.0,0.0,0.0,0.0,0.0,0.0,0.0,0.0,0.0,0.0,0.0,0.0,0.0,0.0,0.0,0.0,0.0,2.774,2.8602,2.8467,0.0,0.0,0.0,0.0,2.9114,2.8693,0.0,0.0,0.0,0.0,0.0,0.0,0.0,0.0,0.0,0.0,0.0,0.0,0.0,0.0,0.0,0.0,0.0,0.0,0.0,0.0,0.0,0.0,0.0,0.0,0.0,0.0,0.0,0.0,0.0,0.0,0.0,0.0,0.0,0.0,0.0,0.0,0.0,0.0,0.0,0.0,0.0,0.0,0.0,0.0,0.0,0.0,0.0,0.0,0.0,0.0,0.0,0.0,0.0,0.0,0.0,0.0,2.4491,2.5236,2.5947,2.6623,2.6082,2.5693,2.5592,2.4255,2.3477,0.0,0.0,0.0,0.0,0.0,0.0,0.0,0.0,0.0,0.0,0.0,0.0,0.0,0.0,0.0,0.0,0.0,0.0,0.0,0.0,0.0,0.0,0.0,0.0,0.0,0.0,0.0,0.0,0.0,0.0,0.0,0.0,0.0,0.0,0.0,0.0,0.0,0.0,0.0,0.0,0.0,2.9261,2.8094,2.9007,2.96,0.0,0.0,2.9868,2.9946,2.9905,0.0,0.0,0.0,0.0,0.0,0.0,0.0,0.0,0.0,0.0,0.0,0.0,0.0,0.0,0.0,0.0,0.0,0.0,0.0,0.0,0.0,0.0,0.0,0.0,0.0,0.0,0.0,0.0,0.0,0.0,0.0,0.0,0.0,0.0,0.0,0.0,0.0,0.0,0.0,0.0,0.0,0.0,0.0,0.0,0.0,0.0,0.0,0.0,0.0,0.0,0.0,0.0,0.0,0.0,0.0,2.4186,2.4508,2.5659,2.637,2.6657,2.5981,2.5406,2.4983,2.4142,2.3406,0.0,0.0,0.0,0.0,0.0,0.0,0.0,0.0,0.0,0.0,0.0,0.0,0.0,0.0,0.0,0.0,0.0,0.0,0.0,0.0,0.0,0.0,0.0,0.0,0.0,0.0,0.0,0.0,0.0,0.0,0.0,0.0,0.0,0.0,0.0,0.0,0.0,0.0,0.0,0.0,0.0,0.0,2.9753,3.0311,0.0,0.0,0.0,3.0242,3.0673,0.0,0.0,0.0,0.0,0.0,0.0,0.0,0.0,0.0,0.0,0.0,0.0,0.0,0.0,0.0,0.0,0.0,0.0,0.0,0.0,0.0,0.0,0.0,0.0,0.0,0.0,0.0,0.0,0.0,0.0,0.0,0.0,0.0,0.0,0.0,0.0,0.0,0.0,0.0,0.0,0.0,0.0,0.0,0.0,0.0,0.0,0.0,0.0,0.0,0.0,0.0,0.0,0.0,0.0,0.0,0.0,0.0,2.4525,2.5963,2.659,2.642,2.571,2.503,2.4373,2.3863,0.0,0.0,0.0,0.0,0.0,0.0,0.0,0.0,0.0,0.0,0.0,0.0,0.0,0.0,0.0,0.0,0.0,0.0,0.0,0.0,0.0,0.0,0.0,0.0,0.0,0.0,0.0,2.0524,0.0,0.0,0.0,0.0,0.0,0.0,0.0,0.0,0.0,0.0,0.0,0.0,0.0,0.0,3.0852,3.1393,3.1461,3.1546,0.0,0.0,3.0622,3.1362,3.093,3.0442,0.0,0.0,0.0,0.0,0.0,0.0,0.0,0.0,0.0,0.0,0.0,0.0,0.0,0.0,0.0,0.0,0.0,0.0,0.0,0.0,0.0,0.0,0.0,0.0,0.0,0.0,0.0,0.0,0.0,0.0,0.0,0.0,0.0,0.0,0.0,0.0,0.0,0.0,0.0,0.0,0.0,0.0,0.0,0.0,0.0,0.0,0.0,0.0,0.0,0.0,0.0,0.0,0.0,0.0,2.3799,2.4525,2.5963,2.637,2.5693,2.4965,2.4368,2.3943,2.3188,2.2764,0.0,0.0,0.0,0.0,0.0,0.0,0.0,0.0,0.0,0.0,0.0,0.0,0.0,0.0,0.0,0.0,0.0,0.0,0.0,0.0,0.0,0.0,0.0,0.0,0.0,0.0,0.0,0.0,0.0,0.0,0.0,0.0,0.0,0.0,0.0,0.0,0.0,0.0,0.0,0.0,0.0,3.2175,3.2209,3.2226,3.2479,0.0,3.2052,3.1379,3.2114,3.1925,3.1307,3.0274,0.0,0.0,0.0,0.0,0.0,0.0,0.0,0.0,0.0,0.0,0.0,0.0,0.0,0.0,0.0,0.0,0.0,0.0,0.0,0.0,0.0,0.0,0.0,0.0,0.0,0.0,0.0,0.0,0.0,0.0,0.0,0.0,0.0,0.0,0.0,0.0,0.0,0.0,0.0,0.0,0.0,0.0,0.0,0.0,0.0,0.0,0.0,0.0,0.0,0.0,0.0,0.0,0.0,2.378,2.4491,2.5963,2.6336,2.5609,2.5079,2.4517,2.3915,2.3522,2.323,0.0,0.0,0.0,0.0,0.0,0.0,0.0,0.0,0.0,0.0,0.0,0.0,0.0,0.0,0.0,0.0,0.0,0.0,0.0,0.0,0.0,0.0,0.0,0.0,0.0,0.0,0.0,0.0,2.289,2.3059,2.3464,0.0,0.0,0.0,0.0,0.0,0.0,0.0,0.0,0.0,0.0,3.2828,3.2961,3.3632,0.0,0.0,3.3212,3.2648,3.2929,3.2464,3.1732,3.0658,3.1185,0.0,0.0,0.0,0.0,0.0,0.0,0.0,0.0,0.0,0.0,0.0,0.0,0.0,0.0,0.0,0.0,0.0,0.0,0.0,0.0,0.0,0.0,0.0,0.0,0.0,0.0,0.0,0.0,0.0,0.0,0.0,0.0,0.0,0.0,0.0,0.0,0.0,0.0,0.0,0.0,0.0,0.0,0.0,0.0,0.0,0.0,0.0,0.0,0.0,0.0,0.0,0.0,2.3763,2.4508,2.6076,2.6349,2.5287,2.5092,2.459,2.3742,2.359,2.3488,0.0,0.0,0.0,0.0,0.0,0.0,0.0,0.0,0.0,0.0,0.0,0.0,0.0,0.0,0.0,0.0,0.0,0.0,0.0,0.0,0.0,0.0,0.0,0.0,0.0,0.0,0.0,0.0,2.3777,2.3824,2.3721,0.0,0.0,0.0,0.0,0.0,0.0,0.0,0.0,0.0,0.0,3.4128,3.4496,3.4982,3.5238,3.5083,3.4105,3.3537,3.3891,3.3662,3.3088,3.2127,0.0,0.0,0.0,0.0,0.0,0.0,0.0,0.0,0.0,0.0,0.0,0.0,0.0,0.0,0.0,0.0,0.0,0.0,0.0,0.0,0.0,0.0,0.0,0.0,0.0,0.0,0.0,1.7146,0.0,0.0,1.7215,0.0,0.0,0.0,0.0,0.0,0.0,0.0,0.0,0.0,0.0,0.0,0.0,0.0,0.0,0.0,0.0,0.0,0.0,0.0,0.0,0.0,0.0,2.3763,2.4523,2.6358,2.6409,2.4622,2.4907,2.4506,2.3301,2.3218,2.3369,2.3664,0.0,0.0,0.0,0.0,0.0,0.0,0.0,0.0,0.0,0.0,0.0,0.0,0.0,0.0,0.0,0.0,0.0,0.0,0.0,0.0,0.0,0.0,0.0,0.0,0.0,0.0,2.3703,2.3996,2.4064,0.0,0.0,0.0,0.0,0.0,0.0,0.0,0.0,0.0,3.457,3.5474,3.6235,3.6958,3.6081,3.5662,3.6291,3.4732,3.3887,3.5126,3.5631,3.5703,0.0,0.0,0.0,0.0,0.0,0.0,0.0,0.0,0.0,0.0,0.0,0.0,0.0,0.0,0.0,0.0,0.0,0.0,0.0,0.0,0.0,0.0,0.0,0.0,0.0,0.0,0.0,1.9337,1.8943,0.0,0.0,0.0,0.0,0.0,0.0,0.0,0.0,0.0,0.0,0.0,2.0848,2.1494,0.0,0.0,0.0,0.0,0.0,0.0,0.0,0.0,0.0,0.0,0.0,0.0,2.4149,2.4939,2.6746,2.6879,2.523,2.5512,2.501,2.3587,2.3746,2.367,2.3222,0.0,0.0,0.0,0.0,0.0,0.0,0.0,0.0,0.0,0.0,0.0,0.0,0.0,0.0,0.0,0.0,0.0,0.0,0.0,0.0,0.0,0.0,0.0,0.0,0.0,2.3785,0.0,0.0,0.0,0.0,0.0,0.0,0.0,0.0,0.0,0.0,3.2983,3.4266,3.5457,3.6149,3.688,3.7851,3.7911,3.8018,0.0,0.0,0.0,0.0,0.0,0.0,0.0,0.0,0.0,0.0,0.0,0.0,0.0,0.0,4.0399,3.6936,3.6073,3.6039,3.6577,0.0,0.0,0.0,0.0,0.0,0.0,0.0,0.0,0.0,0.0,0.0,0.0,0.0,0.0,2.0559,2.039,2.0543,0.0,0.0,0.0,0.0,0.0,0.0,0.0,0.0,2.1584,2.1884,2.1746,2.2397,2.2554,0.0,2.2823,2.3184,0.0,0.0,0.0,0.0,0.0,0.0,0.0,0.0,2.4764,2.5285,2.711,2.729,2.5777,2.5924,2.5269,2.371,2.4016,2.3951,2.3437,2.3306,2.314,0.0,0.0,0.0,0.0,0.0,0.0,0.0,0.0,0.0,0.0,0.0,0.0,0.0,0.0,0.0,0.0,0.0,0.0,0.0,0.0,0.0,0.0,0.0,2.4057,0.0,0.0,0.0,0.0,0.0,0.0,0.0,0.0,0.0,3.3921,3.4811,3.6053,3.7575,3.7599,3.7919,3.9175,0.0,0.0,0.0,0.0,0.0,0.0,0.0,3.8836,3.9066,3.9558,4.0098,4.0657,4.1827,4.2635,4.2341,0.0,0.0,3.9383,3.8578,3.8551,3.9067,3.9591,3.9955,3.9955,4.0579,4.091,0.0,0.0,0.0,0.0,0.0,0.0,0.0,0.0,2.1212,2.1253,0.0,2.145,0.0,0.0,0.0,0.0,2.1061,2.147,0.0,0.0,2.2518,2.2703,2.2678,2.2721,2.2582,2.2463,2.3786,2.4844,2.5478,2.3724,0.0,0.0,0.0,0.0,0.0,0.0,2.5569,2.5622,2.7456,2.7656,2.6129,2.6087,2.5308,2.362,2.3961,2.4199,2.419,2.386,2.3392,2.2689,2.235,0.0,0.0,0.0,0.0,0.0,0.0,0.0,0.0,0.0,0.0,0.0,0.0,0.0,0.0,0.0,0.0,0.0,0.0,0.0,0.0,2.4226,0.0,0.0,0.0,0.0,0.0,0.0,0.0,0.0,0.0,3.7192,3.6567,3.7147,3.8484,4.0747,0.0,0.0,0.0,0.0,3.9498,4.0312,4.0031,3.9914,4.0329,4.1032,4.1404,4.1207,0.0,0.0,4.247,4.2965,4.3239,4.2488,4.2983,4.3479,4.3369,4.2616,4.2197,4.2221,4.2217,4.2323,4.2378,4.2727,4.3094,2.3451,0.0,0.0,0.0,0.0,2.2948,2.2965,2.3017,2.2965,2.2779,2.2538,2.2557,0.0,0.0,0.0,0.0,0.0,0.0,2.3037,2.2905,2.3239,2.3165,2.2708,2.2947,2.3335,2.3877,2.4054,2.4954,2.6361,2.5563,2.4674,2.3823,0.0,0.0,0.0,0.0,2.6782,2.6879,2.8131,2.8226,2.7015,2.6651,2.5672,2.4036,2.4133,2.4199,2.4199,2.4103,2.3954,2.3745,2.3649,0.0,0.0,0.0,0.0,0.0,0.0,0.0,0.0,0.0,0.0,0.0,0.0,0.0,0.0,0.0,0.0,0.0,0.0,0.0,2.4989,2.5062,2.5852,0.0,0.0,0.0,0.0,0.0,0.0,0.0,0.0,0.0,3.9528,3.9932,4.0341,0.0,0.0,4.0781,4.1809,4.1617,4.1677,4.2463,4.2467,0.0,4.2555,4.228,4.2241,4.2728,4.3221,4.3423,4.3204,4.3351,4.3423,4.3167,4.3349,4.3479,4.3479,4.3314,4.3167,4.315,4.3167,4.3149,4.3167,4.3368,4.3441,2.4018,2.3733,2.3858,2.3785,2.361,2.3816,2.3896,2.3896,2.3896,2.3732,2.3483,2.3492,2.3115,2.2545,2.2837,0.0,0.0,0.0,2.4457,2.4078,2.414,2.3867,2.336,2.3703,2.4083,2.4514,2.4916,2.6003,2.7669,2.7222,2.6567,2.5793,0.0,2.5685,2.5135,2.6699,2.7505,2.7523,2.8484,2.8686,2.8022,2.6891,2.576,2.4732,2.4373,2.4199,2.4199,2.4199,2.4199,2.4199,2.4199,2.384,0.0,0.0,0.0,0.0,0.0,0.0,0.0,0.0,0.0,0.0,0.0,2.5191,2.4732,0.0,0.0,0.0,2.4961,2.5603,2.6722,2.7108,0.0,0.0,0.0,0.0,0.0,0.0,0.0,3.8099,3.9027,3.9931,4.139,4.1864,4.2047,4.2066,4.1499,4.1499,4.2616,0.0,4.258,4.3386,4.3479,4.3479,4.3479,4.3096,4.2969,4.3406,4.3479,4.3479,4.3479,4.3479,4.3479,4.3479,4.3479,4.3479,4.3479,4.3479,4.3479,4.3479,4.3479,4.3479,4.3479,4.3479,4.3479,2.4367,2.4512,2.433,2.4247,2.4228,2.4218,2.419,2.4199,2.419,2.4199,2.4199,2.4199,2.4226,2.4337,2.5136,0.0,2.5511,2.5943,2.5881,2.5493,2.5176,2.4818,2.4458,2.4836,2.4892,2.4763,2.6163,2.758,2.8907,2.8629,2.8264,2.7868,2.7163,2.6611,2.6306,2.7335,2.7908,2.7926,2.8638,2.8959,2.8876,2.6943,2.5754,2.5411,2.4695,2.4263,2.4199,2.4199,2.4199,2.4199,2.4199,2.3858,2.315,0.0,0.0,0.0,0.0,0.0,0.0,0.0,0.0,0.0,0.0,0.0,0.0,0.0,0.0,0.0,2.6374,0.0,2.9042,2.9904,0.0,0.0,0.0,3.3899,3.6413,3.7268,3.8309,3.9896,0.0,0.0,4.2387,4.3042,4.3479,4.3479,4.2213,4.1827,4.3294,4.2873,4.2653,4.3404,4.3479,4.3479,4.3479,4.3461,4.3442,4.3479,4.3479,4.3479,4.3479,4.3479,4.3479,4.3479,4.3479,4.3479,4.3479,4.3479,4.3479,4.3479,4.3479,4.3479,4.3479,4.3479,4.3479,2.4685,2.4723,2.4678,2.4567,2.4436,2.4418,2.4339,2.4199,2.4199,2.4199,2.4199,2.4199,2.453,2.5154,2.5952,2.6319,2.6327,2.6428,2.642,2.6308,2.6226,2.6016,2.5667,2.5774,2.6105,2.6645,2.7009,2.7815,2.8955,2.8918,2.8807,2.8712,2.8528,2.8102,2.746,2.8285,2.8712,2.8712,2.8913,2.8705,2.8096,2.7383,2.6492,2.5421,2.5209,2.4824,2.4226,2.4199,2.4199,2.4199,2.4199,2.4116,2.3922,2.3327,0.0,0.0,0.0,0.0,0.0,0.0,0.0,0.0,0.0,2.6715,2.5495,0.0,2.7229,0.0,2.8503,2.9751,3.0742,3.1568,0.0,0.0,3.5789,3.6615,3.9606,3.9591,3.995,4.1546,4.2066,4.2532,4.3133,4.3387,4.3479,4.3496,4.3184,4.3075,4.346,4.3351,4.3294,4.3442,4.3479,4.3479,4.3479,4.3479,4.3479,4.3479,4.3479,4.3479,4.3479,4.3479,4.3479,4.3479,4.3479,4.3479,4.3479,4.3479,4.3479,4.3479,4.3479,4.3479,4.3479,4.3479,4.3479,2.4847,2.4922,2.5308,2.517,2.4715,2.4548,2.4426,2.4321,2.4339,2.4321,2.4367,2.4709,2.527,2.598,2.6759,2.7126,2.7163,2.7501,2.7493,2.7145,2.7126,2.6918,2.6603,2.6781,2.718,2.7772,2.7955,2.8371,2.8975,2.8987,2.8987,2.8987,2.8987,2.8785,2.8363,2.8767,2.8987,2.8987,2.8987,2.8785,2.8338,2.7849,2.706,2.597,2.5944,2.5393,2.4254,2.4566,2.4566,2.4226,2.4199,2.4355,2.4702,2.4308,2.4281,0.0,0.0,0.0,0.0,0.0,0.0,0.0,0.0,0.0,0.0,0.0,2.8631,2.9359,3.0852,3.2284,3.3458,3.4633,3.6193,3.8337,3.8487,3.9294,4.1389,4.1242,4.1442,4.2684,4.2838,4.3005,4.3442,4.3479,4.3479,4.3479,4.3479,4.3479,4.3479,4.3479,4.3479,4.3479,4.3479,4.3479,4.3479,4.3479,4.3479,4.3479,4.3479,4.3479,4.3479,4.3479,4.3479,4.3479,4.3479,4.3479,4.3479,4.3479,4.3479,4.3479,4.3479,4.3479,4.3479,4.3479,4.3479,2.4924,2.5111,2.5855,2.5741,2.4991,2.4693,2.4551,2.4545,2.4632,2.4708,2.4857,2.5651,2.6291,2.6796,2.7585,2.7952,2.8007,2.8675,2.862,2.797,2.7952,2.7769,2.7447,2.7773,2.8134,2.8496,2.8821,2.8987,2.8987,2.8987,2.8987,2.9005,2.9097,2.9115,2.9005,2.9097,2.9097,2.9005,2.8987,2.8987,2.8987,2.8308,2.7585,2.6796,2.6667,2.5897,2.4456,2.5044,2.5081,2.442,2.4447,2.4812,2.5507,2.5556,2.5566,0.0,2.5556,0.0,0.0,0.0,0.0,0.0,0.0,0.0,0.0,2.9592,3.0344,3.1764,3.3311,3.4908,3.645,3.7973,3.9221,4.012,4.0836,4.1572,4.2341,4.2451,4.2708,4.3423,4.3479,4.3479,4.3479,4.3479,4.3479,4.3479,4.3479,4.3479,4.3479,4.3479,4.3479,4.3479,4.3479,4.3479,4.3479,4.3479,4.3479,4.3479,4.3479,4.3479,4.3479,4.3479,4.3479,4.3479,4.3479,4.3479,4.3479,4.3479,4.3479,4.3479,4.3479,4.3479,4.3479,4.3479,4.3479,2.5254,2.5273,2.5426,2.5383,2.5219,2.5011,2.485,2.4768,2.5265,2.5834,2.6487,2.728,2.7636,2.7633,2.8411,2.8767,2.8785,2.8932,2.8913,2.8767,2.8767,2.8744,2.8667,2.8744,2.8805,2.8887,2.897,2.8987,2.8987,2.8987,2.8987,2.9012,2.9647,2.9647,2.9078,0.0,0.0,0.0,2.8987,2.8987,2.8987,2.8858,2.8393,2.7585,2.6943,0.0,2.5227,2.5319,2.5319,2.5209,2.5805,0.0,0.0,0.0,0.0,0.0,0.0,0.0,0.0,0.0,0.0,0.0,2.9891,3.0157,3.0925,3.2729,3.3995,3.4344,3.5826,3.7199,3.8157,3.9093,4.0249,4.1662,4.1974,4.2378,4.3149,4.3259,4.3368,4.3461,4.3479,4.3479,4.3479,4.3479,4.3479,4.3479,4.3479,4.3479,4.3479,4.3479,4.3479,4.3479,4.3479,4.3479,4.3479,4.3479,4.3479,4.3479,4.3479,4.3479,4.3479,4.3479,4.3479,4.3479,4.3479,4.3479,4.3479,4.3479,4.3479,4.3479,4.3479,4.3479,4.3479,4.3479,4.3479,2.5799,2.5404,2.582,2.5731,0.0,2.5547,2.5653,2.5704,2.5911,2.6618,2.7658,2.8089,2.8303,2.8411,2.8822,2.8987,2.8987,2.8987,2.8987,2.8987,2.8987,2.8987,2.8987,2.8987,2.8987,2.8987,2.8987,2.8987,2.8987,2.8987,2.8987,2.8987,2.9409,2.961,2.9592,2.9989,2.9794,2.9005,2.8987,2.8987,2.8987,2.8987,2.862,2.7842,2.7805,0.0,0.0,0.0,0.0,0.0,0.0,0.0,0.0,0.0,0.0,2.8319,2.8492,2.8939,2.968,2.9791,3.0298,3.1508,3.2839,3.3383,3.284,3.501,3.6371,3.6281,3.7367,3.8414,3.9221,4.0029,4.0965,4.2158,4.2653,4.3057,4.3406,4.3479,4.3479,4.3479,4.3479,4.3479,4.3479,4.3479,4.3479,4.3479,4.3479,4.3479,4.3479,4.3479,4.3479,4.3479,4.3479,4.3479,4.3479,4.3479,4.3479,4.3479,4.3479,4.3479,4.3479,4.3479,4.3479,4.3479,4.3479,4.3479,4.3479,4.3479,4.3479,4.3479,4.3479,4.3479,4.3479,4.3479,4.3479,2.6587,2.5945,2.6629,2.6472,2.5818,2.6372,2.6767,2.7038,2.6864,0.0,0.0,2.8638,2.8802,2.9067,2.9028,2.8987,2.8987,2.8987,2.8987,2.8987,2.8987,2.8987,2.8987,2.8987,2.8987,2.8987,2.8987,2.8987,2.8987,2.8987,2.8987,2.9005,2.9152,2.9641,3.0356,3.0411,3.0087,2.9445,2.9152,2.8987,2.8987,2.8987,2.8675,2.8026,2.8548,2.8198,2.6888,2.7621,2.7768,2.7071,2.7152,2.7603,2.8356,2.8312,2.8922,3.0353,3.0683,3.1171,3.2016,3.2083,3.2524,3.3529,3.56,3.6325,3.5014,3.6895,3.8024,3.7808,3.8534,3.9314,4.0044,4.0898,4.1689,4.245,4.3112,4.3479,4.3479,4.3479,4.3479,4.3479,4.3479,4.3479,4.3479,4.3479,4.3479,4.3479,4.3479,4.3479,4.3479,4.3479,4.3479,4.3479,4.3479,4.3479,4.3479,4.3479,4.3479,4.3479,4.3479,4.3479,4.3479,4.3479,4.3479,4.3479,4.3479,4.3479,4.3479,4.3479,4.3479,4.3479,4.3479,4.3479,4.3479,4.3479,4.3479,2.7899,2.7746,2.7778,2.7749,2.7632,2.7657,2.8085,2.8723,2.872,2.9111,2.9764,2.9593,2.9439,2.933,2.91,2.8987,2.8987,2.8987,2.8987,2.8987,2.8987,2.8987,2.8987,2.8987,2.8987,2.8987,2.8987,2.8987,2.8987,2.9005,2.8987,2.9097,2.9696,3.0448,3.1164,3.1231,3.1176,3.1029,2.9684,2.8987,2.8987,2.8987,2.895,2.8833,2.8458,2.8061,2.7662,2.8632,2.9013,2.8705,2.9329,3.0063,3.0809,3.0203,3.0388,3.1463,3.1603,3.2096,3.3099,3.3165,3.3961,3.5684,3.6853,3.7546,3.7822,3.8496,3.8918,3.8901,3.9621,4.037,4.0917,4.1884,4.2721,4.3215,4.3423,4.3479,4.3515,4.3479,4.3479,4.3479,4.3479,4.3479,4.3479,4.3479,4.3479,4.3479,4.3479,4.3479,4.3479,4.3479,4.3479,4.3479,4.3479,4.3479,4.3479,4.3479,4.3479,4.3479,4.3479,4.3479,4.3479,4.3479,4.3479,4.3479,4.3479,4.3479,4.3479,4.3479,4.3479,4.3479,4.3479,4.3479,4.3479,4.3516,4.3534,2.8637,2.8172,2.8101,2.8018,2.8024,2.84,2.8756,2.9127,2.9602,2.9871,2.9953,2.9799,2.9589,2.9373,2.9123,2.8987,2.8987,2.9156,2.9145,2.9028,2.9156,2.9145,2.9017,2.8987,2.8987,2.8987,2.8987,2.9225,2.9629,2.9647,2.9867,3.0338,3.1109,3.1684,3.2027,3.2063,3.2045,3.2008,3.0454,2.9849,3.0283,2.9867,2.9711,2.9869,2.9994,2.9929,2.9576,3.0423,3.0864,3.0744,3.1099,3.1387,3.1591,3.1384,3.1638,3.2389,3.272,3.3308,3.4252,3.4736,3.5569,3.6887,3.782,3.8659,3.9489,3.9612,3.9576,3.9408,4.0159,4.0939,4.1591,4.2496,4.3259,4.3712,4.3775,4.3693,4.3531,4.3479,4.3479,4.3479,4.3479,4.3479,4.3479,4.3479,4.3479,4.3479,4.3479,4.3479,4.3479,4.3479,4.3479,4.3479,4.3479,4.3479,4.3479,4.3479,4.3479,4.3479,4.3479,4.3479,4.3479,4.3479,4.3479,4.3479,4.3479,4.3479,4.3479,4.3479,4.3479,4.3479,4.3479,4.3479,4.3516,4.3809,4.414,2.9471,2.8793,2.871,2.8634,2.8601,2.9147,2.939,2.9467,3.0115,3.0273,3.0075,2.9861,2.9678,2.9523,2.9217,2.9123,2.9181,2.933,2.932,2.9185,2.9373,2.9353,2.9174,2.9152,2.9263,2.9422,2.944,2.9876,3.056,3.0646,3.096,3.1607,3.2391,3.2785,3.2767,3.297,3.3081,3.2988,3.1651,3.1063,3.136,3.0779,3.0591,3.09,3.1509,3.169,3.1335,3.2088,3.2532,3.2467,3.2467,3.2458,3.2462,3.2457,3.2778,3.34,3.3874,3.4478,3.5381,3.602,3.685,3.79,3.8588,3.9412,4.0323,4.0302,4.0043,3.987,4.0689,4.1536,4.2089,4.3119,4.3831,4.4115,4.4043,4.3878,4.3662,4.3595,4.3563,4.3531,4.3546,4.3597,4.3513,4.3479,4.3479,4.3479,4.3479,4.3479,4.3479,4.3479,4.3479,4.3479,4.3479,4.3479,4.3479,4.3479,4.3479,4.3479,4.3479,4.3479,4.3479,4.3479,4.3479,4.3479,4.3479,4.3479,4.3479,4.3479,4.3479,4.3479,4.3479,4.3552,4.3828,4.4232,4.4654,3.0723,3.0644,3.0429,3.0375,3.0204,3.0235,3.0231,3.025,3.0365,3.0398,3.0317,3.0102,2.9962,2.9893,2.9533,2.9455,2.9588,2.9465,2.9484,2.9607,2.9661,2.9661,2.9672,2.9644,3.0047,3.0706,3.0781,3.1177,3.193,3.2005,3.2062,3.2204,3.2929,3.3333,3.3418,3.4085,3.4469,3.449,3.3588,3.2542,3.147,3.1342,3.1407,3.1688,3.2012,3.2147,3.2136,3.3082,3.3546,3.3318,3.3308,3.3648,3.4221,3.3714,3.3781,3.477,3.4927,3.5436,3.6411,3.6613,3.7394,3.8908,3.9189,3.9638,4.0419,4.0473,4.0356,4.0377,4.1529,4.2273,4.2257,4.3764,4.4748,4.4523,4.4261,4.3986,4.3971,4.3955,4.3833,4.3531,4.3772,4.3868,4.3597,4.3513,4.3479,4.3479,4.3479,4.3479,4.3479,4.3479,4.3479,4.3479,4.3479,4.3479,4.3479,4.3479,4.3479,4.3479,4.3479,4.3479,4.3479,4.3479,4.3479,4.3479,4.3479,4.3479,4.3479,4.3479,4.3479,4.3516,4.3571,4.3735,4.4342,4.4746,4.4874,3.0918,3.0879,3.0747,3.0614,3.0498,3.0453,3.0404,3.0404,3.0404,3.0404,3.0379,3.0273,3.015,2.9972,2.9705,2.9616,2.9696,2.9748,2.9712,2.9722,2.9821,3.0086,3.0429,3.0477,3.091,3.1665,3.1702,3.2137,3.2864,3.3421,3.3676,3.3714,3.4035,3.4167,3.4195,3.4524,3.4694,3.4694,3.4346,3.3905,3.3365,3.2839,3.2714,3.3006,3.3571,3.3731,3.3525,3.4289,3.476,3.4652,3.4625,3.4732,3.4925,3.4753,3.4773,3.5075,3.5239,3.5729,3.6654,3.718,3.7988,3.9246,3.9746,4.0169,4.0458,4.0496,4.0622,4.1189,4.2197,4.2823,4.2871,4.4307,4.5272,4.4935,4.4726,4.4574,4.4359,4.4346,4.4294,4.415,4.4061,4.3955,4.3804,4.3631,4.3513,4.3479,4.3479,4.3479,4.3479,4.3479,4.3479,4.3479,4.3479,4.3479,4.3479,4.3479,4.3479,4.3479,4.3479,4.3479,4.3479,4.3479,4.3479,4.3479,4.3479,4.3479,4.3479,4.3479,4.3479,4.3589,4.4011,4.4342,4.4672,4.5461,4.5975,3.0918,3.0879,3.0738,3.0606,3.0517,3.0425,3.0404,3.0404,3.0404,3.0404,3.0404,3.0404,3.0286,3.0102,2.9972,2.9888,2.9915,2.9962,2.9962,2.9904,3.004,3.049,3.1154,3.1184,3.1724,3.2615,3.2746,3.3166,3.3947,3.4575,3.4926,3.4926,3.4926,3.4907,3.4917,3.4926,3.4926,3.4907,3.4917,3.4926,3.4812,3.4299,3.4029,3.42,3.4761,3.4936,3.4596,3.5161,3.55,3.5481,3.55,3.5424,3.5231,3.5391,3.5398,3.5277,3.5614,3.6192,3.7007,3.7853,3.8726,3.9554,4.0189,4.0496,4.0535,4.0716,4.1131,4.1731,4.2786,4.3451,4.3566,4.4748,4.5428,4.5253,4.5161,4.4977,4.4757,4.4732,4.4682,4.4612,4.4332,4.4061,4.3881,4.3646,4.3479,4.3479,4.3479,4.3479,4.3479,4.3479,4.3479,4.3479,4.3479,4.3479,4.3479,4.3479,4.3479,4.3479,4.3479,4.3479,4.3479,4.3479,4.3479,4.3479,4.3479,4.3479,4.3479,4.3479,4.3681,4.3938,4.4469,4.513,4.5517,4.6434,4.7021,3.0918,3.0879,3.0685,3.0609,3.0604,3.0472,3.0404,3.0404,3.0404,3.0404,3.0404,3.0404,3.0398,3.0374,3.0326,3.0347,3.0318,3.0122,3.0155,3.0324,3.0393,3.0847,3.1661,3.1699,3.2532,3.3965,3.4061,3.4491,3.5285,3.5407,3.5479,3.5446,3.5424,3.5446,3.5405,3.5398,3.5446,3.5398,3.5398,3.5439,3.5439,3.5388,3.5205,3.5024,3.5066,3.52,3.5364,3.5462,3.55,3.55,3.55,3.5474,3.5467,3.5512,3.5551,3.5595,3.6224,3.7046,3.7892,3.87,3.9515,4.0265,4.0439,4.0496,4.0554,4.1185,4.1705,4.1835,4.328,4.4145,4.4316,4.5037,4.5566,4.5531,4.5292,4.5118,4.5085,4.5085,4.4919,4.4726,4.4572,4.427,4.3664,4.3513,4.3496,4.3479,4.3479,4.3479,4.3479,4.3479,4.3479,4.3479,4.3479,4.3479,4.3479,4.3479,4.3479,4.3479,4.3479,4.3479,4.3479,4.3479,4.3479,4.3479,4.3479,4.3479,4.3479,4.3663,4.3975,4.4451,4.533,4.5974,4.6324,4.6819,4.7389,3.0918,3.0898,3.0734,3.0628,3.0594,3.0503,3.046,3.0404,3.0404,3.0404,3.0404,3.0404,3.0404,3.0404,3.0401,3.0388,3.0398,3.0299,3.0311,3.0481,3.0962,3.1679,3.2468,3.3006,3.3872,3.4872,3.5026,3.5192,3.5442,3.55,3.55,3.55,3.55,3.55,3.55,3.55,3.55,3.55,3.55,3.55,3.55,3.55,3.5446,3.5369,3.5361,3.541,3.5481,3.55,3.55,3.55,3.55,3.55,3.5538,3.5981,3.6269,3.6327,3.7065,3.7911,3.87,3.9111,3.965,4.0381,4.0496,4.0496,4.0631,4.1309,4.2021,4.2689,4.3588,4.4453,4.5047,4.5441,4.5594,4.5577,4.5495,4.541,4.5419,4.5419,4.5362,4.5201,4.4895,4.4377,4.3949,4.3629,4.3496,4.3479,4.3479,4.3496,4.3496,4.3479,4.3513,4.3479,4.3479,4.3479,4.3479,4.3479,4.3479,4.3479,4.3479,4.3479,4.3479,4.3479,4.3479,4.3479,4.3479,4.3552,4.3626,4.4178,4.4453,4.4944,4.5861,4.6871,4.7058,4.761,4.7997,3.0918,3.0879,3.0767,3.0821,3.1002,3.0952,3.1047,3.1185,3.1212,3.1192,3.1135,3.0667,3.0533,3.0731,3.0519,3.0404,3.0404,3.0404,3.0558,3.0865,3.1423,3.2256,3.3276,3.3936,3.4661,3.5365,3.55,3.55,3.55,3.55,3.55,3.55,3.55,3.55,3.55,3.55,3.55,3.55,3.55,3.55,3.55,3.55,3.55,3.55,3.55,3.55,3.55,3.55,3.55,3.55,3.55,3.5615,3.5904,3.6404,3.6827,3.7161,3.795,3.8661,3.9227,3.9534,3.9938,4.0419,4.0496,4.0496,4.0573,4.1547,4.2452,4.3151,4.4154,4.5019,4.5413,4.5594,4.5594,4.5594,4.5594,4.5594,4.5594,4.5586,4.5541,4.5362,4.5044,4.4561,4.4091,4.382,4.3629,4.3512,4.3599,4.3629,4.3531,4.3595,4.3614,4.3531,4.3479,4.3479,4.3479,4.3479,4.3479,4.3479,4.3479,4.3479,4.3479,4.3479,4.3479,4.3479,4.357,4.3662,4.4012,4.46,4.5111,4.5547,4.6751,4.7981,4.8188,4.8406,4.8664,3.0957,3.0957,3.0786,3.1233,3.1761,3.1813,3.2206,3.264,3.2737,3.2622,3.2391,3.1226,3.1039,3.1346,3.075,3.0417,3.0519,3.0558,3.0865,3.1429,3.1698,3.2583,3.3936,3.4218,3.4737,3.5481,3.55,3.55,3.55,3.55,3.55,3.55,3.55,3.55,3.55,3.55,3.55,3.55,3.55,3.55,3.55,3.55,3.55,3.55,3.55,3.55,3.55,3.55,3.55,3.55,3.55,3.5885,3.6481,3.675,3.7142,3.7988,3.8815,3.9265,3.9438,4.0035,4.0381,4.0496,4.0496,4.0496,4.0708,4.1979,4.3007,4.3267,4.4509,4.5575,4.5575,4.5594,4.5594,4.5594,4.5594,4.5594,4.5594,4.5594,4.5485,4.5244,4.5082,4.4764,4.4261,4.3986,4.3833,4.3679,4.3726,4.382,4.3612,4.3726,4.3772,4.3612,4.3513,4.3479,4.3479,4.3479,4.3479,4.3479,4.3479,4.3479,4.3479,4.3479,4.3479,4.3515,4.3825,4.3953,4.4433,4.5076,4.6153,4.6845,4.8068,4.8803,4.8974,4.9059,4.9143,3.1816,3.1855,3.2342,3.2275,3.2023,3.2518,3.2836,3.2904,3.2891,3.2891,3.2795,3.2365,3.1981,3.1538,3.079,3.0738,3.1275,3.1269,3.1141,3.1096,3.2006,3.2795,3.3487,3.4545,3.5231,3.5462,3.55,3.55,3.55,3.55,3.55,3.55,3.55,3.55,3.55,3.55,3.55,3.55,3.55,3.55,3.55,3.55,3.55,3.55,3.55,3.55,3.55,3.55,3.55,3.55,3.55,3.5865,3.6615,3.7276,3.7988,3.8834,3.9669,4.0131,4.015,4.0323,4.0496,4.0496,4.0496,4.0496,4.0669,4.2102,4.3046,4.3247,4.4586,4.5594,4.5594,4.5594,4.5594,4.5594,4.5594,4.5594,4.5594,4.5594,4.554,4.5447,4.5253,4.4997,4.4735,4.4409,4.3998,4.3833,4.3788,4.3726,4.382,4.3788,4.3756,4.3788,4.3644,4.3515,4.3479,4.3479,4.3479,4.3548,4.3565,4.3597,4.358,4.3646,4.3631,4.3676,4.3986,4.4413,4.4892,4.5662,4.6743,4.7677,4.8514,4.9036,4.9403,4.9566,4.9589,3.248,3.2266,3.2734,3.278,3.2469,3.3008,3.3486,3.3842,3.3878,3.3885,3.3872,3.3866,3.3404,3.2583,3.1718,3.1642,3.2122,3.2141,3.1872,3.1577,3.2679,3.3506,3.391,3.4923,3.55,3.55,3.55,3.55,3.55,3.55,3.55,3.55,3.55,3.55,3.55,3.55,3.55,3.55,3.55,3.55,3.55,3.55,3.55,3.55,3.55,3.55,3.5519,3.5824,3.5849,3.5578,3.55,3.6019,3.7084,3.7738,3.8507,3.9592,4.0169,4.0477,4.0496,4.0477,4.0496,4.0496,4.0496,4.0496,4.0812,4.2102,4.3046,4.3313,4.4613,4.5594,4.5594,4.5594,4.5594,4.5594,4.5594,4.5594,4.5594,4.5594,4.5594,4.5538,4.5413,4.5247,4.4998,4.4775,4.4257,4.4073,4.4043,4.3927,4.4087,4.4091,4.4102,4.4038,4.3824,4.3674,4.3515,4.3479,4.3479,4.3563,4.3647,4.371,4.3756,4.3974,4.405,4.405,4.4245,4.4851,4.5369,4.6232,4.7206,4.8088,4.8965,4.9428,4.9832,4.9911,4.9962,3.3027,3.2363,3.2363,3.2806,3.3216,3.3312,3.4054,3.5241,3.54,3.5308,3.5353,3.5046,3.4738,3.4032,3.2923,3.266,3.2949,3.2968,3.3064,3.3237,3.391,3.4584,3.5192,3.5404,3.5481,3.55,3.55,3.55,3.55,3.55,3.55,3.55,3.55,3.55,3.55,3.55,3.55,3.55,3.5501,3.5515,3.5494,3.5515,3.5502,3.5502,3.5522,3.5515,3.5624,3.6173,3.6367,3.5785,3.5894,3.6614,3.7769,3.8101,3.8907,4.0296,4.0512,4.0527,4.0519,4.0534,4.0519,4.0496,4.0496,4.0554,4.087,4.2152,4.3181,4.3363,4.469,4.5594,4.5594,4.5594,4.5594,4.5594,4.5594,4.5594,4.5594,4.5594,4.5594,4.5594,4.5577,4.5495,4.5182,4.5066,4.4701,4.4341,4.4476,4.4382,4.4332,4.4318,4.4548,4.4393,4.4132,4.3845,4.3686,4.3496,4.3513,4.3597,4.3761,4.3958,4.4001,4.4223,4.4266,4.428,4.4802,4.5378,4.5974,4.6801,4.7774,4.8821,4.9495,4.993,5.0147,5.0237,5.0272,3.4219,3.4043,3.4043,3.3764,3.3434,3.3899,3.4291,3.4714,3.5284,3.5456,3.5353,3.4603,3.4359,3.4083,3.2955,3.2865,3.366,3.3853,3.4257,3.4795,3.5,3.5231,3.5462,3.55,3.55,3.55,3.55,3.55,3.55,3.55,3.55,3.55,3.55,3.55,3.55,3.55,3.55,3.5508,3.5558,3.5546,3.5528,3.5611,3.5611,3.5588,3.5626,3.5653,3.5661,3.5865,3.662,3.7536,3.7566,3.8035,3.8963,3.9116,3.9558,4.0403,4.0686,4.0639,4.0554,4.0596,4.0615,4.0512,4.0577,4.0758,4.145,4.246,4.3327,4.3968,4.5017,4.5594,4.5594,4.5594,4.5594,4.5594,4.5594,4.5594,4.5594,4.5594,4.5594,4.5594,4.5594,4.5531,4.5438,4.5243,4.4954,4.4561,4.4428,4.4449,4.4468,4.4373,4.4508,4.4655,4.4458,4.4141,4.3855,4.3617,4.3548,4.3631,4.3868,4.4266,4.4308,4.4392,4.429,4.4151,4.5504,4.6288,4.6671,4.7242,4.8358,4.9341,4.9547,4.9787,5.0325,5.0554,5.0544,3.4707,3.4629,3.3945,3.3748,3.3812,3.3592,3.3981,3.4781,3.4936,3.5188,3.5264,3.4846,3.4596,3.4622,3.3916,3.3962,3.468,3.4757,3.5026,3.5365,3.5462,3.5481,3.55,3.55,3.55,3.55,3.55,3.55,3.55,3.55,3.55,3.55,3.55,3.55,3.55,3.5481,3.5509,3.5559,3.5593,3.5585,3.5595,3.5659,3.5667,3.565,3.5702,3.5837,3.6237,3.6342,3.6838,3.7556,3.7799,3.8311,3.9466,3.9622,3.9949,4.0655,4.0793,4.0752,4.0674,4.069,4.069,4.0732,4.0861,4.1347,4.1989,4.2892,4.3888,4.4267,4.5105,4.5518,4.5594,4.5594,4.5594,4.5594,4.5594,4.5594,4.5594,4.5594,4.5594,4.5594,4.5594,4.5594,4.5594,4.5419,4.5161,4.4896,4.4682,4.472,4.4745,4.4561,4.4508,4.4752,4.4769,4.4452,4.4085,4.3824,4.3667,4.3732,4.4035,4.4447,4.4751,4.4801,4.4928,4.5181,4.63,4.7136,4.7411,4.7752,4.8464,4.9161,4.936,4.9719,5.0249,5.0683,5.0683,3.4844,3.4707,3.3125,3.332,3.4297,3.2949,3.3544,3.5104,3.4742,3.482,3.5316,3.5399,3.5207,3.5481,3.4942,3.5308,3.5442,3.5365,3.5404,3.55,3.55,3.55,3.55,3.55,3.55,3.55,3.55,3.55,3.55,3.55,3.55,3.55,3.55,3.5501,3.5515,3.5515,3.5552,3.5616,3.5654,3.5655,3.5678,3.5707,3.5747,3.5707,3.5747,3.6111,3.6684,3.7022,3.7225,3.7208,3.7221,3.835,3.9633,3.9815,4.0116,4.0649,4.0864,4.0857,4.0797,4.0809,4.0821,4.0881,4.151,4.2072,4.2389,4.3423,4.4275,4.4566,4.5171,4.5518,4.5594,4.5594,4.5594,4.5594,4.5594,4.5594,4.5594,4.5594,4.5594,4.5594,4.5594,4.5594,4.5594,4.5577,4.5467,4.5041,4.4908,4.4919,4.4943,4.4884,4.4912,4.5107,4.5014,4.4783,4.4417,4.4031,4.3906,4.3883,4.4246,4.4676,4.5288,4.5513,4.5827,4.6374,4.7188,4.7712,4.7984,4.8415,4.895,4.9273,4.9663,4.9882,5.0128,5.0525,5.0683,3.5723,3.5644,3.459,3.4355,3.4473,3.3555,3.3686,3.4805,3.4555,3.4824,3.5314,3.4905,3.4948,3.5468,3.4898,3.4834,3.5442,3.55,3.55,3.55,3.55,3.55,3.5507,3.5514,3.5488,3.5481,3.55,3.55,3.55,3.55,3.5488,3.5494,3.5515,3.5534,3.5571,3.5588,3.5616,3.5687,3.5774,3.5758,3.5708,3.5827,3.5878,3.5816,3.5858,3.6016,3.6348,3.6913,3.7575,3.8242,3.8867,3.957,4.0488,4.0762,4.084,4.0898,4.1035,4.1002,4.087,4.0886,4.0914,4.0914,4.1655,4.2279,4.2944,4.3786,4.4619,4.5114,4.5498,4.5594,4.5594,4.5594,4.5594,4.5594,4.5594,4.5594,4.5594,4.5594,4.5594,4.5594,4.5594,4.5594,4.5594,4.5594,4.5438,4.518,4.5115,4.5115,4.5126,4.5137,4.5211,4.5332,4.5256,4.5005,4.4638,4.4263,4.4016,4.4005,4.4346,4.4739,4.5359,4.6115,4.6398,4.7068,4.7937,4.8341,4.8689,4.9089,4.9607,4.9807,4.9929,5.0063,5.0241,5.0544,5.0683,3.5391,3.5254,3.4043,3.375,3.3848,3.2787,3.3106,3.4298,3.4094,3.4598,3.5273,3.4696,3.4775,3.5443,3.4681,3.468,3.5334,3.55,3.55,3.55,3.5488,3.5509,3.554,3.5553,3.5515,3.5508,3.55,3.55,3.55,3.5501,3.5509,3.5546,3.5526,3.5579,3.5624,3.5661,3.5717,3.5789,3.5847,3.5859,3.5853,3.5912,3.5976,3.5911,3.5957,3.6016,3.6094,3.6855,3.7715,3.8574,3.9453,4.0293,4.1016,4.1191,4.1152,4.1133,4.1152,4.1152,4.1051,4.1031,4.1056,4.1029,4.2048,4.2805,4.3573,4.4343,4.5128,4.5553,4.5632,4.5594,4.5594,4.5594,4.5594,4.5594,4.5594,4.5594,4.5594,4.5594,4.5594,4.5594,4.5594,4.5594,4.5594,4.5594,4.5577,4.5362,4.5148,4.5148,4.5302,4.5312,4.5332,4.5381,4.5398,4.5218,4.4839,4.4476,4.4097,4.4132,4.435,4.4732,4.5199,4.6071,4.6925,4.7578,4.8191,4.9107,4.9501,4.9904,5.0006,5.0023,5.0087,5.0226,5.0358,5.0514,5.0634,3.4804,3.459,3.3164,3.2988,3.3281,3.207,3.277,3.4528,3.3742,3.4185,3.5139,3.4563,3.4533,3.5073,3.46,3.4745,3.5323,3.5522,3.5522,3.5558,3.5544,3.5577,3.5606,3.5611,3.5595,3.5534,3.554,3.554,3.554,3.5534,3.5577,3.5606,3.5602,3.5646,3.5726,3.5749,3.5799,3.5889,3.5916,3.5925,3.5976,3.5996,3.5996,3.5996,3.5996,3.6152,3.6445,3.7148,3.7949,3.8769,3.9629,4.041,4.0957,4.1191,4.1191,4.1191,4.1191,4.1191,4.1172,4.1191,4.125,4.1367,4.2675,4.3585,4.4039,4.488,4.5556,4.5696,4.5685,4.5594,4.5594,4.5594,4.5594,4.5594,4.5594,4.5594,4.5594,4.5594,4.5594,4.5594,4.5594,4.5594,4.5594,4.5594,4.5594,4.5568,4.5332,4.5222,4.5381,4.5457,4.5457,4.5466,4.5491,4.5207,4.483,4.4474,4.4129,4.4202,4.4373,4.4745,4.5173,4.6118,4.7002,4.7645,4.8346,4.9245,4.9874,5.0038,5.0122,5.0141,5.0247,5.0396,5.0464,5.0504,5.0585,3.5303,3.4687,3.4394,3.4355,3.4277,3.3359,3.3867,3.5292,3.3945,3.3895,3.4581,3.3901,3.3916,3.4458,3.4459,3.4775,3.5375,3.5574,3.5606,3.5657,3.5646,3.5652,3.5671,3.5682,3.569,3.5722,3.5714,3.5671,3.5655,3.5659,3.5678,3.5675,3.5682,3.5746,3.5836,3.5873,3.5892,3.5957,3.5976,3.5996,3.5996,3.6016,3.6016,3.6035,3.6094,3.6426,3.7109,3.791,3.8789,3.9648,4.0508,4.0976,4.1152,4.1191,4.1191,4.1191,4.1191,4.1191,4.1191,4.1211,4.1562,4.2187,4.3071,4.3927,4.457,4.5324,4.5793,4.577,4.5692,4.5603,4.5594,4.5629,4.5603,4.5603,4.5594,4.5594,4.5594,4.5594,4.5594,4.5594,4.5594,4.5594,4.5594,4.5594,4.5594,4.5594,4.5495,4.541,4.5495,4.5531,4.554,4.5568,4.5566,4.5173,4.4732,4.4419,4.4121,4.4223,4.4428,4.4745,4.5325,4.6215,4.7011,4.7463,4.827,4.9259,4.9747,5.0068,5.0321,5.0432,5.0518,5.0565,5.0575,5.0585,5.0624,3.4742,3.3936,3.3573,3.3144,3.2695,3.2305,3.3086,3.4336,3.3359,3.3475,3.3936,3.3356,3.3372,3.4111,3.3918,3.4419,3.5394,3.565,3.5683,3.5703,3.5707,3.5752,3.578,3.5805,3.5847,3.588,3.5866,3.5812,3.5752,3.57,3.5752,3.5799,3.5805,3.5853,3.5923,3.5949,3.5976,3.6016,3.6016,3.6016,3.6016,3.6016,3.6016,3.6094,3.6465,3.6894,3.7402,3.8672,3.9414,3.9961,4.0742,4.1113,4.1191,4.1191,4.1191,4.1191,4.1191,4.1191,4.1191,4.123,4.1543,4.2324,4.3183,4.4014,4.4826,4.5511,4.5912,4.5814,4.5756,4.5719,4.5708,4.5712,4.57,4.5685,4.5632,4.5603,4.5594,4.5594,4.5594,4.5594,4.5594,4.5594,4.5594,4.5594,4.5594,4.5594,4.5594,4.5594,4.5594,4.5594,4.5594,4.5594,4.5575,4.5304,4.4924,4.4657,4.4304,4.4318,4.4508,4.483,4.5238,4.6042,4.657,4.6991,4.7981,4.9308,4.9673,5.0017,5.0365,5.0683,5.0663,5.0634,5.0673,5.0683,5.0683,3.4074,3.3246,3.2517,3.1797,3.1211,3.1172,3.2051,3.3047,3.2598,3.293,3.3867,3.2864,3.2951,3.3952,3.4189,3.4542,3.5729,3.5749,3.5764,3.5785,3.5788,3.5828,3.5907,3.5938,3.5937,3.5976,3.5976,3.5957,3.5867,3.579,3.5847,3.5887,3.5914,3.5926,3.5976,3.5996,3.6016,3.6016,3.6016,3.6016,3.6016,3.6016,3.6133,3.6269,3.6934,3.7422,3.8125,3.9101,3.9902,4.0332,4.082,4.1191,4.1191,4.1191,4.1191,4.1191,4.1191,4.1191,4.1191,4.1211,4.1641,4.2695,4.332,4.418,4.5115,4.5774,4.6034,4.5878,4.5808,4.5796,4.5783,4.5809,4.579,4.5749,4.5661,4.5594,4.5594,4.5594,4.5594,4.5594,4.5594,4.5594,4.5594,4.5594,4.5594,4.5594,4.5594,4.5594,4.5594,4.5594,4.5594,4.5594,4.5537,4.5393,4.517,4.5042,4.4688,4.4501,4.4707,4.5007,4.5305,4.5707,4.6253,4.699,4.8279,4.9433,4.9692,5.0019,5.0433,5.0683,5.0683,5.0683,5.0683,5.0683,5.0683,3.4035,3.3246,3.2516,3.2129,3.2012,3.1953,3.248,3.3184,3.2461,3.2285,3.2695,3.2383,3.2715,3.3746,3.5073,3.5603,3.5836,3.5877,3.589,3.5927,3.5937,3.5937,3.5996,3.5996,3.5996,3.6016,3.6016,3.5996,3.5957,3.5937,3.5957,3.5976,3.5976,3.5976,3.5996,3.6016,3.6016,3.6016,3.6016,3.6035,3.6074,3.6094,3.6484,3.7012,3.7461,3.8066,3.9141,3.9844,4.0254,4.0918,4.1094,4.1191,4.1191,4.1191,4.1191,4.1191,4.1191,4.1191,4.1191,4.1211,4.1894,4.3008,4.3633,4.457,4.5527,4.598,4.6039,4.5907,4.59,4.5881,4.5844,4.5803,4.5809,4.5768,4.5685,4.561,4.5594,4.5594,4.5594,4.5594,4.5594,4.5594,4.5594,4.5594,4.5594,4.5594,4.5594,4.5594,4.5594,4.5594,4.5594,4.5594,4.5594,4.5451,4.5376,4.5246,4.5093,4.4769,4.4943,4.5199,4.5455,4.5832,4.6522,4.7394,4.8644,4.9519,4.9846,5.0192,5.0558,5.0683,5.0683,5.0683,5.0683,5.0683,5.0683,3.4225,3.3863,3.2609,3.2124,3.2129,3.168,3.1934,3.2422,3.1836,3.1758,3.2129,3.2207,3.2891,3.416,3.5465,3.5951,3.5957,3.5957,3.5976,3.5996,3.6016,3.6016,3.6016,3.6016,3.6016,3.6016,3.6016,3.6016,3.6016,3.6016,3.6016,3.6016,3.6016,3.5996,3.6016,3.6016,3.6016,3.6016,3.6055,3.6269,3.6582,3.6777,3.7148,3.8008,3.8457,3.916,3.9766,4.0469,4.0742,4.1191,4.1191,4.1191,4.1191,4.1191,4.1191,4.1191,4.1191,4.1191,4.1191,4.1191,4.2148,4.3223,4.3828,4.4473,4.5781,4.6177,4.6087,4.603,4.6024,4.5997,4.597,4.5896,4.5866,4.5819,4.5718,4.5624,4.5594,4.5594,4.5594,4.5594,4.5594,4.5594,4.5594,4.5594,4.5594,4.5594,4.5594,4.5594,4.5594,4.5594,4.5594,4.5594,4.5575,4.5537,4.55,4.5437,4.5428,4.5243,4.5243,4.5477,4.564,4.607,4.6856,4.7682,4.8721,4.9442,4.9933,5.0317,5.0654,5.0683,5.0683,5.0683,5.0683,5.0683,5.0683,3.4672,3.4598,3.3017,3.2265,3.2107,3.1484,3.1465,3.1738,3.123,3.1289,3.1875,3.2324,3.3359,3.4629,3.5527,3.5996,3.6016,3.6016,3.6016,3.6016,3.6016,3.6016,3.6016,3.6016,3.6016,3.6016,3.6016,3.6016,3.6016,3.6016,3.6016,3.6016,3.6016,3.6016,3.6016,3.6016,3.6016,3.6016,3.6016,3.6445,3.707,3.7226,3.791,3.875,3.9512,4.0,4.0312,4.0762,4.1152,4.1191,4.1191,4.1191,4.1191,4.1191,4.1191,4.1191,4.1191,4.1191,4.1191,4.1348,4.2148,4.3203,4.4297,4.5098,4.5937,4.6191,4.6117,4.6106,4.6144,4.612,4.6084,4.5992,4.5952,4.5857,4.5757,4.5673,4.5593,4.5603,4.5594,4.5594,4.5594,4.5594,4.5594,4.5594,4.5594,4.5594,4.5594,4.5594,4.5594,4.5594,4.5594,4.5594,4.5594,4.5575,4.5566,4.5558,4.5594,4.5594,4.5594,4.5624,4.5713,4.6454,4.7385,4.8202,4.8913,4.9692,5.0385,5.0558,5.0683,5.0683,5.0683,5.0683,5.0683,5.0683,5.0683,3.5462,3.5389,3.3855,3.2755,3.2061,3.2087,3.166,3.1133,3.0976,3.0976,3.1426,3.2519,3.3652,3.4707,3.543,3.5898,3.6016,3.6016,3.6016,3.6016,3.6016,3.6016,3.6016,3.6016,3.6016,3.6016,3.6016,3.6016,3.6016,3.6016,3.6016,3.6016,3.6016,3.6016,3.6016,3.6016,3.6016,3.6016,3.6016,3.6523,3.7168,3.7578,3.8203,3.9473,3.9941,4.0254,4.1016,4.1152,4.1191,4.1191,4.1191,4.1191,4.1191,4.1191,4.1191,4.1191,4.1191,4.1191,4.1191,4.1308,4.2109,4.3555,4.4941,4.584,4.623,4.6289,4.623,4.6145,4.6201,4.6201,4.6147,4.606,4.6005,4.5931,4.5836,4.5728,4.5657,4.5584,4.5603,4.5594,4.5594,4.5594,4.5594,4.5594,4.5594,4.5594,4.5594,4.5594,4.5594,4.5594,4.5594,4.5594,4.5594,4.5594,4.5594,4.5594,4.5594,4.5594,4.5594,4.5594,4.5624,4.6586,4.7538,4.8336,4.899,4.9923,5.0673,5.0693,5.0683,5.0683,5.0683,5.0683,5.0683,5.0683,5.0683,3.5521,3.543,3.4354,3.3484,3.2758,3.236,3.1699,3.0996,3.0918,3.123,3.1719,3.2422,3.3418,3.4512,3.498,3.5527,3.5937,3.6016,3.6016,3.6016,3.6016,3.6016,3.6016,3.6016,3.6016,3.6016,3.6016,3.6016,3.6016,3.6016,3.6016,3.6016,3.6016,3.6016,3.6016,3.6016,3.6016,3.6016,3.6152,3.6641,3.7851,3.8184,3.8926,4.0527,4.0703,4.082,4.1133,4.1191,4.1191,4.1191,4.1191,4.1191,4.1191,4.1191,4.1191,4.1191,4.1191,4.1191,4.125,4.1328,4.1973,4.3594,4.5195,4.6289,4.6289,4.6289,4.6269,4.6268,4.6269,4.6269,4.6246,4.6149,4.6053,4.5981,4.591,4.5815,4.573,4.5657,4.5612,4.5603,4.5594,4.5594,4.5594,4.5594,4.5594,4.5594,4.5594,4.5594,4.5594,4.5594,4.5594,4.5594,4.5594,4.5594,4.5594,4.5594,4.5594,4.5594,4.5594,4.5594,4.5671,4.6374,4.7308,4.8163,4.9009,4.9837,5.0404,5.0616,5.0683,5.0683,5.0683,5.0683,5.0683,5.0683,5.0683,3.55,3.5386,3.4643,3.3879,3.3156,3.2436,3.1614,3.0915,3.084,3.1367,3.2207,3.2461,3.332,3.4453,3.5078,3.5391,3.5898,3.6016,3.6016,3.6016,3.6016,3.6016,3.6016,3.6016,3.6016,3.6016,3.6016,3.6016,3.6016,3.6016,3.6016,3.6016,3.6016,3.6016,3.6016,3.6016,3.6016,3.6016,3.6152,3.6894,3.8301,3.8633,3.9394,4.084,4.1113,4.1133,4.1172,4.1191,4.1191,4.1191,4.1191,4.1191,4.1191,4.1191,4.1191,4.1191,4.1191,4.1191,4.1269,4.1875,4.2558,4.416,4.541,4.6152,4.6289,4.6289,4.6289,4.6289,4.6289,4.6289,4.6289,4.6223,4.6122,4.6069,4.6008,4.592,4.5796,4.573,4.5668,4.5612,4.5603,4.5594,4.5594,4.5594,4.5594,4.5594,4.5594,4.5594,4.5594,4.5594,4.5594,4.5594,4.5594,4.5594,4.5594,4.5594,4.5594,4.5594,4.5594,4.5594,4.5825,4.6432,4.7115,4.8029,4.8894,4.9702,5.0221,5.0587,5.0683,5.0683,5.0683,5.0683,5.0683,5.0683,5.0683,3.5481,3.5405,3.4599,3.3747,3.2903,3.2214,3.1456,3.0773,3.0739,3.1222,3.2109,3.2793,3.3652,3.4609,3.5195,3.5703,3.5937,3.6016,3.6016,3.6016,3.5996,3.5996,3.5996,3.5996,3.5996,3.6016,3.6016,3.6016,3.6016,3.6016,3.6016,3.5996,3.5996,3.5996,3.6016,3.6016,3.6016,3.6016,3.6016,3.7012,3.8203,3.8613,3.957,4.0781,4.1191,4.1191,4.1191,4.1191,4.1191,4.1191,4.1191,4.1191,4.1191,4.1191,4.1191,4.1191,4.1191,4.1211,4.1328,4.2734,4.3672,4.4531,4.5547,4.623,4.6289,4.6289,4.6289,4.6289,4.6289,4.6289,4.6289,4.6289,4.6211,4.6147,4.6097,4.5986,4.5875,4.5789,4.5715,4.5637,4.5603,4.5594,4.5594,4.5594,4.5594,4.5594,4.5594,4.5594,4.5594,4.5594,4.5594,4.5594,4.5594,4.5594,4.5594,4.5594,4.5594,4.5594,4.5594,4.5594,4.5748,4.6163,4.6951,4.7875,4.8413,4.8933,4.9817,5.0664,5.0664,5.0683,5.0683,5.0683,5.0683,5.0683,5.0683,3.518,3.4571,3.3723,3.2893,3.2155,3.1988,3.1423,3.0745,3.0723,3.0966,3.1445,3.2226,3.3066,3.3906,3.4805,3.5508,3.5957,3.6016,3.6016,3.5996,3.595,3.5976,3.5974,3.593,3.5951,3.5996,3.6016,3.5996,3.6016,3.5996,3.6016,3.5996,3.593,3.5957,3.5976,3.5973,3.5937,3.5976,3.6113,3.6758,3.8359,3.8691,3.9394,4.1074,4.1172,4.1191,4.1172,4.1152,4.1152,4.1172,4.1172,4.1191,4.1191,4.1191,4.1191,4.1191,4.1211,4.1484,4.1836,4.2695,4.3164,4.4238,4.5371,4.6152,4.6289,4.6289,4.6289,4.6289,4.6289,4.6289,4.6289,4.6289,4.625,4.623,4.6167,4.6027,4.59,4.5846,4.5754,4.566,4.5594,4.5594,4.5594,4.5594,4.5594,4.5594,4.5594,4.5594,4.5594,4.5594,4.5594,4.5594,4.5594,4.5594,4.5594,4.5594,4.5594,4.5594,4.5594,4.5594,4.5806,4.599,4.6509,4.7278,4.7682,4.8125,4.9317,5.0317,5.0587,5.0683,5.0683,5.0683,5.0683,5.0683,5.0683,3.4276,3.366,3.2833,3.2199,3.1709,3.1482,3.1037,3.0633,3.0665,3.0872,3.1426,3.2207,3.3086,3.3906,3.4702,3.5243,3.5903,3.5898,3.5898,3.5879,3.5857,3.5857,3.5862,3.5862,3.5889,3.5948,3.5972,3.5957,3.5976,3.5957,3.5918,3.5879,3.5857,3.5855,3.5864,3.5857,3.584,3.5859,3.5996,3.668,3.7949,3.873,3.9355,4.0566,4.1074,4.1113,4.1074,4.1055,4.1056,4.1059,4.1084,4.1128,4.1129,4.1172,4.1191,4.1191,4.125,4.1484,4.1797,4.2344,4.291,4.3769,4.5098,4.5898,4.6191,4.6289,4.6289,4.6289,4.6289,4.6289,4.6289,4.6289,4.6289,4.6269,4.623,4.6094,4.5981,4.5915,4.5815,4.5711,4.5603,4.5603,4.5594,4.5594,4.5594,4.5594,4.5594,4.5594,4.5594,4.5594,4.5594,4.5594,4.5594,4.5594,4.5594,4.5594,4.5594,4.5594,4.5594,4.5594,4.5614,4.5806,4.624,4.6663,4.7182,4.7894,4.9096,4.9923,5.0452,5.0683,5.0683,5.0683,5.0683,5.0683,5.0683,3.291,3.2776,3.2045,3.1679,3.1506,3.0824,3.049,3.0511,3.0565,3.1074,3.1924,3.2726,3.3542,3.4475,3.5392,3.576,3.5725,3.5732,3.5735,3.5723,3.5733,3.5746,3.5755,3.5735,3.5814,3.5875,3.5889,3.5913,3.5903,3.588,3.5799,3.5729,3.573,3.5719,3.5716,3.5705,3.5719,3.5747,3.5833,3.6715,3.7982,3.8446,3.936,4.0374,4.0928,4.0947,4.0908,4.0864,4.0857,4.0874,4.0922,4.0966,4.103,4.1127,4.1172,4.1191,4.1191,4.1269,4.1406,4.1973,4.2754,4.3574,4.4433,4.5332,4.6016,4.6289,4.6289,4.6289,4.6289,4.6289,4.6289,4.6289,4.6289,4.6289,4.6289,4.6191,4.6094,4.5994,4.5901,4.577,4.5657,4.562,4.5594,4.5594,4.5594,4.5594,4.5594,4.5594,4.5594,4.5594,4.5594,4.5594,4.5594,4.5594,4.5594,4.5594,4.5594,4.5594,4.5594,4.5594,4.5594,4.5633,4.5951,4.6355,4.6817,4.7605,4.8721,4.9721,5.0567,5.0683,5.0683,5.0683,5.0683,5.0683,5.0683,3.2666,3.2301,3.1872,3.1352,3.0788,3.05,3.0436,3.0498,3.0521,3.0762,3.1086,3.2588,3.3348,3.3713,3.5079,3.5606,3.5691,3.5703,3.5707,3.5682,3.5638,3.5735,3.5743,3.5723,3.5777,3.5843,3.5873,3.5834,3.5786,3.5758,3.5709,3.5648,3.563,3.5601,3.5588,3.5562,3.5631,3.5663,3.5628,3.6642,3.7759,3.8263,3.9322,4.0237,4.0793,4.0805,4.0781,4.0773,4.0773,4.0801,4.082,4.0877,4.0998,4.1051,4.1074,4.1191,4.1191,4.1211,4.125,4.1426,4.2148,4.3281,4.3965,4.4922,4.5742,4.625,4.6269,4.6289,4.6289,4.6289,4.6289,4.6289,4.6289,4.6289,4.6289,4.625,4.6145,4.6069,4.5959,4.5796,4.5677,4.5637,4.562,4.5594,4.5594,4.5594,4.5594,4.5594,4.5594,4.5594,4.5594,4.5594,4.5594,4.5594,4.5594,4.5594,4.5594,4.5594,4.5594,4.5594,4.5594,4.5652,4.5768,4.6172,4.6835,4.748,4.8221,4.9317,5.0625,5.0683,5.0683,5.0683,5.0683,5.0683,5.0683,3.1616,3.1429,3.1256,3.0865,3.0462,3.0404,3.0422,3.0457,3.0443,3.0494,3.0745,3.2174,3.2796,3.3005,3.4618,3.5471,3.5103,3.5471,3.5626,3.56,3.5516,3.5621,3.5668,3.5678,3.5678,3.5758,3.5785,3.5744,3.5686,3.5645,3.559,3.5554,3.5556,3.554,3.5528,3.5515,3.5559,3.5577,3.5783,3.6485,3.7268,3.8088,3.9097,4.0024,4.0485,4.0709,4.0687,4.0687,4.0682,4.0692,4.0722,4.0794,4.0877,4.0899,4.0925,4.1035,4.1094,4.1094,4.1133,4.1191,4.1992,4.2871,4.3535,4.4433,4.5332,4.5996,4.6172,4.6289,4.6289,4.6289,4.6289,4.6289,4.6289,4.6289,4.6289,4.6269,4.62,4.6122,4.5986,4.582,4.5733,4.5665,4.5627,4.562,4.5594,4.5594,4.5594,4.5594,4.5594,4.5594,4.5594,4.5594,4.5594,4.5594,4.5594,4.5594,4.5594,4.5594,4.5594,4.5594,4.5594,4.5614,4.5691,4.6285,4.7034,4.7633,4.8211,4.9567,5.0683,5.0683,5.0683,5.0683,5.0683,5.0683,5.0683,3.0162,3.0399,3.0398,3.0442,3.0404,3.0404,3.039,3.0404,3.0416,3.0425,3.0708,3.1766,3.2183,3.2425,3.394,3.4502,3.4413,3.4686,3.5039,3.5341,3.5226,3.5302,3.5538,3.5534,3.5614,3.5611,3.5621,3.564,3.5593,3.555,3.5528,3.55,3.5501,3.5494,3.5488,3.55,3.5509,3.5528,3.565,3.6113,3.698,3.7771,3.8568,3.9513,4.0171,4.0649,4.0552,4.0512,4.0496,4.0564,4.0615,4.068,4.0731,4.0779,4.0824,4.0838,4.093,4.0994,4.1049,4.1104,4.164,4.2441,4.3203,4.4141,4.5039,4.5918,4.623,4.6289,4.6289,4.6289,4.6289,4.6289,4.6289,4.6289,4.6289,4.6289,4.625,4.6152,4.604,4.5894,4.58,4.5731,4.568,4.5648,4.5594,4.5594,4.5594,4.5594,4.5594,4.5594,4.5594,4.5594,4.5594,4.5594,4.5594,4.5594,4.5594,4.5594,4.5594,4.5594,4.5594,4.5594,4.5594,4.6228,4.6919,4.7622,4.8393,4.9692,5.0587,5.0683,5.0683,5.0683,5.0683,5.0683,5.0683,2.999,3.0046,3.0292,3.0404,3.0404,3.0404,3.0404,3.0404,3.0404,3.0408,3.0634,3.1518,3.1948,3.1948,3.2546,3.3005,3.3372,3.3699,3.3949,3.4359,3.4564,3.4982,3.544,3.55,3.5577,3.5614,3.5595,3.5566,3.5521,3.5515,3.55,3.55,3.55,3.55,3.55,3.55,3.55,3.55,3.5577,3.6269,3.749,3.7971,3.8621,3.9677,4.0526,4.0552,4.0496,4.0496,4.0496,4.0519,4.0534,4.0596,4.0697,4.0771,4.0805,4.0805,4.0813,4.0877,4.0955,4.106,4.147,4.2284,4.3144,4.4043,4.4941,4.5801,4.6269,4.6289,4.6289,4.6289,4.6289,4.6289,4.6289,4.6289,4.6289,4.6289,4.6289,4.6191,4.6074,4.5972,4.588,4.5807,4.5759,4.5688,4.561,4.5594,4.5594,4.5594,4.5594,4.5594,4.5594,4.5594,4.5594,4.5594,4.5594,4.5594,4.5594,4.5594,4.5594,4.5594,4.5594,4.5594,4.5633,4.6131,4.6756,4.7556,4.8509,4.9692,5.0385,5.0587,5.0683,5.0683,5.0683,5.0683,5.0683,2.9799,2.9937,3.0254,3.0404,3.0404,3.0404,3.0404,3.0404,3.0404,3.0404,3.0442,3.1025,3.1256,3.1135,3.1289,3.1776,3.2346,3.2795,3.3199,3.3583,3.4,3.4481,3.4909,3.535,3.5513,3.5564,3.5544,3.5522,3.5494,3.55,3.55,3.55,3.55,3.55,3.55,3.55,3.55,3.55,3.55,3.6423,3.7796,3.8161,3.8604,3.9669,4.0285,4.04,4.0496,4.0496,4.0496,4.0496,4.0504,4.0534,4.0596,4.0636,4.067,4.0679,4.0698,4.077,4.0851,4.098,4.1198,4.1935,4.3086,4.3984,4.4414,4.5254,4.623,4.6289,4.6289,4.6289,4.6289,4.6289,4.6289,4.6289,4.6289,4.6289,4.6289,4.625,4.6144,4.6069,4.5966,4.5915,4.5836,4.5761,4.5704,4.5594,4.5594,4.5594,4.5594,4.5594,4.5594,4.5594,4.5594,4.5594,4.5594,4.5594,4.5594,4.5594,4.5594,4.5594,4.5594,4.5594,4.571,4.6093,4.6718,4.7699,4.871,4.9731,5.0346,5.0644,5.0683,5.0683,5.0683,5.0683,5.0683,2.9615,2.993,3.0228,3.0367,3.0404,3.0404,3.0404,3.0404,3.0404,3.0404,3.0404,3.0442,3.0404,3.0392,3.0424,3.0969,3.1462,3.1891,3.2372,3.2891,3.3417,3.3917,3.4437,3.4911,3.5187,3.5438,3.5515,3.5508,3.5488,3.55,3.55,3.55,3.55,3.55,3.55,3.55,3.55,3.55,3.5731,3.6481,3.7308,3.8065,3.87,3.9419,4.0073,4.0458,4.0496,4.0496,4.0496,4.0496,4.0496,4.0512,4.0519,4.0552,4.0537,4.0568,4.0623,4.0666,4.0729,4.08,4.0889,4.1376,4.2739,4.3633,4.4062,4.4922,4.5898,4.6269,4.6269,4.6289,4.6289,4.6289,4.6289,4.6289,4.6289,4.6289,4.6289,4.6289,4.623,4.6133,4.6074,4.5996,4.5928,4.5856,4.5754,4.5648,4.5603,4.5594,4.5594,4.5594,4.5594,4.5594,4.5594,4.5594,4.5594,4.5594,4.5594,4.5594,4.5594,4.5594,4.5594,4.5594,4.5671,4.5892,4.6613,4.7757,4.8691,4.9615,5.0144,5.0683,5.0683,5.0683,5.0683,5.0683,5.0683,2.9625,2.9987,3.0042,3.0183,3.0373,3.0404,3.0404,3.0404,3.0404,3.0404,3.0404,3.0404,3.0404,3.0404,3.0398,3.0635,3.0808,3.1115,3.1468,3.1948,3.2372,3.3141,3.3898,3.4372,3.4872,3.5231,3.55,3.55,3.55,3.55,3.55,3.55,3.55,3.55,3.55,3.55,3.55,3.55,3.5692,3.6269,3.743,3.8238,3.8988,3.9708,4.0419,4.0496,4.0496,4.0496,4.0496,4.0496,4.0496,4.0496,4.0496,4.0496,4.0496,4.0496,4.0552,4.0596,4.0661,4.069,4.0762,4.0988,4.2259,4.332,4.3984,4.5,4.5742,4.6152,4.6191,4.6289,4.6289,4.6289,4.6289,4.6289,4.6289,4.6289,4.6289,4.6289,4.6269,4.6211,4.6152,4.6094,4.6045,4.5948,4.5815,4.5733,4.566,4.5643,4.5594,4.5594,4.5603,4.5594,4.5594,4.5594,4.5594,4.5594,4.5594,4.5594,4.5594,4.5594,4.5594,4.5594,4.571,4.6056,4.6872,4.7967,4.8835,4.9663,5.0202,5.0683,5.0683,5.0683,5.0683,5.0683,5.0683]}]]